<?xml version="1.0" encoding="utf-8"?>
<gpx xmlns:xsi="http://www.w3.org/2001/XMLSchema-instance" xmlns:xsd="http://www.w3.org/2001/XMLSchema" version="1.1" creator="Shapelink.com" xmlns="http://www.topografix.com/GPX/1/1" xmlns:gpxtpx="http://www.garmin.com/xmlschemas/TrackPointExtension/v1">
  <metadata>
    <name>Gåing 2.92 km, 2014-07-02</name>
    <desc></desc>
    <author><name>Mikael Blom</name></author> 
    <time>2014-07-02T10:21:17Z</time>
  </metadata>
  <trk>
    <name>Gåing 2.92 km, 2014-07-02</name>
    <trkseg>
      <trkpt lat="59.9090859" lon="17.7135942">
        <ele>48.684</ele>
        <time>2014-07-02T10:21:17Z</time>
      </trkpt>
      <trkpt lat="59.9090994" lon="17.7136071">
        <ele>48.684</ele>
        <time>2014-07-02T10:21:18Z</time>
      </trkpt>
      <trkpt lat="59.9091113" lon="17.7136248">
        <ele>48.684</ele>
        <time>2014-07-02T10:21:19Z</time>
      </trkpt>
      <trkpt lat="59.9091276" lon="17.7136465">
        <ele>48.684</ele>
        <time>2014-07-02T10:21:20Z</time>
      </trkpt>
      <trkpt lat="59.9091366" lon="17.7136686">
        <ele>46.2806</ele>
        <time>2014-07-02T10:21:21Z</time>
      </trkpt>
      <trkpt lat="59.9091455" lon="17.7136879">
        <ele>44.8386</ele>
        <time>2014-07-02T10:21:22Z</time>
      </trkpt>
      <trkpt lat="59.9091566" lon="17.7137075">
        <ele>45.3192</ele>
        <time>2014-07-02T10:21:23Z</time>
      </trkpt>
      <trkpt lat="59.9091669" lon="17.7137339">
        <ele>45.7999</ele>
        <time>2014-07-02T10:21:24Z</time>
      </trkpt>
      <trkpt lat="59.9091773" lon="17.7137618">
        <ele>46.2806</ele>
        <time>2014-07-02T10:21:25Z</time>
      </trkpt>
      <trkpt lat="59.909185" lon="17.7137821">
        <ele>46.2806</ele>
        <time>2014-07-02T10:21:26Z</time>
      </trkpt>
      <trkpt lat="59.9091959" lon="17.7137936">
        <ele>47.2418</ele>
        <time>2014-07-02T10:21:27Z</time>
      </trkpt>
      <trkpt lat="59.9092067" lon="17.713804">
        <ele>48.2034</ele>
        <time>2014-07-02T10:21:28Z</time>
      </trkpt>
      <trkpt lat="59.909213" lon="17.7138169">
        <ele>48.684</ele>
        <time>2014-07-02T10:21:29Z</time>
      </trkpt>
      <trkpt lat="59.9092143" lon="17.7138252">
        <ele>47.7225</ele>
        <time>2014-07-02T10:21:30Z</time>
      </trkpt>
      <trkpt lat="59.9092201" lon="17.7138351">
        <ele>46.2806</ele>
        <time>2014-07-02T10:21:31Z</time>
      </trkpt>
      <trkpt lat="59.909229" lon="17.7138382">
        <ele>45.7999</ele>
        <time>2014-07-02T10:21:32Z</time>
      </trkpt>
      <trkpt lat="59.9092358" lon="17.7138418">
        <ele>44.8386</ele>
        <time>2014-07-02T10:21:33Z</time>
      </trkpt>
      <trkpt lat="59.9092428" lon="17.7138516">
        <ele>44.358</ele>
        <time>2014-07-02T10:21:34Z</time>
      </trkpt>
      <trkpt lat="59.9092497" lon="17.7138615">
        <ele>44.358</ele>
        <time>2014-07-02T10:21:35Z</time>
      </trkpt>
      <trkpt lat="59.9092566" lon="17.7138692">
        <ele>44.358</ele>
        <time>2014-07-02T10:21:36Z</time>
      </trkpt>
      <trkpt lat="59.9092661" lon="17.7138832">
        <ele>45.7999</ele>
        <time>2014-07-02T10:21:37Z</time>
      </trkpt>
      <trkpt lat="59.9092777" lon="17.7138937">
        <ele>47.2418</ele>
        <time>2014-07-02T10:21:38Z</time>
      </trkpt>
      <trkpt lat="59.9092933" lon="17.7138992">
        <ele>47.2418</ele>
        <time>2014-07-02T10:21:39Z</time>
      </trkpt>
      <trkpt lat="59.9093076" lon="17.7139012">
        <ele>47.7225</ele>
        <time>2014-07-02T10:21:40Z</time>
      </trkpt>
      <trkpt lat="59.9093217" lon="17.7139041">
        <ele>49.1646</ele>
        <time>2014-07-02T10:21:41Z</time>
      </trkpt>
      <trkpt lat="59.9093332" lon="17.7139032">
        <ele>50.126</ele>
        <time>2014-07-02T10:21:42Z</time>
      </trkpt>
      <trkpt lat="59.9093497" lon="17.7139028">
        <ele>51.0872</ele>
        <time>2014-07-02T10:21:43Z</time>
      </trkpt>
      <trkpt lat="59.9093552" lon="17.7139093">
        <ele>51.0872</ele>
        <time>2014-07-02T10:21:44Z</time>
      </trkpt>
      <trkpt lat="59.9093642" lon="17.7139148">
        <ele>50.6066</ele>
        <time>2014-07-02T10:21:45Z</time>
      </trkpt>
      <trkpt lat="59.9093827" lon="17.7139203">
        <ele>50.6066</ele>
        <time>2014-07-02T10:21:46Z</time>
      </trkpt>
      <trkpt lat="59.9093938" lon="17.7139257">
        <ele>49.6453</ele>
        <time>2014-07-02T10:21:47Z</time>
      </trkpt>
      <trkpt lat="59.9094018" lon="17.7139319">
        <ele>49.6453</ele>
        <time>2014-07-02T10:21:48Z</time>
      </trkpt>
      <trkpt lat="59.9094124" lon="17.7139387">
        <ele>49.6453</ele>
        <time>2014-07-02T10:21:49Z</time>
      </trkpt>
      <trkpt lat="59.9094286" lon="17.7139424">
        <ele>50.126</ele>
        <time>2014-07-02T10:21:50Z</time>
      </trkpt>
      <trkpt lat="59.9094314" lon="17.7139449">
        <ele>49.1646</ele>
        <time>2014-07-02T10:21:51Z</time>
      </trkpt>
      <trkpt lat="59.909434" lon="17.7139391">
        <ele>49.1646</ele>
        <time>2014-07-02T10:21:52Z</time>
      </trkpt>
      <trkpt lat="59.9094731" lon="17.7139419">
        <ele>48.684</ele>
        <time>2014-07-02T10:21:56Z</time>
      </trkpt>
      <trkpt lat="59.9094922" lon="17.7139379">
        <ele>49.1646</ele>
        <time>2014-07-02T10:21:57Z</time>
      </trkpt>
      <trkpt lat="59.9095081" lon="17.7139442">
        <ele>49.6453</ele>
        <time>2014-07-02T10:21:58Z</time>
      </trkpt>
      <trkpt lat="59.9095264" lon="17.7139501">
        <ele>49.1646</ele>
        <time>2014-07-02T10:21:59Z</time>
      </trkpt>
      <trkpt lat="59.9095372" lon="17.7139483">
        <ele>49.1646</ele>
        <time>2014-07-02T10:22:00Z</time>
      </trkpt>
      <trkpt lat="59.9095481" lon="17.7139476">
        <ele>48.684</ele>
        <time>2014-07-02T10:22:01Z</time>
      </trkpt>
      <trkpt lat="59.9095579" lon="17.7139501">
        <ele>48.2034</ele>
        <time>2014-07-02T10:22:02Z</time>
      </trkpt>
      <trkpt lat="59.9095694" lon="17.7139501">
        <ele>48.684</ele>
        <time>2014-07-02T10:22:03Z</time>
      </trkpt>
      <trkpt lat="59.9095828" lon="17.7139543">
        <ele>48.684</ele>
        <time>2014-07-02T10:22:04Z</time>
      </trkpt>
      <trkpt lat="59.9095948" lon="17.7139584">
        <ele>49.1646</ele>
        <time>2014-07-02T10:22:05Z</time>
      </trkpt>
      <trkpt lat="59.9096054" lon="17.7139587">
        <ele>49.1646</ele>
        <time>2014-07-02T10:22:06Z</time>
      </trkpt>
      <trkpt lat="59.9096173" lon="17.7139557">
        <ele>50.126</ele>
        <time>2014-07-02T10:22:07Z</time>
      </trkpt>
      <trkpt lat="59.9096326" lon="17.7139521">
        <ele>51.5679</ele>
        <time>2014-07-02T10:22:08Z</time>
      </trkpt>
      <trkpt lat="59.9096508" lon="17.7139574">
        <ele>51.5679</ele>
        <time>2014-07-02T10:22:09Z</time>
      </trkpt>
      <trkpt lat="59.9096677" lon="17.7139634">
        <ele>51.5679</ele>
        <time>2014-07-02T10:22:10Z</time>
      </trkpt>
      <trkpt lat="59.9096803" lon="17.7139675">
        <ele>51.5679</ele>
        <time>2014-07-02T10:22:11Z</time>
      </trkpt>
      <trkpt lat="59.909691" lon="17.713973">
        <ele>50.6066</ele>
        <time>2014-07-02T10:22:12Z</time>
      </trkpt>
      <trkpt lat="59.9097052" lon="17.713979">
        <ele>50.6066</ele>
        <time>2014-07-02T10:22:13Z</time>
      </trkpt>
      <trkpt lat="59.90972" lon="17.713977">
        <ele>50.6066</ele>
        <time>2014-07-02T10:22:14Z</time>
      </trkpt>
      <trkpt lat="59.909735" lon="17.7139791">
        <ele>51.5679</ele>
        <time>2014-07-02T10:22:15Z</time>
      </trkpt>
      <trkpt lat="59.909745" lon="17.7139838">
        <ele>51.0872</ele>
        <time>2014-07-02T10:22:16Z</time>
      </trkpt>
      <trkpt lat="59.9097557" lon="17.713991">
        <ele>51.5679</ele>
        <time>2014-07-02T10:22:17Z</time>
      </trkpt>
      <trkpt lat="59.9097703" lon="17.7139967">
        <ele>51.5679</ele>
        <time>2014-07-02T10:22:18Z</time>
      </trkpt>
      <trkpt lat="59.9097911" lon="17.7139937">
        <ele>52.0486</ele>
        <time>2014-07-02T10:22:19Z</time>
      </trkpt>
      <trkpt lat="59.9098098" lon="17.713992">
        <ele>51.5679</ele>
        <time>2014-07-02T10:22:20Z</time>
      </trkpt>
      <trkpt lat="59.9098247" lon="17.7139951">
        <ele>51.0872</ele>
        <time>2014-07-02T10:22:21Z</time>
      </trkpt>
      <trkpt lat="59.9098416" lon="17.7140003">
        <ele>52.0486</ele>
        <time>2014-07-02T10:22:22Z</time>
      </trkpt>
      <trkpt lat="59.9098558" lon="17.7140044">
        <ele>52.5292</ele>
        <time>2014-07-02T10:22:23Z</time>
      </trkpt>
      <trkpt lat="59.9098651" lon="17.7140079">
        <ele>51.5679</ele>
        <time>2014-07-02T10:22:24Z</time>
      </trkpt>
      <trkpt lat="59.9098857" lon="17.714006">
        <ele>52.0486</ele>
        <time>2014-07-02T10:22:25Z</time>
      </trkpt>
      <trkpt lat="59.9099061" lon="17.7140081">
        <ele>52.0486</ele>
        <time>2014-07-02T10:22:26Z</time>
      </trkpt>
      <trkpt lat="59.9099231" lon="17.7140111">
        <ele>53.0098</ele>
        <time>2014-07-02T10:22:27Z</time>
      </trkpt>
      <trkpt lat="59.909933" lon="17.7140164">
        <ele>53.0098</ele>
        <time>2014-07-02T10:22:28Z</time>
      </trkpt>
      <trkpt lat="59.9099452" lon="17.71402">
        <ele>53.0098</ele>
        <time>2014-07-02T10:22:29Z</time>
      </trkpt>
      <trkpt lat="59.9099656" lon="17.7140272">
        <ele>53.9712</ele>
        <time>2014-07-02T10:22:30Z</time>
      </trkpt>
      <trkpt lat="59.9099797" lon="17.7140401">
        <ele>53.4905</ele>
        <time>2014-07-02T10:22:31Z</time>
      </trkpt>
      <trkpt lat="59.9099945" lon="17.714047">
        <ele>53.9712</ele>
        <time>2014-07-02T10:22:32Z</time>
      </trkpt>
      <trkpt lat="59.9100029" lon="17.7140454">
        <ele>53.9712</ele>
        <time>2014-07-02T10:22:33Z</time>
      </trkpt>
      <trkpt lat="59.9100195" lon="17.7140423">
        <ele>54.4518</ele>
        <time>2014-07-02T10:22:34Z</time>
      </trkpt>
      <trkpt lat="59.9100401" lon="17.7140412">
        <ele>55.4131</ele>
        <time>2014-07-02T10:22:35Z</time>
      </trkpt>
      <trkpt lat="59.9100611" lon="17.7140447">
        <ele>56.3745</ele>
        <time>2014-07-02T10:22:36Z</time>
      </trkpt>
      <trkpt lat="59.9100789" lon="17.7140438">
        <ele>55.8938</ele>
        <time>2014-07-02T10:22:37Z</time>
      </trkpt>
      <trkpt lat="59.9100965" lon="17.7140408">
        <ele>55.8938</ele>
        <time>2014-07-02T10:22:38Z</time>
      </trkpt>
      <trkpt lat="59.9101167" lon="17.7140392">
        <ele>56.3745</ele>
        <time>2014-07-02T10:22:39Z</time>
      </trkpt>
      <trkpt lat="59.9101304" lon="17.7140405">
        <ele>55.4131</ele>
        <time>2014-07-02T10:22:40Z</time>
      </trkpt>
      <trkpt lat="59.9101458" lon="17.7140407">
        <ele>54.9324</ele>
        <time>2014-07-02T10:22:41Z</time>
      </trkpt>
      <trkpt lat="59.910163" lon="17.7140376">
        <ele>56.3745</ele>
        <time>2014-07-02T10:22:42Z</time>
      </trkpt>
      <trkpt lat="59.9101732" lon="17.7140407">
        <ele>56.3745</ele>
        <time>2014-07-02T10:22:43Z</time>
      </trkpt>
      <trkpt lat="59.9101821" lon="17.7140434">
        <ele>55.8938</ele>
        <time>2014-07-02T10:22:44Z</time>
      </trkpt>
      <trkpt lat="59.9101923" lon="17.7140467">
        <ele>55.4131</ele>
        <time>2014-07-02T10:22:45Z</time>
      </trkpt>
      <trkpt lat="59.9102049" lon="17.7140459">
        <ele>54.9324</ele>
        <time>2014-07-02T10:22:46Z</time>
      </trkpt>
      <trkpt lat="59.9102143" lon="17.7140465">
        <ele>55.4131</ele>
        <time>2014-07-02T10:22:47Z</time>
      </trkpt>
      <trkpt lat="59.9102219" lon="17.7140588">
        <ele>54.4518</ele>
        <time>2014-07-02T10:22:48Z</time>
      </trkpt>
      <trkpt lat="59.9102353" lon="17.7140726">
        <ele>53.9712</ele>
        <time>2014-07-02T10:22:49Z</time>
      </trkpt>
      <trkpt lat="59.9102552" lon="17.7140904">
        <ele>53.9712</ele>
        <time>2014-07-02T10:22:50Z</time>
      </trkpt>
      <trkpt lat="59.9102696" lon="17.714108">
        <ele>53.4905</ele>
        <time>2014-07-02T10:22:51Z</time>
      </trkpt>
      <trkpt lat="59.9102831" lon="17.7141226">
        <ele>52.0486</ele>
        <time>2014-07-02T10:22:52Z</time>
      </trkpt>
      <trkpt lat="59.9103037" lon="17.7141422">
        <ele>52.5292</ele>
        <time>2014-07-02T10:22:53Z</time>
      </trkpt>
      <trkpt lat="59.9103174" lon="17.7141645">
        <ele>52.5292</ele>
        <time>2014-07-02T10:22:54Z</time>
      </trkpt>
      <trkpt lat="59.9103317" lon="17.7141804">
        <ele>53.0098</ele>
        <time>2014-07-02T10:22:55Z</time>
      </trkpt>
      <trkpt lat="59.9103422" lon="17.7141956">
        <ele>52.0486</ele>
        <time>2014-07-02T10:22:56Z</time>
      </trkpt>
      <trkpt lat="59.9103536" lon="17.7142111">
        <ele>52.0486</ele>
        <time>2014-07-02T10:22:57Z</time>
      </trkpt>
      <trkpt lat="59.9103643" lon="17.7142376">
        <ele>52.0486</ele>
        <time>2014-07-02T10:22:58Z</time>
      </trkpt>
      <trkpt lat="59.9103775" lon="17.7142588">
        <ele>53.0098</ele>
        <time>2014-07-02T10:22:59Z</time>
      </trkpt>
      <trkpt lat="59.9103887" lon="17.7142826">
        <ele>53.4905</ele>
        <time>2014-07-02T10:23:00Z</time>
      </trkpt>
      <trkpt lat="59.9103898" lon="17.7143125">
        <ele>53.4905</ele>
        <time>2014-07-02T10:23:01Z</time>
      </trkpt>
      <trkpt lat="59.9103915" lon="17.714341">
        <ele>53.4905</ele>
        <time>2014-07-02T10:23:02Z</time>
      </trkpt>
      <trkpt lat="59.9104006" lon="17.714368">
        <ele>53.4905</ele>
        <time>2014-07-02T10:23:03Z</time>
      </trkpt>
      <trkpt lat="59.9104073" lon="17.7143939">
        <ele>53.4905</ele>
        <time>2014-07-02T10:23:04Z</time>
      </trkpt>
      <trkpt lat="59.9104154" lon="17.7144264">
        <ele>53.4905</ele>
        <time>2014-07-02T10:23:05Z</time>
      </trkpt>
      <trkpt lat="59.9104251" lon="17.714455">
        <ele>53.0098</ele>
        <time>2014-07-02T10:23:06Z</time>
      </trkpt>
      <trkpt lat="59.9104268" lon="17.71448">
        <ele>53.0098</ele>
        <time>2014-07-02T10:23:07Z</time>
      </trkpt>
      <trkpt lat="59.9104318" lon="17.7144995">
        <ele>52.0486</ele>
        <time>2014-07-02T10:23:08Z</time>
      </trkpt>
      <trkpt lat="59.9104391" lon="17.7145256">
        <ele>51.0872</ele>
        <time>2014-07-02T10:23:09Z</time>
      </trkpt>
      <trkpt lat="59.9104413" lon="17.7145592">
        <ele>50.126</ele>
        <time>2014-07-02T10:23:10Z</time>
      </trkpt>
      <trkpt lat="59.9104439" lon="17.7145851">
        <ele>50.126</ele>
        <time>2014-07-02T10:23:11Z</time>
      </trkpt>
      <trkpt lat="59.9104483" lon="17.7146111">
        <ele>49.1646</ele>
        <time>2014-07-02T10:23:12Z</time>
      </trkpt>
      <trkpt lat="59.9104499" lon="17.7146455">
        <ele>48.684</ele>
        <time>2014-07-02T10:23:13Z</time>
      </trkpt>
      <trkpt lat="59.910452" lon="17.7146774">
        <ele>48.684</ele>
        <time>2014-07-02T10:23:14Z</time>
      </trkpt>
      <trkpt lat="59.9104558" lon="17.7147072">
        <ele>47.2418</ele>
        <time>2014-07-02T10:23:15Z</time>
      </trkpt>
      <trkpt lat="59.9104593" lon="17.7147386">
        <ele>46.7612</ele>
        <time>2014-07-02T10:23:16Z</time>
      </trkpt>
      <trkpt lat="59.9104565" lon="17.714773">
        <ele>45.7999</ele>
        <time>2014-07-02T10:23:17Z</time>
      </trkpt>
      <trkpt lat="59.910453" lon="17.7148063">
        <ele>44.8386</ele>
        <time>2014-07-02T10:23:18Z</time>
      </trkpt>
      <trkpt lat="59.91045" lon="17.7148461">
        <ele>43.8773</ele>
        <time>2014-07-02T10:23:19Z</time>
      </trkpt>
      <trkpt lat="59.9104436" lon="17.7148918">
        <ele>43.8773</ele>
        <time>2014-07-02T10:23:20Z</time>
      </trkpt>
      <trkpt lat="59.9104375" lon="17.7149234">
        <ele>42.916</ele>
        <time>2014-07-02T10:23:21Z</time>
      </trkpt>
      <trkpt lat="59.9104329" lon="17.7149503">
        <ele>41.9547</ele>
        <time>2014-07-02T10:23:22Z</time>
      </trkpt>
      <trkpt lat="59.9104246" lon="17.7149716">
        <ele>40.0321</ele>
        <time>2014-07-02T10:23:23Z</time>
      </trkpt>
      <trkpt lat="59.9104168" lon="17.7149985">
        <ele>39.0707</ele>
        <time>2014-07-02T10:23:24Z</time>
      </trkpt>
      <trkpt lat="59.9104088" lon="17.7150182">
        <ele>38.5901</ele>
        <time>2014-07-02T10:23:25Z</time>
      </trkpt>
      <trkpt lat="59.9104029" lon="17.7150356">
        <ele>38.1094</ele>
        <time>2014-07-02T10:23:26Z</time>
      </trkpt>
      <trkpt lat="59.9103995" lon="17.7150607">
        <ele>37.1481</ele>
        <time>2014-07-02T10:23:27Z</time>
      </trkpt>
      <trkpt lat="59.9103954" lon="17.7150855">
        <ele>36.6675</ele>
        <time>2014-07-02T10:23:28Z</time>
      </trkpt>
      <trkpt lat="59.910392" lon="17.7151191">
        <ele>36.1868</ele>
        <time>2014-07-02T10:23:29Z</time>
      </trkpt>
      <trkpt lat="59.9103893" lon="17.7151508">
        <ele>36.1868</ele>
        <time>2014-07-02T10:23:30Z</time>
      </trkpt>
      <trkpt lat="59.9103883" lon="17.7151861">
        <ele>36.6675</ele>
        <time>2014-07-02T10:23:31Z</time>
      </trkpt>
      <trkpt lat="59.9103889" lon="17.7152193">
        <ele>37.1481</ele>
        <time>2014-07-02T10:23:32Z</time>
      </trkpt>
      <trkpt lat="59.9103899" lon="17.7152534">
        <ele>36.1868</ele>
        <time>2014-07-02T10:23:33Z</time>
      </trkpt>
      <trkpt lat="59.9103925" lon="17.7152898">
        <ele>36.1868</ele>
        <time>2014-07-02T10:23:34Z</time>
      </trkpt>
      <trkpt lat="59.9103964" lon="17.7153174">
        <ele>36.1868</ele>
        <time>2014-07-02T10:23:35Z</time>
      </trkpt>
      <trkpt lat="59.9104019" lon="17.7153455">
        <ele>36.1868</ele>
        <time>2014-07-02T10:23:36Z</time>
      </trkpt>
      <trkpt lat="59.9104074" lon="17.7153752">
        <ele>35.7061</ele>
        <time>2014-07-02T10:23:37Z</time>
      </trkpt>
      <trkpt lat="59.9104138" lon="17.7154026">
        <ele>36.1868</ele>
        <time>2014-07-02T10:23:38Z</time>
      </trkpt>
      <trkpt lat="59.9104219" lon="17.7154326">
        <ele>36.6675</ele>
        <time>2014-07-02T10:23:39Z</time>
      </trkpt>
      <trkpt lat="59.9104309" lon="17.7154602">
        <ele>36.6675</ele>
        <time>2014-07-02T10:23:40Z</time>
      </trkpt>
      <trkpt lat="59.9104415" lon="17.715486">
        <ele>37.1481</ele>
        <time>2014-07-02T10:23:41Z</time>
      </trkpt>
      <trkpt lat="59.9104525" lon="17.7155111">
        <ele>37.6287</ele>
        <time>2014-07-02T10:23:42Z</time>
      </trkpt>
      <trkpt lat="59.9104592" lon="17.7155331">
        <ele>37.6287</ele>
        <time>2014-07-02T10:23:43Z</time>
      </trkpt>
      <trkpt lat="59.9104639" lon="17.7155554">
        <ele>37.6287</ele>
        <time>2014-07-02T10:23:44Z</time>
      </trkpt>
      <trkpt lat="59.9104728" lon="17.7155808">
        <ele>37.6287</ele>
        <time>2014-07-02T10:23:45Z</time>
      </trkpt>
      <trkpt lat="59.9104811" lon="17.7156096">
        <ele>38.1094</ele>
        <time>2014-07-02T10:23:46Z</time>
      </trkpt>
      <trkpt lat="59.9104872" lon="17.7156393">
        <ele>38.1094</ele>
        <time>2014-07-02T10:23:47Z</time>
      </trkpt>
      <trkpt lat="59.9104957" lon="17.7156688">
        <ele>38.5901</ele>
        <time>2014-07-02T10:23:48Z</time>
      </trkpt>
      <trkpt lat="59.9105049" lon="17.7157066">
        <ele>39.0707</ele>
        <time>2014-07-02T10:23:49Z</time>
      </trkpt>
      <trkpt lat="59.9105154" lon="17.715745">
        <ele>39.5513</ele>
        <time>2014-07-02T10:23:50Z</time>
      </trkpt>
      <trkpt lat="59.9105256" lon="17.7157815">
        <ele>39.5513</ele>
        <time>2014-07-02T10:23:51Z</time>
      </trkpt>
      <trkpt lat="59.9105309" lon="17.715818">
        <ele>40.0321</ele>
        <time>2014-07-02T10:23:52Z</time>
      </trkpt>
      <trkpt lat="59.9105363" lon="17.7158528">
        <ele>40.5128</ele>
        <time>2014-07-02T10:23:53Z</time>
      </trkpt>
      <trkpt lat="59.9105417" lon="17.715889">
        <ele>40.9934</ele>
        <time>2014-07-02T10:23:54Z</time>
      </trkpt>
      <trkpt lat="59.9105453" lon="17.7159222">
        <ele>41.474</ele>
        <time>2014-07-02T10:23:55Z</time>
      </trkpt>
      <trkpt lat="59.910551" lon="17.715954">
        <ele>41.474</ele>
        <time>2014-07-02T10:23:56Z</time>
      </trkpt>
      <trkpt lat="59.9105567" lon="17.7159874">
        <ele>41.9547</ele>
        <time>2014-07-02T10:23:57Z</time>
      </trkpt>
      <trkpt lat="59.9105644" lon="17.7160162">
        <ele>42.4354</ele>
        <time>2014-07-02T10:23:58Z</time>
      </trkpt>
      <trkpt lat="59.9105757" lon="17.7160424">
        <ele>42.916</ele>
        <time>2014-07-02T10:23:59Z</time>
      </trkpt>
      <trkpt lat="59.9105873" lon="17.7160664">
        <ele>43.8773</ele>
        <time>2014-07-02T10:24:00Z</time>
      </trkpt>
      <trkpt lat="59.9106013" lon="17.7160906">
        <ele>44.8386</ele>
        <time>2014-07-02T10:24:01Z</time>
      </trkpt>
      <trkpt lat="59.9106157" lon="17.7161163">
        <ele>45.3192</ele>
        <time>2014-07-02T10:24:02Z</time>
      </trkpt>
      <trkpt lat="59.9106312" lon="17.7161441">
        <ele>46.7612</ele>
        <time>2014-07-02T10:24:03Z</time>
      </trkpt>
      <trkpt lat="59.9106458" lon="17.7161713">
        <ele>47.2418</ele>
        <time>2014-07-02T10:24:04Z</time>
      </trkpt>
      <trkpt lat="59.9106594" lon="17.7161976">
        <ele>48.2034</ele>
        <time>2014-07-02T10:24:05Z</time>
      </trkpt>
      <trkpt lat="59.9106741" lon="17.7162215">
        <ele>49.1646</ele>
        <time>2014-07-02T10:24:06Z</time>
      </trkpt>
      <trkpt lat="59.9106888" lon="17.7162429">
        <ele>50.126</ele>
        <time>2014-07-02T10:24:07Z</time>
      </trkpt>
      <trkpt lat="59.9107054" lon="17.7162615">
        <ele>51.0872</ele>
        <time>2014-07-02T10:24:08Z</time>
      </trkpt>
      <trkpt lat="59.9107172" lon="17.7162794">
        <ele>51.5679</ele>
        <time>2014-07-02T10:24:09Z</time>
      </trkpt>
      <trkpt lat="59.9107259" lon="17.7162971">
        <ele>52.0486</ele>
        <time>2014-07-02T10:24:10Z</time>
      </trkpt>
      <trkpt lat="59.9107338" lon="17.7163131">
        <ele>52.0486</ele>
        <time>2014-07-02T10:24:11Z</time>
      </trkpt>
      <trkpt lat="59.9107404" lon="17.7163291">
        <ele>52.0486</ele>
        <time>2014-07-02T10:24:12Z</time>
      </trkpt>
      <trkpt lat="59.9107463" lon="17.7163434">
        <ele>52.5292</ele>
        <time>2014-07-02T10:24:13Z</time>
      </trkpt>
      <trkpt lat="59.9107561" lon="17.7163581">
        <ele>52.5292</ele>
        <time>2014-07-02T10:24:14Z</time>
      </trkpt>
      <trkpt lat="59.9107675" lon="17.7163743">
        <ele>52.5292</ele>
        <time>2014-07-02T10:24:15Z</time>
      </trkpt>
      <trkpt lat="59.9107785" lon="17.7163899">
        <ele>52.0486</ele>
        <time>2014-07-02T10:24:16Z</time>
      </trkpt>
      <trkpt lat="59.9107902" lon="17.7164049">
        <ele>51.5679</ele>
        <time>2014-07-02T10:24:17Z</time>
      </trkpt>
      <trkpt lat="59.9108018" lon="17.7164184">
        <ele>51.5679</ele>
        <time>2014-07-02T10:24:18Z</time>
      </trkpt>
      <trkpt lat="59.910809" lon="17.7164323">
        <ele>51.5679</ele>
        <time>2014-07-02T10:24:19Z</time>
      </trkpt>
      <trkpt lat="59.9108157" lon="17.7164461">
        <ele>51.5679</ele>
        <time>2014-07-02T10:24:20Z</time>
      </trkpt>
      <trkpt lat="59.9108249" lon="17.7164596">
        <ele>51.0872</ele>
        <time>2014-07-02T10:24:21Z</time>
      </trkpt>
      <trkpt lat="59.9108364" lon="17.7164692">
        <ele>50.6066</ele>
        <time>2014-07-02T10:24:22Z</time>
      </trkpt>
      <trkpt lat="59.9108494" lon="17.7164758">
        <ele>50.6066</ele>
        <time>2014-07-02T10:24:23Z</time>
      </trkpt>
      <trkpt lat="59.9108597" lon="17.7164842">
        <ele>50.6066</ele>
        <time>2014-07-02T10:24:24Z</time>
      </trkpt>
      <trkpt lat="59.9108694" lon="17.7164909">
        <ele>50.126</ele>
        <time>2014-07-02T10:24:25Z</time>
      </trkpt>
      <trkpt lat="59.9108763" lon="17.7164977">
        <ele>49.6453</ele>
        <time>2014-07-02T10:24:26Z</time>
      </trkpt>
      <trkpt lat="59.9108841" lon="17.7165032">
        <ele>49.6453</ele>
        <time>2014-07-02T10:24:27Z</time>
      </trkpt>
      <trkpt lat="59.9108924" lon="17.7165073">
        <ele>49.1646</ele>
        <time>2014-07-02T10:24:28Z</time>
      </trkpt>
      <trkpt lat="59.9109017" lon="17.7165096">
        <ele>48.684</ele>
        <time>2014-07-02T10:24:29Z</time>
      </trkpt>
      <trkpt lat="59.910913" lon="17.7165126">
        <ele>49.1646</ele>
        <time>2014-07-02T10:24:30Z</time>
      </trkpt>
      <trkpt lat="59.9109256" lon="17.7165207">
        <ele>49.1646</ele>
        <time>2014-07-02T10:24:31Z</time>
      </trkpt>
      <trkpt lat="59.9109382" lon="17.7165323">
        <ele>48.684</ele>
        <time>2014-07-02T10:24:32Z</time>
      </trkpt>
      <trkpt lat="59.9109484" lon="17.7165375">
        <ele>48.2034</ele>
        <time>2014-07-02T10:24:33Z</time>
      </trkpt>
      <trkpt lat="59.9109572" lon="17.7165373">
        <ele>46.7612</ele>
        <time>2014-07-02T10:24:34Z</time>
      </trkpt>
      <trkpt lat="59.9109639" lon="17.7165308">
        <ele>45.7999</ele>
        <time>2014-07-02T10:24:35Z</time>
      </trkpt>
      <trkpt lat="59.9109719" lon="17.7165235">
        <ele>45.3192</ele>
        <time>2014-07-02T10:24:36Z</time>
      </trkpt>
      <trkpt lat="59.9109805" lon="17.7165163">
        <ele>44.8386</ele>
        <time>2014-07-02T10:24:37Z</time>
      </trkpt>
      <trkpt lat="59.9109948" lon="17.7165066">
        <ele>44.358</ele>
        <time>2014-07-02T10:24:38Z</time>
      </trkpt>
      <trkpt lat="59.9110056" lon="17.7165003">
        <ele>42.916</ele>
        <time>2014-07-02T10:24:39Z</time>
      </trkpt>
      <trkpt lat="59.9110162" lon="17.7164959">
        <ele>42.4354</ele>
        <time>2014-07-02T10:24:40Z</time>
      </trkpt>
      <trkpt lat="59.9110271" lon="17.7164902">
        <ele>41.474</ele>
        <time>2014-07-02T10:24:41Z</time>
      </trkpt>
      <trkpt lat="59.9110401" lon="17.716484">
        <ele>40.9934</ele>
        <time>2014-07-02T10:24:42Z</time>
      </trkpt>
      <trkpt lat="59.9110539" lon="17.7164774">
        <ele>40.5128</ele>
        <time>2014-07-02T10:24:43Z</time>
      </trkpt>
      <trkpt lat="59.9110664" lon="17.7164687">
        <ele>40.0321</ele>
        <time>2014-07-02T10:24:44Z</time>
      </trkpt>
      <trkpt lat="59.9110755" lon="17.7164623">
        <ele>39.5513</ele>
        <time>2014-07-02T10:24:45Z</time>
      </trkpt>
      <trkpt lat="59.9110824" lon="17.7164552">
        <ele>38.5901</ele>
        <time>2014-07-02T10:24:46Z</time>
      </trkpt>
      <trkpt lat="59.9110917" lon="17.7164483">
        <ele>38.1094</ele>
        <time>2014-07-02T10:24:47Z</time>
      </trkpt>
      <trkpt lat="59.9111027" lon="17.7164447">
        <ele>37.6287</ele>
        <time>2014-07-02T10:24:48Z</time>
      </trkpt>
      <trkpt lat="59.9111159" lon="17.7164407">
        <ele>37.6287</ele>
        <time>2014-07-02T10:24:49Z</time>
      </trkpt>
      <trkpt lat="59.9111315" lon="17.716434">
        <ele>38.1094</ele>
        <time>2014-07-02T10:24:50Z</time>
      </trkpt>
      <trkpt lat="59.9111473" lon="17.7164309">
        <ele>38.1094</ele>
        <time>2014-07-02T10:24:51Z</time>
      </trkpt>
      <trkpt lat="59.9111617" lon="17.7164278">
        <ele>38.1094</ele>
        <time>2014-07-02T10:24:52Z</time>
      </trkpt>
      <trkpt lat="59.9111786" lon="17.716424">
        <ele>38.5901</ele>
        <time>2014-07-02T10:24:53Z</time>
      </trkpt>
      <trkpt lat="59.9111964" lon="17.7164182">
        <ele>39.5513</ele>
        <time>2014-07-02T10:24:54Z</time>
      </trkpt>
      <trkpt lat="59.9112135" lon="17.7164121">
        <ele>40.9934</ele>
        <time>2014-07-02T10:24:55Z</time>
      </trkpt>
      <trkpt lat="59.9112279" lon="17.7164096">
        <ele>41.474</ele>
        <time>2014-07-02T10:24:56Z</time>
      </trkpt>
      <trkpt lat="59.911238" lon="17.7164083">
        <ele>40.9934</ele>
        <time>2014-07-02T10:24:57Z</time>
      </trkpt>
      <trkpt lat="59.9112529" lon="17.716408">
        <ele>40.5128</ele>
        <time>2014-07-02T10:24:58Z</time>
      </trkpt>
      <trkpt lat="59.9112677" lon="17.7164057">
        <ele>40.5128</ele>
        <time>2014-07-02T10:24:59Z</time>
      </trkpt>
      <trkpt lat="59.9112791" lon="17.7164061">
        <ele>40.0321</ele>
        <time>2014-07-02T10:25:00Z</time>
      </trkpt>
      <trkpt lat="59.9112918" lon="17.716406">
        <ele>39.5513</ele>
        <time>2014-07-02T10:25:01Z</time>
      </trkpt>
      <trkpt lat="59.9113069" lon="17.7164101">
        <ele>39.0707</ele>
        <time>2014-07-02T10:25:02Z</time>
      </trkpt>
      <trkpt lat="59.9113218" lon="17.7164153">
        <ele>39.5513</ele>
        <time>2014-07-02T10:25:03Z</time>
      </trkpt>
      <trkpt lat="59.9113368" lon="17.7164205">
        <ele>39.5513</ele>
        <time>2014-07-02T10:25:04Z</time>
      </trkpt>
      <trkpt lat="59.9113465" lon="17.7164263">
        <ele>39.0707</ele>
        <time>2014-07-02T10:25:05Z</time>
      </trkpt>
      <trkpt lat="59.9113574" lon="17.7164332">
        <ele>38.5901</ele>
        <time>2014-07-02T10:25:06Z</time>
      </trkpt>
      <trkpt lat="59.9113714" lon="17.7164386">
        <ele>39.0707</ele>
        <time>2014-07-02T10:25:07Z</time>
      </trkpt>
      <trkpt lat="59.9113829" lon="17.7164515">
        <ele>38.5901</ele>
        <time>2014-07-02T10:25:08Z</time>
      </trkpt>
      <trkpt lat="59.9113942" lon="17.7164656">
        <ele>38.1094</ele>
        <time>2014-07-02T10:25:09Z</time>
      </trkpt>
      <trkpt lat="59.9114047" lon="17.71647">
        <ele>37.1481</ele>
        <time>2014-07-02T10:25:10Z</time>
      </trkpt>
      <trkpt lat="59.9114153" lon="17.7164681">
        <ele>36.6675</ele>
        <time>2014-07-02T10:25:11Z</time>
      </trkpt>
      <trkpt lat="59.9114254" lon="17.7164655">
        <ele>35.7061</ele>
        <time>2014-07-02T10:25:12Z</time>
      </trkpt>
      <trkpt lat="59.9114457" lon="17.7164594">
        <ele>37.1481</ele>
        <time>2014-07-02T10:25:13Z</time>
      </trkpt>
      <trkpt lat="59.9114622" lon="17.716454">
        <ele>37.6287</ele>
        <time>2014-07-02T10:25:14Z</time>
      </trkpt>
      <trkpt lat="59.911477" lon="17.716447">
        <ele>38.1094</ele>
        <time>2014-07-02T10:25:15Z</time>
      </trkpt>
      <trkpt lat="59.9114991" lon="17.7164334">
        <ele>39.5513</ele>
        <time>2014-07-02T10:25:16Z</time>
      </trkpt>
      <trkpt lat="59.9115148" lon="17.7164185">
        <ele>39.5513</ele>
        <time>2014-07-02T10:25:17Z</time>
      </trkpt>
      <trkpt lat="59.9115289" lon="17.7164068">
        <ele>39.5513</ele>
        <time>2014-07-02T10:25:18Z</time>
      </trkpt>
      <trkpt lat="59.9115426" lon="17.7164">
        <ele>39.0707</ele>
        <time>2014-07-02T10:25:19Z</time>
      </trkpt>
      <trkpt lat="59.9115597" lon="17.7163861">
        <ele>39.5513</ele>
        <time>2014-07-02T10:25:20Z</time>
      </trkpt>
      <trkpt lat="59.9115725" lon="17.7163679">
        <ele>39.5513</ele>
        <time>2014-07-02T10:25:21Z</time>
      </trkpt>
      <trkpt lat="59.9115847" lon="17.71635">
        <ele>39.5513</ele>
        <time>2014-07-02T10:25:22Z</time>
      </trkpt>
      <trkpt lat="59.9115997" lon="17.7163375">
        <ele>40.5128</ele>
        <time>2014-07-02T10:25:23Z</time>
      </trkpt>
      <trkpt lat="59.9116124" lon="17.7163184">
        <ele>40.5128</ele>
        <time>2014-07-02T10:25:24Z</time>
      </trkpt>
      <trkpt lat="59.9116254" lon="17.7162976">
        <ele>40.5128</ele>
        <time>2014-07-02T10:25:25Z</time>
      </trkpt>
      <trkpt lat="59.9116474" lon="17.7162832">
        <ele>41.9547</ele>
        <time>2014-07-02T10:25:26Z</time>
      </trkpt>
      <trkpt lat="59.91166" lon="17.7162656">
        <ele>41.9547</ele>
        <time>2014-07-02T10:25:27Z</time>
      </trkpt>
      <trkpt lat="59.9116704" lon="17.7162455">
        <ele>41.474</ele>
        <time>2014-07-02T10:25:28Z</time>
      </trkpt>
      <trkpt lat="59.9116891" lon="17.7162232">
        <ele>40.9934</ele>
        <time>2014-07-02T10:25:29Z</time>
      </trkpt>
      <trkpt lat="59.9117072" lon="17.7162008">
        <ele>41.474</ele>
        <time>2014-07-02T10:25:30Z</time>
      </trkpt>
      <trkpt lat="59.9117199" lon="17.7161815">
        <ele>40.9934</ele>
        <time>2014-07-02T10:25:31Z</time>
      </trkpt>
      <trkpt lat="59.9117285" lon="17.7161598">
        <ele>40.5128</ele>
        <time>2014-07-02T10:25:32Z</time>
      </trkpt>
      <trkpt lat="59.9117422" lon="17.7161375">
        <ele>40.9934</ele>
        <time>2014-07-02T10:25:33Z</time>
      </trkpt>
      <trkpt lat="59.9117568" lon="17.7161159">
        <ele>41.9547</ele>
        <time>2014-07-02T10:25:34Z</time>
      </trkpt>
      <trkpt lat="59.9117699" lon="17.7161015">
        <ele>42.4354</ele>
        <time>2014-07-02T10:25:35Z</time>
      </trkpt>
      <trkpt lat="59.9117842" lon="17.7160859">
        <ele>43.8773</ele>
        <time>2014-07-02T10:25:36Z</time>
      </trkpt>
      <trkpt lat="59.9117973" lon="17.7160652">
        <ele>44.358</ele>
        <time>2014-07-02T10:25:37Z</time>
      </trkpt>
      <trkpt lat="59.9118088" lon="17.7160434">
        <ele>44.8386</ele>
        <time>2014-07-02T10:25:38Z</time>
      </trkpt>
      <trkpt lat="59.9118191" lon="17.7160237">
        <ele>44.8386</ele>
        <time>2014-07-02T10:25:39Z</time>
      </trkpt>
      <trkpt lat="59.9118274" lon="17.7159988">
        <ele>44.8386</ele>
        <time>2014-07-02T10:25:40Z</time>
      </trkpt>
      <trkpt lat="59.9118354" lon="17.7159729">
        <ele>44.8386</ele>
        <time>2014-07-02T10:25:41Z</time>
      </trkpt>
      <trkpt lat="59.9118445" lon="17.7159496">
        <ele>44.358</ele>
        <time>2014-07-02T10:25:42Z</time>
      </trkpt>
      <trkpt lat="59.9118577" lon="17.7159285">
        <ele>44.358</ele>
        <time>2014-07-02T10:25:43Z</time>
      </trkpt>
      <trkpt lat="59.9118713" lon="17.7159076">
        <ele>44.8386</ele>
        <time>2014-07-02T10:25:44Z</time>
      </trkpt>
      <trkpt lat="59.9118818" lon="17.7158841">
        <ele>44.8386</ele>
        <time>2014-07-02T10:25:45Z</time>
      </trkpt>
      <trkpt lat="59.9118911" lon="17.7158595">
        <ele>44.358</ele>
        <time>2014-07-02T10:25:46Z</time>
      </trkpt>
      <trkpt lat="59.9119056" lon="17.7158373">
        <ele>45.3192</ele>
        <time>2014-07-02T10:25:47Z</time>
      </trkpt>
      <trkpt lat="59.9119165" lon="17.7158171">
        <ele>44.8386</ele>
        <time>2014-07-02T10:25:48Z</time>
      </trkpt>
      <trkpt lat="59.9119268" lon="17.7157976">
        <ele>44.8386</ele>
        <time>2014-07-02T10:25:49Z</time>
      </trkpt>
      <trkpt lat="59.9119385" lon="17.7157777">
        <ele>45.3192</ele>
        <time>2014-07-02T10:25:50Z</time>
      </trkpt>
      <trkpt lat="59.9119513" lon="17.7157594">
        <ele>45.3192</ele>
        <time>2014-07-02T10:25:51Z</time>
      </trkpt>
      <trkpt lat="59.9119657" lon="17.7157408">
        <ele>46.2806</ele>
        <time>2014-07-02T10:25:52Z</time>
      </trkpt>
      <trkpt lat="59.9119696" lon="17.7157123">
        <ele>44.8386</ele>
        <time>2014-07-02T10:25:53Z</time>
      </trkpt>
      <trkpt lat="59.9119767" lon="17.7156868">
        <ele>43.8773</ele>
        <time>2014-07-02T10:25:54Z</time>
      </trkpt>
      <trkpt lat="59.9119885" lon="17.7156671">
        <ele>43.8773</ele>
        <time>2014-07-02T10:25:55Z</time>
      </trkpt>
      <trkpt lat="59.9120004" lon="17.7156497">
        <ele>44.358</ele>
        <time>2014-07-02T10:25:56Z</time>
      </trkpt>
      <trkpt lat="59.9120128" lon="17.7156326">
        <ele>44.358</ele>
        <time>2014-07-02T10:25:57Z</time>
      </trkpt>
      <trkpt lat="59.9120279" lon="17.7156222">
        <ele>44.358</ele>
        <time>2014-07-02T10:25:58Z</time>
      </trkpt>
      <trkpt lat="59.9120419" lon="17.7156097">
        <ele>43.8773</ele>
        <time>2014-07-02T10:25:59Z</time>
      </trkpt>
      <trkpt lat="59.9120553" lon="17.7155891">
        <ele>43.3966</ele>
        <time>2014-07-02T10:26:00Z</time>
      </trkpt>
      <trkpt lat="59.9120677" lon="17.7155689">
        <ele>43.8773</ele>
        <time>2014-07-02T10:26:01Z</time>
      </trkpt>
      <trkpt lat="59.9120817" lon="17.7155569">
        <ele>44.358</ele>
        <time>2014-07-02T10:26:02Z</time>
      </trkpt>
      <trkpt lat="59.9120922" lon="17.7155454">
        <ele>44.358</ele>
        <time>2014-07-02T10:26:03Z</time>
      </trkpt>
      <trkpt lat="59.9121014" lon="17.7155296">
        <ele>43.8773</ele>
        <time>2014-07-02T10:26:04Z</time>
      </trkpt>
      <trkpt lat="59.9121139" lon="17.7155148">
        <ele>44.358</ele>
        <time>2014-07-02T10:26:05Z</time>
      </trkpt>
      <trkpt lat="59.9121253" lon="17.7154982">
        <ele>44.358</ele>
        <time>2014-07-02T10:26:06Z</time>
      </trkpt>
      <trkpt lat="59.9121397" lon="17.7154814">
        <ele>44.8386</ele>
        <time>2014-07-02T10:26:07Z</time>
      </trkpt>
      <trkpt lat="59.9121522" lon="17.7154651">
        <ele>45.3192</ele>
        <time>2014-07-02T10:26:08Z</time>
      </trkpt>
      <trkpt lat="59.9121619" lon="17.7154452">
        <ele>44.8386</ele>
        <time>2014-07-02T10:26:09Z</time>
      </trkpt>
      <trkpt lat="59.9121718" lon="17.715427">
        <ele>44.358</ele>
        <time>2014-07-02T10:26:10Z</time>
      </trkpt>
      <trkpt lat="59.9121853" lon="17.715411">
        <ele>44.358</ele>
        <time>2014-07-02T10:26:11Z</time>
      </trkpt>
      <trkpt lat="59.9121971" lon="17.7154004">
        <ele>43.8773</ele>
        <time>2014-07-02T10:26:12Z</time>
      </trkpt>
      <trkpt lat="59.9122117" lon="17.7153889">
        <ele>43.8773</ele>
        <time>2014-07-02T10:26:13Z</time>
      </trkpt>
      <trkpt lat="59.9122243" lon="17.7153755">
        <ele>43.3966</ele>
        <time>2014-07-02T10:26:14Z</time>
      </trkpt>
      <trkpt lat="59.9122329" lon="17.7153569">
        <ele>42.916</ele>
        <time>2014-07-02T10:26:15Z</time>
      </trkpt>
      <trkpt lat="59.9122442" lon="17.7153495">
        <ele>43.3966</ele>
        <time>2014-07-02T10:26:16Z</time>
      </trkpt>
      <trkpt lat="59.9122521" lon="17.7153497">
        <ele>42.916</ele>
        <time>2014-07-02T10:26:17Z</time>
      </trkpt>
      <trkpt lat="59.9122607" lon="17.7153527">
        <ele>42.4354</ele>
        <time>2014-07-02T10:26:18Z</time>
      </trkpt>
      <trkpt lat="59.9122703" lon="17.7153595">
        <ele>42.4354</ele>
        <time>2014-07-02T10:26:19Z</time>
      </trkpt>
      <trkpt lat="59.9122804" lon="17.7153741">
        <ele>42.4354</ele>
        <time>2014-07-02T10:26:20Z</time>
      </trkpt>
      <trkpt lat="59.9122874" lon="17.7154034">
        <ele>42.916</ele>
        <time>2014-07-02T10:26:21Z</time>
      </trkpt>
      <trkpt lat="59.9122977" lon="17.7154265">
        <ele>43.8773</ele>
        <time>2014-07-02T10:26:22Z</time>
      </trkpt>
      <trkpt lat="59.9123153" lon="17.7154335">
        <ele>43.8773</ele>
        <time>2014-07-02T10:26:23Z</time>
      </trkpt>
      <trkpt lat="59.9123301" lon="17.7154365">
        <ele>43.8773</ele>
        <time>2014-07-02T10:26:24Z</time>
      </trkpt>
      <trkpt lat="59.9123433" lon="17.7154408">
        <ele>44.358</ele>
        <time>2014-07-02T10:26:25Z</time>
      </trkpt>
      <trkpt lat="59.9123581" lon="17.7154445">
        <ele>44.358</ele>
        <time>2014-07-02T10:26:26Z</time>
      </trkpt>
      <trkpt lat="59.9123734" lon="17.7154513">
        <ele>44.358</ele>
        <time>2014-07-02T10:26:27Z</time>
      </trkpt>
      <trkpt lat="59.9123866" lon="17.7154553">
        <ele>44.358</ele>
        <time>2014-07-02T10:26:28Z</time>
      </trkpt>
      <trkpt lat="59.9124018" lon="17.7154538">
        <ele>44.358</ele>
        <time>2014-07-02T10:26:29Z</time>
      </trkpt>
      <trkpt lat="59.9124187" lon="17.7154573">
        <ele>44.8386</ele>
        <time>2014-07-02T10:26:30Z</time>
      </trkpt>
      <trkpt lat="59.9124314" lon="17.7154716">
        <ele>44.358</ele>
        <time>2014-07-02T10:26:31Z</time>
      </trkpt>
      <trkpt lat="59.9124428" lon="17.7154825">
        <ele>43.8773</ele>
        <time>2014-07-02T10:26:32Z</time>
      </trkpt>
      <trkpt lat="59.9124541" lon="17.7154916">
        <ele>43.3966</ele>
        <time>2014-07-02T10:26:33Z</time>
      </trkpt>
      <trkpt lat="59.912467" lon="17.7155027">
        <ele>42.916</ele>
        <time>2014-07-02T10:26:34Z</time>
      </trkpt>
      <trkpt lat="59.9124779" lon="17.715519">
        <ele>42.4354</ele>
        <time>2014-07-02T10:26:35Z</time>
      </trkpt>
      <trkpt lat="59.9124915" lon="17.7155314">
        <ele>42.916</ele>
        <time>2014-07-02T10:26:36Z</time>
      </trkpt>
      <trkpt lat="59.9125049" lon="17.7155444">
        <ele>42.4354</ele>
        <time>2014-07-02T10:26:37Z</time>
      </trkpt>
      <trkpt lat="59.9125192" lon="17.7155562">
        <ele>42.4354</ele>
        <time>2014-07-02T10:26:38Z</time>
      </trkpt>
      <trkpt lat="59.9125333" lon="17.7155682">
        <ele>42.4354</ele>
        <time>2014-07-02T10:26:39Z</time>
      </trkpt>
      <trkpt lat="59.9125458" lon="17.7155756">
        <ele>41.474</ele>
        <time>2014-07-02T10:26:40Z</time>
      </trkpt>
      <trkpt lat="59.9125655" lon="17.7155717">
        <ele>41.474</ele>
        <time>2014-07-02T10:26:41Z</time>
      </trkpt>
      <trkpt lat="59.9125812" lon="17.7155705">
        <ele>40.9934</ele>
        <time>2014-07-02T10:26:42Z</time>
      </trkpt>
      <trkpt lat="59.9125985" lon="17.7155662">
        <ele>40.9934</ele>
        <time>2014-07-02T10:26:43Z</time>
      </trkpt>
      <trkpt lat="59.9126135" lon="17.7155612">
        <ele>40.5128</ele>
        <time>2014-07-02T10:26:44Z</time>
      </trkpt>
      <trkpt lat="59.9126256" lon="17.7155555">
        <ele>40.0321</ele>
        <time>2014-07-02T10:26:45Z</time>
      </trkpt>
      <trkpt lat="59.9126369" lon="17.7155507">
        <ele>40.0321</ele>
        <time>2014-07-02T10:26:46Z</time>
      </trkpt>
      <trkpt lat="59.9126441" lon="17.7155465">
        <ele>39.5513</ele>
        <time>2014-07-02T10:26:47Z</time>
      </trkpt>
      <trkpt lat="59.9126556" lon="17.7155398">
        <ele>39.5513</ele>
        <time>2014-07-02T10:26:48Z</time>
      </trkpt>
      <trkpt lat="59.9126708" lon="17.7155444">
        <ele>39.5513</ele>
        <time>2014-07-02T10:26:49Z</time>
      </trkpt>
      <trkpt lat="59.9126846" lon="17.7155518">
        <ele>39.0707</ele>
        <time>2014-07-02T10:26:50Z</time>
      </trkpt>
      <trkpt lat="59.9126959" lon="17.7155544">
        <ele>39.0707</ele>
        <time>2014-07-02T10:26:51Z</time>
      </trkpt>
      <trkpt lat="59.9127059" lon="17.7155484">
        <ele>38.5901</ele>
        <time>2014-07-02T10:26:52Z</time>
      </trkpt>
      <trkpt lat="59.9127208" lon="17.7155404">
        <ele>39.5513</ele>
        <time>2014-07-02T10:26:53Z</time>
      </trkpt>
      <trkpt lat="59.9127324" lon="17.7155393">
        <ele>39.5513</ele>
        <time>2014-07-02T10:26:54Z</time>
      </trkpt>
      <trkpt lat="59.9127479" lon="17.7155392">
        <ele>39.5513</ele>
        <time>2014-07-02T10:26:55Z</time>
      </trkpt>
      <trkpt lat="59.9127637" lon="17.7155316">
        <ele>39.0707</ele>
        <time>2014-07-02T10:26:56Z</time>
      </trkpt>
      <trkpt lat="59.9127788" lon="17.7155241">
        <ele>39.0707</ele>
        <time>2014-07-02T10:26:57Z</time>
      </trkpt>
      <trkpt lat="59.912794" lon="17.7155248">
        <ele>39.5513</ele>
        <time>2014-07-02T10:26:58Z</time>
      </trkpt>
      <trkpt lat="59.9128103" lon="17.7155279">
        <ele>40.0321</ele>
        <time>2014-07-02T10:26:59Z</time>
      </trkpt>
      <trkpt lat="59.9128249" lon="17.7155306">
        <ele>40.5128</ele>
        <time>2014-07-02T10:27:00Z</time>
      </trkpt>
      <trkpt lat="59.9128385" lon="17.7155249">
        <ele>40.5128</ele>
        <time>2014-07-02T10:27:01Z</time>
      </trkpt>
      <trkpt lat="59.9128516" lon="17.7155137">
        <ele>40.5128</ele>
        <time>2014-07-02T10:27:02Z</time>
      </trkpt>
      <trkpt lat="59.9128659" lon="17.7155054">
        <ele>40.5128</ele>
        <time>2014-07-02T10:27:03Z</time>
      </trkpt>
      <trkpt lat="59.912881" lon="17.7154927">
        <ele>40.0321</ele>
        <time>2014-07-02T10:27:04Z</time>
      </trkpt>
      <trkpt lat="59.9128959" lon="17.7154739">
        <ele>40.0321</ele>
        <time>2014-07-02T10:27:05Z</time>
      </trkpt>
      <trkpt lat="59.9129064" lon="17.7154626">
        <ele>39.0707</ele>
        <time>2014-07-02T10:27:06Z</time>
      </trkpt>
      <trkpt lat="59.9129136" lon="17.7154513">
        <ele>38.5901</ele>
        <time>2014-07-02T10:27:07Z</time>
      </trkpt>
      <trkpt lat="59.9129209" lon="17.7154443">
        <ele>37.6287</ele>
        <time>2014-07-02T10:27:08Z</time>
      </trkpt>
      <trkpt lat="59.9129348" lon="17.7154321">
        <ele>37.6287</ele>
        <time>2014-07-02T10:27:09Z</time>
      </trkpt>
      <trkpt lat="59.912952" lon="17.715416">
        <ele>38.1094</ele>
        <time>2014-07-02T10:27:10Z</time>
      </trkpt>
      <trkpt lat="59.9129626" lon="17.7154057">
        <ele>37.6287</ele>
        <time>2014-07-02T10:27:11Z</time>
      </trkpt>
      <trkpt lat="59.9129763" lon="17.7153963">
        <ele>37.6287</ele>
        <time>2014-07-02T10:27:12Z</time>
      </trkpt>
      <trkpt lat="59.9129902" lon="17.7153819">
        <ele>37.6287</ele>
        <time>2014-07-02T10:27:13Z</time>
      </trkpt>
      <trkpt lat="59.9130052" lon="17.7153685">
        <ele>38.1094</ele>
        <time>2014-07-02T10:27:14Z</time>
      </trkpt>
      <trkpt lat="59.9130199" lon="17.7153532">
        <ele>38.5901</ele>
        <time>2014-07-02T10:27:15Z</time>
      </trkpt>
      <trkpt lat="59.9130333" lon="17.7153431">
        <ele>39.0707</ele>
        <time>2014-07-02T10:27:16Z</time>
      </trkpt>
      <trkpt lat="59.9130469" lon="17.7153298">
        <ele>39.5513</ele>
        <time>2014-07-02T10:27:17Z</time>
      </trkpt>
      <trkpt lat="59.9130631" lon="17.7153202">
        <ele>40.5128</ele>
        <time>2014-07-02T10:27:18Z</time>
      </trkpt>
      <trkpt lat="59.9130742" lon="17.7153032">
        <ele>40.0321</ele>
        <time>2014-07-02T10:27:19Z</time>
      </trkpt>
      <trkpt lat="59.9130903" lon="17.7152942">
        <ele>40.0321</ele>
        <time>2014-07-02T10:27:20Z</time>
      </trkpt>
      <trkpt lat="59.9131141" lon="17.7152886">
        <ele>41.9547</ele>
        <time>2014-07-02T10:27:21Z</time>
      </trkpt>
      <trkpt lat="59.9131356" lon="17.7152871">
        <ele>43.3966</ele>
        <time>2014-07-02T10:27:22Z</time>
      </trkpt>
      <trkpt lat="59.9131581" lon="17.7152946">
        <ele>45.3192</ele>
        <time>2014-07-02T10:27:23Z</time>
      </trkpt>
      <trkpt lat="59.9131758" lon="17.7153109">
        <ele>46.2806</ele>
        <time>2014-07-02T10:27:24Z</time>
      </trkpt>
      <trkpt lat="59.9131927" lon="17.7153332">
        <ele>47.2418</ele>
        <time>2014-07-02T10:27:25Z</time>
      </trkpt>
      <trkpt lat="59.9132062" lon="17.7153611">
        <ele>47.2418</ele>
        <time>2014-07-02T10:27:26Z</time>
      </trkpt>
      <trkpt lat="59.9132187" lon="17.7153855">
        <ele>48.2034</ele>
        <time>2014-07-02T10:27:27Z</time>
      </trkpt>
      <trkpt lat="59.9132321" lon="17.7154082">
        <ele>48.2034</ele>
        <time>2014-07-02T10:27:28Z</time>
      </trkpt>
      <trkpt lat="59.9132509" lon="17.7154249">
        <ele>49.1646</ele>
        <time>2014-07-02T10:27:29Z</time>
      </trkpt>
      <trkpt lat="59.9132683" lon="17.7154346">
        <ele>49.1646</ele>
        <time>2014-07-02T10:27:30Z</time>
      </trkpt>
      <trkpt lat="59.9132805" lon="17.7154298">
        <ele>49.1646</ele>
        <time>2014-07-02T10:27:31Z</time>
      </trkpt>
      <trkpt lat="59.9132911" lon="17.7154237">
        <ele>49.1646</ele>
        <time>2014-07-02T10:27:32Z</time>
      </trkpt>
      <trkpt lat="59.9133085" lon="17.7154278">
        <ele>49.6453</ele>
        <time>2014-07-02T10:27:33Z</time>
      </trkpt>
      <trkpt lat="59.9133202" lon="17.7154283">
        <ele>49.6453</ele>
        <time>2014-07-02T10:27:34Z</time>
      </trkpt>
      <trkpt lat="59.9133328" lon="17.7154267">
        <ele>49.6453</ele>
        <time>2014-07-02T10:27:35Z</time>
      </trkpt>
      <trkpt lat="59.9133476" lon="17.7154316">
        <ele>49.6453</ele>
        <time>2014-07-02T10:27:36Z</time>
      </trkpt>
      <trkpt lat="59.9133627" lon="17.715435">
        <ele>49.1646</ele>
        <time>2014-07-02T10:27:37Z</time>
      </trkpt>
      <trkpt lat="59.9133772" lon="17.7154305">
        <ele>49.1646</ele>
        <time>2014-07-02T10:27:38Z</time>
      </trkpt>
      <trkpt lat="59.9133893" lon="17.715428">
        <ele>49.1646</ele>
        <time>2014-07-02T10:27:39Z</time>
      </trkpt>
      <trkpt lat="59.913401" lon="17.7154247">
        <ele>48.2034</ele>
        <time>2014-07-02T10:27:40Z</time>
      </trkpt>
      <trkpt lat="59.913414" lon="17.7154196">
        <ele>48.684</ele>
        <time>2014-07-02T10:27:41Z</time>
      </trkpt>
      <trkpt lat="59.9134259" lon="17.7154233">
        <ele>48.684</ele>
        <time>2014-07-02T10:27:42Z</time>
      </trkpt>
      <trkpt lat="59.9134402" lon="17.7154295">
        <ele>48.684</ele>
        <time>2014-07-02T10:27:43Z</time>
      </trkpt>
      <trkpt lat="59.9134503" lon="17.7154368">
        <ele>48.2034</ele>
        <time>2014-07-02T10:27:44Z</time>
      </trkpt>
      <trkpt lat="59.9134606" lon="17.7154409">
        <ele>47.7225</ele>
        <time>2014-07-02T10:27:45Z</time>
      </trkpt>
      <trkpt lat="59.9134735" lon="17.7154467">
        <ele>47.2418</ele>
        <time>2014-07-02T10:27:46Z</time>
      </trkpt>
      <trkpt lat="59.9134877" lon="17.7154503">
        <ele>46.7612</ele>
        <time>2014-07-02T10:27:47Z</time>
      </trkpt>
      <trkpt lat="59.9134993" lon="17.7154565">
        <ele>46.2806</ele>
        <time>2014-07-02T10:27:48Z</time>
      </trkpt>
      <trkpt lat="59.9135109" lon="17.7154656">
        <ele>45.7999</ele>
        <time>2014-07-02T10:27:49Z</time>
      </trkpt>
      <trkpt lat="59.9135252" lon="17.7154744">
        <ele>44.8386</ele>
        <time>2014-07-02T10:27:50Z</time>
      </trkpt>
      <trkpt lat="59.9135364" lon="17.7154829">
        <ele>43.8773</ele>
        <time>2014-07-02T10:27:51Z</time>
      </trkpt>
      <trkpt lat="59.9135467" lon="17.7154897">
        <ele>42.4354</ele>
        <time>2014-07-02T10:27:52Z</time>
      </trkpt>
      <trkpt lat="59.9135591" lon="17.7154921">
        <ele>41.9547</ele>
        <time>2014-07-02T10:27:53Z</time>
      </trkpt>
      <trkpt lat="59.9135725" lon="17.7154916">
        <ele>41.474</ele>
        <time>2014-07-02T10:27:54Z</time>
      </trkpt>
      <trkpt lat="59.9135853" lon="17.7154956">
        <ele>41.474</ele>
        <time>2014-07-02T10:27:55Z</time>
      </trkpt>
      <trkpt lat="59.9135983" lon="17.715502">
        <ele>40.9934</ele>
        <time>2014-07-02T10:27:56Z</time>
      </trkpt>
      <trkpt lat="59.9136127" lon="17.715505">
        <ele>40.0321</ele>
        <time>2014-07-02T10:27:57Z</time>
      </trkpt>
      <trkpt lat="59.9136281" lon="17.7155062">
        <ele>39.5513</ele>
        <time>2014-07-02T10:27:58Z</time>
      </trkpt>
      <trkpt lat="59.9136426" lon="17.7155134">
        <ele>39.0707</ele>
        <time>2014-07-02T10:27:59Z</time>
      </trkpt>
      <trkpt lat="59.9136558" lon="17.7155242">
        <ele>39.0707</ele>
        <time>2014-07-02T10:28:00Z</time>
      </trkpt>
      <trkpt lat="59.9136703" lon="17.7155357">
        <ele>39.0707</ele>
        <time>2014-07-02T10:28:01Z</time>
      </trkpt>
      <trkpt lat="59.9136853" lon="17.715545">
        <ele>39.0707</ele>
        <time>2014-07-02T10:28:02Z</time>
      </trkpt>
      <trkpt lat="59.9136999" lon="17.7155512">
        <ele>38.5901</ele>
        <time>2014-07-02T10:28:03Z</time>
      </trkpt>
      <trkpt lat="59.9137138" lon="17.7155563">
        <ele>38.5901</ele>
        <time>2014-07-02T10:28:04Z</time>
      </trkpt>
      <trkpt lat="59.913731" lon="17.7155635">
        <ele>39.0707</ele>
        <time>2014-07-02T10:28:05Z</time>
      </trkpt>
      <trkpt lat="59.9137441" lon="17.7155708">
        <ele>39.0707</ele>
        <time>2014-07-02T10:28:06Z</time>
      </trkpt>
      <trkpt lat="59.9137555" lon="17.7155808">
        <ele>39.0707</ele>
        <time>2014-07-02T10:28:07Z</time>
      </trkpt>
      <trkpt lat="59.9137694" lon="17.7155875">
        <ele>39.0707</ele>
        <time>2014-07-02T10:28:08Z</time>
      </trkpt>
      <trkpt lat="59.9137826" lon="17.7155911">
        <ele>39.5513</ele>
        <time>2014-07-02T10:28:09Z</time>
      </trkpt>
      <trkpt lat="59.9137952" lon="17.7155943">
        <ele>40.0321</ele>
        <time>2014-07-02T10:28:10Z</time>
      </trkpt>
      <trkpt lat="59.9138076" lon="17.7156041">
        <ele>40.0321</ele>
        <time>2014-07-02T10:28:11Z</time>
      </trkpt>
      <trkpt lat="59.9138168" lon="17.7156184">
        <ele>39.5513</ele>
        <time>2014-07-02T10:28:12Z</time>
      </trkpt>
      <trkpt lat="59.9138259" lon="17.7156315">
        <ele>39.0707</ele>
        <time>2014-07-02T10:28:13Z</time>
      </trkpt>
      <trkpt lat="59.9138381" lon="17.7156434">
        <ele>39.0707</ele>
        <time>2014-07-02T10:28:14Z</time>
      </trkpt>
      <trkpt lat="59.913849" lon="17.7156541">
        <ele>39.0707</ele>
        <time>2014-07-02T10:28:15Z</time>
      </trkpt>
      <trkpt lat="59.91386" lon="17.7156603">
        <ele>38.5901</ele>
        <time>2014-07-02T10:28:16Z</time>
      </trkpt>
      <trkpt lat="59.9138759" lon="17.7156615">
        <ele>39.0707</ele>
        <time>2014-07-02T10:28:17Z</time>
      </trkpt>
      <trkpt lat="59.9138901" lon="17.71566">
        <ele>39.0707</ele>
        <time>2014-07-02T10:28:18Z</time>
      </trkpt>
      <trkpt lat="59.9139037" lon="17.7156595">
        <ele>39.0707</ele>
        <time>2014-07-02T10:28:19Z</time>
      </trkpt>
      <trkpt lat="59.9139137" lon="17.7156626">
        <ele>39.0707</ele>
        <time>2014-07-02T10:28:20Z</time>
      </trkpt>
      <trkpt lat="59.9139263" lon="17.7156631">
        <ele>40.0321</ele>
        <time>2014-07-02T10:28:21Z</time>
      </trkpt>
      <trkpt lat="59.9139398" lon="17.7156666">
        <ele>40.0321</ele>
        <time>2014-07-02T10:28:22Z</time>
      </trkpt>
      <trkpt lat="59.9139548" lon="17.7156688">
        <ele>40.9934</ele>
        <time>2014-07-02T10:28:23Z</time>
      </trkpt>
      <trkpt lat="59.9139677" lon="17.7156728">
        <ele>41.474</ele>
        <time>2014-07-02T10:28:24Z</time>
      </trkpt>
      <trkpt lat="59.9139818" lon="17.7156743">
        <ele>41.474</ele>
        <time>2014-07-02T10:28:25Z</time>
      </trkpt>
      <trkpt lat="59.9139983" lon="17.7156724">
        <ele>41.9547</ele>
        <time>2014-07-02T10:28:26Z</time>
      </trkpt>
      <trkpt lat="59.9140181" lon="17.7156673">
        <ele>43.3966</ele>
        <time>2014-07-02T10:28:27Z</time>
      </trkpt>
      <trkpt lat="59.9140309" lon="17.7156679">
        <ele>43.3966</ele>
        <time>2014-07-02T10:28:28Z</time>
      </trkpt>
      <trkpt lat="59.9140449" lon="17.7156689">
        <ele>43.3966</ele>
        <time>2014-07-02T10:28:29Z</time>
      </trkpt>
      <trkpt lat="59.9140588" lon="17.7156671">
        <ele>43.3966</ele>
        <time>2014-07-02T10:28:30Z</time>
      </trkpt>
      <trkpt lat="59.9140741" lon="17.715666">
        <ele>43.3966</ele>
        <time>2014-07-02T10:28:31Z</time>
      </trkpt>
      <trkpt lat="59.9140878" lon="17.7156686">
        <ele>42.916</ele>
        <time>2014-07-02T10:28:32Z</time>
      </trkpt>
      <trkpt lat="59.9141009" lon="17.71567">
        <ele>42.916</ele>
        <time>2014-07-02T10:28:33Z</time>
      </trkpt>
      <trkpt lat="59.9141107" lon="17.7156688">
        <ele>42.916</ele>
        <time>2014-07-02T10:28:34Z</time>
      </trkpt>
      <trkpt lat="59.9141197" lon="17.7156668">
        <ele>42.916</ele>
        <time>2014-07-02T10:28:35Z</time>
      </trkpt>
      <trkpt lat="59.9141273" lon="17.715663">
        <ele>42.916</ele>
        <time>2014-07-02T10:28:36Z</time>
      </trkpt>
      <trkpt lat="59.914136" lon="17.7156609">
        <ele>42.916</ele>
        <time>2014-07-02T10:28:37Z</time>
      </trkpt>
      <trkpt lat="59.9141487" lon="17.7156612">
        <ele>42.916</ele>
        <time>2014-07-02T10:28:38Z</time>
      </trkpt>
      <trkpt lat="59.9141598" lon="17.715663">
        <ele>42.916</ele>
        <time>2014-07-02T10:28:39Z</time>
      </trkpt>
      <trkpt lat="59.9141724" lon="17.7156666">
        <ele>42.4354</ele>
        <time>2014-07-02T10:28:40Z</time>
      </trkpt>
      <trkpt lat="59.9141854" lon="17.7156674">
        <ele>42.4354</ele>
        <time>2014-07-02T10:28:41Z</time>
      </trkpt>
      <trkpt lat="59.9141982" lon="17.7156678">
        <ele>42.4354</ele>
        <time>2014-07-02T10:28:42Z</time>
      </trkpt>
      <trkpt lat="59.9142106" lon="17.7156671">
        <ele>42.916</ele>
        <time>2014-07-02T10:28:43Z</time>
      </trkpt>
      <trkpt lat="59.9142241" lon="17.7156674">
        <ele>42.916</ele>
        <time>2014-07-02T10:28:44Z</time>
      </trkpt>
      <trkpt lat="59.9142392" lon="17.7156686">
        <ele>42.916</ele>
        <time>2014-07-02T10:28:45Z</time>
      </trkpt>
      <trkpt lat="59.9142521" lon="17.7156697">
        <ele>43.3966</ele>
        <time>2014-07-02T10:28:46Z</time>
      </trkpt>
      <trkpt lat="59.9142655" lon="17.7156683">
        <ele>44.8386</ele>
        <time>2014-07-02T10:28:47Z</time>
      </trkpt>
      <trkpt lat="59.914281" lon="17.7156656">
        <ele>45.3192</ele>
        <time>2014-07-02T10:28:48Z</time>
      </trkpt>
      <trkpt lat="59.9143007" lon="17.7156617">
        <ele>46.7612</ele>
        <time>2014-07-02T10:28:49Z</time>
      </trkpt>
      <trkpt lat="59.9143132" lon="17.7156584">
        <ele>46.7612</ele>
        <time>2014-07-02T10:28:50Z</time>
      </trkpt>
      <trkpt lat="59.9143268" lon="17.7156586">
        <ele>47.7225</ele>
        <time>2014-07-02T10:28:51Z</time>
      </trkpt>
      <trkpt lat="59.9143379" lon="17.7156522">
        <ele>47.7225</ele>
        <time>2014-07-02T10:28:52Z</time>
      </trkpt>
      <trkpt lat="59.914352" lon="17.7156352">
        <ele>48.684</ele>
        <time>2014-07-02T10:28:53Z</time>
      </trkpt>
      <trkpt lat="59.914364" lon="17.7156212">
        <ele>48.2034</ele>
        <time>2014-07-02T10:28:54Z</time>
      </trkpt>
      <trkpt lat="59.9143784" lon="17.7156042">
        <ele>48.684</ele>
        <time>2014-07-02T10:28:55Z</time>
      </trkpt>
      <trkpt lat="59.9143932" lon="17.7155883">
        <ele>48.684</ele>
        <time>2014-07-02T10:28:56Z</time>
      </trkpt>
      <trkpt lat="59.9144039" lon="17.7155724">
        <ele>48.2034</ele>
        <time>2014-07-02T10:28:57Z</time>
      </trkpt>
      <trkpt lat="59.9144167" lon="17.7155584">
        <ele>48.2034</ele>
        <time>2014-07-02T10:28:58Z</time>
      </trkpt>
      <trkpt lat="59.914425" lon="17.7155409">
        <ele>47.7225</ele>
        <time>2014-07-02T10:28:59Z</time>
      </trkpt>
      <trkpt lat="59.914433" lon="17.715527">
        <ele>47.7225</ele>
        <time>2014-07-02T10:29:00Z</time>
      </trkpt>
      <trkpt lat="59.91444" lon="17.7155135">
        <ele>47.2418</ele>
        <time>2014-07-02T10:29:01Z</time>
      </trkpt>
      <trkpt lat="59.9144573" lon="17.7155051">
        <ele>47.7225</ele>
        <time>2014-07-02T10:29:02Z</time>
      </trkpt>
      <trkpt lat="59.9144676" lon="17.7154984">
        <ele>47.2418</ele>
        <time>2014-07-02T10:29:03Z</time>
      </trkpt>
      <trkpt lat="59.9144757" lon="17.7154798">
        <ele>47.2418</ele>
        <time>2014-07-02T10:29:04Z</time>
      </trkpt>
      <trkpt lat="59.9144838" lon="17.7154617">
        <ele>46.7612</ele>
        <time>2014-07-02T10:29:05Z</time>
      </trkpt>
      <trkpt lat="59.9144913" lon="17.715443">
        <ele>46.2806</ele>
        <time>2014-07-02T10:29:06Z</time>
      </trkpt>
      <trkpt lat="59.914502" lon="17.7154301">
        <ele>47.2418</ele>
        <time>2014-07-02T10:29:07Z</time>
      </trkpt>
      <trkpt lat="59.9145122" lon="17.7154175">
        <ele>47.7225</ele>
        <time>2014-07-02T10:29:08Z</time>
      </trkpt>
      <trkpt lat="59.9145235" lon="17.7154047">
        <ele>47.7225</ele>
        <time>2014-07-02T10:29:09Z</time>
      </trkpt>
      <trkpt lat="59.9145402" lon="17.7153923">
        <ele>48.2034</ele>
        <time>2014-07-02T10:29:10Z</time>
      </trkpt>
      <trkpt lat="59.9145555" lon="17.7153804">
        <ele>48.2034</ele>
        <time>2014-07-02T10:29:11Z</time>
      </trkpt>
      <trkpt lat="59.9145669" lon="17.7153709">
        <ele>47.7225</ele>
        <time>2014-07-02T10:29:12Z</time>
      </trkpt>
      <trkpt lat="59.914582" lon="17.7153592">
        <ele>48.684</ele>
        <time>2014-07-02T10:29:13Z</time>
      </trkpt>
      <trkpt lat="59.9145951" lon="17.7153527">
        <ele>48.684</ele>
        <time>2014-07-02T10:29:14Z</time>
      </trkpt>
      <trkpt lat="59.9146087" lon="17.715347">
        <ele>49.6453</ele>
        <time>2014-07-02T10:29:15Z</time>
      </trkpt>
      <trkpt lat="59.914622" lon="17.7153436">
        <ele>50.126</ele>
        <time>2014-07-02T10:29:16Z</time>
      </trkpt>
      <trkpt lat="59.9146376" lon="17.7153434">
        <ele>50.6066</ele>
        <time>2014-07-02T10:29:17Z</time>
      </trkpt>
      <trkpt lat="59.9146568" lon="17.715361">
        <ele>52.0486</ele>
        <time>2014-07-02T10:29:18Z</time>
      </trkpt>
      <trkpt lat="59.9146719" lon="17.7153698">
        <ele>52.0486</ele>
        <time>2014-07-02T10:29:19Z</time>
      </trkpt>
      <trkpt lat="59.9146893" lon="17.7153628">
        <ele>53.4905</ele>
        <time>2014-07-02T10:29:20Z</time>
      </trkpt>
      <trkpt lat="59.9147029" lon="17.7153503">
        <ele>53.9712</ele>
        <time>2014-07-02T10:29:21Z</time>
      </trkpt>
      <trkpt lat="59.9147241" lon="17.7153544">
        <ele>55.8938</ele>
        <time>2014-07-02T10:29:22Z</time>
      </trkpt>
      <trkpt lat="59.9147386" lon="17.7153688">
        <ele>56.8551</ele>
        <time>2014-07-02T10:29:23Z</time>
      </trkpt>
      <trkpt lat="59.9147495" lon="17.7153792">
        <ele>57.3358</ele>
        <time>2014-07-02T10:29:24Z</time>
      </trkpt>
      <trkpt lat="59.9147648" lon="17.7153793">
        <ele>58.2971</ele>
        <time>2014-07-02T10:29:25Z</time>
      </trkpt>
      <trkpt lat="59.9147821" lon="17.7153745">
        <ele>58.2971</ele>
        <time>2014-07-02T10:29:26Z</time>
      </trkpt>
      <trkpt lat="59.9148043" lon="17.7153591">
        <ele>58.7777</ele>
        <time>2014-07-02T10:29:27Z</time>
      </trkpt>
      <trkpt lat="59.914822" lon="17.715345">
        <ele>59.7391</ele>
        <time>2014-07-02T10:29:28Z</time>
      </trkpt>
      <trkpt lat="59.9148323" lon="17.715333">
        <ele>60.7003</ele>
        <time>2014-07-02T10:29:29Z</time>
      </trkpt>
      <trkpt lat="59.9148451" lon="17.715313">
        <ele>60.7003</ele>
        <time>2014-07-02T10:29:30Z</time>
      </trkpt>
      <trkpt lat="59.9148606" lon="17.7152896">
        <ele>60.7003</ele>
        <time>2014-07-02T10:29:31Z</time>
      </trkpt>
      <trkpt lat="59.9148737" lon="17.71527">
        <ele>61.6617</ele>
        <time>2014-07-02T10:29:32Z</time>
      </trkpt>
      <trkpt lat="59.9148862" lon="17.715243">
        <ele>62.1423</ele>
        <time>2014-07-02T10:29:33Z</time>
      </trkpt>
      <trkpt lat="59.9148967" lon="17.7152176">
        <ele>62.6229</ele>
        <time>2014-07-02T10:29:34Z</time>
      </trkpt>
      <trkpt lat="59.9149069" lon="17.7151979">
        <ele>62.6229</ele>
        <time>2014-07-02T10:29:35Z</time>
      </trkpt>
      <trkpt lat="59.9149202" lon="17.7151799">
        <ele>62.1423</ele>
        <time>2014-07-02T10:29:36Z</time>
      </trkpt>
      <trkpt lat="59.9149308" lon="17.7151604">
        <ele>61.181</ele>
        <time>2014-07-02T10:29:37Z</time>
      </trkpt>
      <trkpt lat="59.9149443" lon="17.7151483">
        <ele>60.7003</ele>
        <time>2014-07-02T10:29:38Z</time>
      </trkpt>
      <trkpt lat="59.9149528" lon="17.7151463">
        <ele>60.2197</ele>
        <time>2014-07-02T10:29:39Z</time>
      </trkpt>
      <trkpt lat="59.9149638" lon="17.7151507">
        <ele>59.7391</ele>
        <time>2014-07-02T10:29:40Z</time>
      </trkpt>
      <trkpt lat="59.9149767" lon="17.7151501">
        <ele>59.2584</ele>
        <time>2014-07-02T10:29:41Z</time>
      </trkpt>
      <trkpt lat="59.9149912" lon="17.7151504">
        <ele>59.2584</ele>
        <time>2014-07-02T10:29:42Z</time>
      </trkpt>
      <trkpt lat="59.9150074" lon="17.7151548">
        <ele>59.7391</ele>
        <time>2014-07-02T10:29:43Z</time>
      </trkpt>
      <trkpt lat="59.9150183" lon="17.7151528">
        <ele>58.7777</ele>
        <time>2014-07-02T10:29:44Z</time>
      </trkpt>
      <trkpt lat="59.9150283" lon="17.715146">
        <ele>58.2971</ele>
        <time>2014-07-02T10:29:45Z</time>
      </trkpt>
      <trkpt lat="59.9150459" lon="17.7151411">
        <ele>59.2584</ele>
        <time>2014-07-02T10:29:46Z</time>
      </trkpt>
      <trkpt lat="59.9150644" lon="17.7151413">
        <ele>59.7391</ele>
        <time>2014-07-02T10:29:47Z</time>
      </trkpt>
      <trkpt lat="59.9150753" lon="17.715144">
        <ele>59.2584</ele>
        <time>2014-07-02T10:29:48Z</time>
      </trkpt>
      <trkpt lat="59.9150867" lon="17.7151473">
        <ele>58.7777</ele>
        <time>2014-07-02T10:29:49Z</time>
      </trkpt>
      <trkpt lat="59.9150991" lon="17.7151468">
        <ele>57.8165</ele>
        <time>2014-07-02T10:29:50Z</time>
      </trkpt>
      <trkpt lat="59.9151113" lon="17.7151431">
        <ele>56.3745</ele>
        <time>2014-07-02T10:29:51Z</time>
      </trkpt>
      <trkpt lat="59.9151227" lon="17.7151399">
        <ele>54.9324</ele>
        <time>2014-07-02T10:29:52Z</time>
      </trkpt>
      <trkpt lat="59.9151383" lon="17.7151432">
        <ele>54.9324</ele>
        <time>2014-07-02T10:29:53Z</time>
      </trkpt>
      <trkpt lat="59.9151525" lon="17.7151468">
        <ele>53.9712</ele>
        <time>2014-07-02T10:29:54Z</time>
      </trkpt>
      <trkpt lat="59.9151633" lon="17.7151441">
        <ele>53.0098</ele>
        <time>2014-07-02T10:29:55Z</time>
      </trkpt>
      <trkpt lat="59.9151748" lon="17.7151379">
        <ele>52.5292</ele>
        <time>2014-07-02T10:29:56Z</time>
      </trkpt>
      <trkpt lat="59.9151872" lon="17.715127">
        <ele>51.0872</ele>
        <time>2014-07-02T10:29:57Z</time>
      </trkpt>
      <trkpt lat="59.9152042" lon="17.7151183">
        <ele>50.6066</ele>
        <time>2014-07-02T10:29:58Z</time>
      </trkpt>
      <trkpt lat="59.9152235" lon="17.715109">
        <ele>50.6066</ele>
        <time>2014-07-02T10:29:59Z</time>
      </trkpt>
      <trkpt lat="59.915238" lon="17.7150934">
        <ele>50.6066</ele>
        <time>2014-07-02T10:30:00Z</time>
      </trkpt>
      <trkpt lat="59.9152504" lon="17.7150682">
        <ele>51.0872</ele>
        <time>2014-07-02T10:30:01Z</time>
      </trkpt>
      <trkpt lat="59.9152624" lon="17.7150396">
        <ele>52.0486</ele>
        <time>2014-07-02T10:30:02Z</time>
      </trkpt>
      <trkpt lat="59.9152728" lon="17.7150146">
        <ele>52.5292</ele>
        <time>2014-07-02T10:30:03Z</time>
      </trkpt>
      <trkpt lat="59.9152815" lon="17.7149913">
        <ele>51.5679</ele>
        <time>2014-07-02T10:30:04Z</time>
      </trkpt>
      <trkpt lat="59.9152914" lon="17.7149659">
        <ele>51.5679</ele>
        <time>2014-07-02T10:30:05Z</time>
      </trkpt>
      <trkpt lat="59.9152981" lon="17.7149391">
        <ele>51.0872</ele>
        <time>2014-07-02T10:30:06Z</time>
      </trkpt>
      <trkpt lat="59.915303" lon="17.7149113">
        <ele>50.6066</ele>
        <time>2014-07-02T10:30:07Z</time>
      </trkpt>
      <trkpt lat="59.9153068" lon="17.7148851">
        <ele>50.126</ele>
        <time>2014-07-02T10:30:08Z</time>
      </trkpt>
      <trkpt lat="59.9153137" lon="17.7148555">
        <ele>50.126</ele>
        <time>2014-07-02T10:30:09Z</time>
      </trkpt>
      <trkpt lat="59.9153213" lon="17.7148255">
        <ele>50.6066</ele>
        <time>2014-07-02T10:30:10Z</time>
      </trkpt>
      <trkpt lat="59.9153276" lon="17.714798">
        <ele>50.6066</ele>
        <time>2014-07-02T10:30:11Z</time>
      </trkpt>
      <trkpt lat="59.9153322" lon="17.7147702">
        <ele>51.5679</ele>
        <time>2014-07-02T10:30:12Z</time>
      </trkpt>
      <trkpt lat="59.9153341" lon="17.7147406">
        <ele>51.5679</ele>
        <time>2014-07-02T10:30:13Z</time>
      </trkpt>
      <trkpt lat="59.9153395" lon="17.7147079">
        <ele>52.0486</ele>
        <time>2014-07-02T10:30:14Z</time>
      </trkpt>
      <trkpt lat="59.9153414" lon="17.7146774">
        <ele>51.5679</ele>
        <time>2014-07-02T10:30:15Z</time>
      </trkpt>
      <trkpt lat="59.9153436" lon="17.7146482">
        <ele>51.0872</ele>
        <time>2014-07-02T10:30:16Z</time>
      </trkpt>
      <trkpt lat="59.9153476" lon="17.7146198">
        <ele>51.5679</ele>
        <time>2014-07-02T10:30:17Z</time>
      </trkpt>
      <trkpt lat="59.9153566" lon="17.714595">
        <ele>52.5292</ele>
        <time>2014-07-02T10:30:18Z</time>
      </trkpt>
      <trkpt lat="59.915358" lon="17.7145687">
        <ele>53.0098</ele>
        <time>2014-07-02T10:30:19Z</time>
      </trkpt>
      <trkpt lat="59.9153581" lon="17.7145401">
        <ele>52.5292</ele>
        <time>2014-07-02T10:30:20Z</time>
      </trkpt>
      <trkpt lat="59.9153592" lon="17.7145054">
        <ele>51.5679</ele>
        <time>2014-07-02T10:30:21Z</time>
      </trkpt>
      <trkpt lat="59.9153644" lon="17.7144805">
        <ele>51.0872</ele>
        <time>2014-07-02T10:30:22Z</time>
      </trkpt>
      <trkpt lat="59.9153734" lon="17.7144608">
        <ele>51.5679</ele>
        <time>2014-07-02T10:30:23Z</time>
      </trkpt>
      <trkpt lat="59.9153804" lon="17.7144308">
        <ele>52.5292</ele>
        <time>2014-07-02T10:30:24Z</time>
      </trkpt>
      <trkpt lat="59.9153818" lon="17.7143956">
        <ele>53.0098</ele>
        <time>2014-07-02T10:30:25Z</time>
      </trkpt>
      <trkpt lat="59.91539" lon="17.7143681">
        <ele>54.9324</ele>
        <time>2014-07-02T10:30:26Z</time>
      </trkpt>
      <trkpt lat="59.9153939" lon="17.7143395">
        <ele>55.8938</ele>
        <time>2014-07-02T10:30:27Z</time>
      </trkpt>
      <trkpt lat="59.9154023" lon="17.7143111">
        <ele>55.8938</ele>
        <time>2014-07-02T10:30:28Z</time>
      </trkpt>
      <trkpt lat="59.9154115" lon="17.714283">
        <ele>56.3745</ele>
        <time>2014-07-02T10:30:29Z</time>
      </trkpt>
      <trkpt lat="59.9154167" lon="17.7142558">
        <ele>56.3745</ele>
        <time>2014-07-02T10:30:30Z</time>
      </trkpt>
      <trkpt lat="59.9154219" lon="17.7142303">
        <ele>56.3745</ele>
        <time>2014-07-02T10:30:31Z</time>
      </trkpt>
      <trkpt lat="59.9154255" lon="17.7142039">
        <ele>56.3745</ele>
        <time>2014-07-02T10:30:32Z</time>
      </trkpt>
      <trkpt lat="59.9154328" lon="17.7141768">
        <ele>56.3745</ele>
        <time>2014-07-02T10:30:33Z</time>
      </trkpt>
      <trkpt lat="59.9154358" lon="17.714151">
        <ele>56.8551</ele>
        <time>2014-07-02T10:30:34Z</time>
      </trkpt>
      <trkpt lat="59.9154354" lon="17.7141267">
        <ele>57.3358</ele>
        <time>2014-07-02T10:30:35Z</time>
      </trkpt>
      <trkpt lat="59.9154377" lon="17.7141013">
        <ele>58.2971</ele>
        <time>2014-07-02T10:30:36Z</time>
      </trkpt>
      <trkpt lat="59.9154455" lon="17.7140745">
        <ele>58.2971</ele>
        <time>2014-07-02T10:30:37Z</time>
      </trkpt>
      <trkpt lat="59.9154446" lon="17.7140345">
        <ele>56.3745</ele>
        <time>2014-07-02T10:30:38Z</time>
      </trkpt>
      <trkpt lat="59.9154451" lon="17.7140051">
        <ele>55.8938</ele>
        <time>2014-07-02T10:30:39Z</time>
      </trkpt>
      <trkpt lat="59.9154462" lon="17.7139749">
        <ele>56.3745</ele>
        <time>2014-07-02T10:30:40Z</time>
      </trkpt>
      <trkpt lat="59.9154419" lon="17.7139406">
        <ele>54.9324</ele>
        <time>2014-07-02T10:30:41Z</time>
      </trkpt>
      <trkpt lat="59.9154416" lon="17.7139106">
        <ele>54.4518</ele>
        <time>2014-07-02T10:30:42Z</time>
      </trkpt>
      <trkpt lat="59.915441" lon="17.7138843">
        <ele>53.9712</ele>
        <time>2014-07-02T10:30:43Z</time>
      </trkpt>
      <trkpt lat="59.9154364" lon="17.7138501">
        <ele>53.4905</ele>
        <time>2014-07-02T10:30:44Z</time>
      </trkpt>
      <trkpt lat="59.9154297" lon="17.7138115">
        <ele>53.4905</ele>
        <time>2014-07-02T10:30:45Z</time>
      </trkpt>
      <trkpt lat="59.9154202" lon="17.7137744">
        <ele>52.0486</ele>
        <time>2014-07-02T10:30:46Z</time>
      </trkpt>
      <trkpt lat="59.9154188" lon="17.7137437">
        <ele>50.6066</ele>
        <time>2014-07-02T10:30:47Z</time>
      </trkpt>
      <trkpt lat="59.9154196" lon="17.7137131">
        <ele>50.126</ele>
        <time>2014-07-02T10:30:48Z</time>
      </trkpt>
      <trkpt lat="59.9154223" lon="17.7136864">
        <ele>50.126</ele>
        <time>2014-07-02T10:30:49Z</time>
      </trkpt>
      <trkpt lat="59.9154213" lon="17.7136553">
        <ele>48.2034</ele>
        <time>2014-07-02T10:30:50Z</time>
      </trkpt>
      <trkpt lat="59.9154249" lon="17.7136258">
        <ele>46.7612</ele>
        <time>2014-07-02T10:30:51Z</time>
      </trkpt>
      <trkpt lat="59.9154349" lon="17.7136045">
        <ele>46.2806</ele>
        <time>2014-07-02T10:30:52Z</time>
      </trkpt>
      <trkpt lat="59.9154451" lon="17.7135841">
        <ele>45.7999</ele>
        <time>2014-07-02T10:30:53Z</time>
      </trkpt>
      <trkpt lat="59.9154598" lon="17.7135665">
        <ele>46.7612</ele>
        <time>2014-07-02T10:30:54Z</time>
      </trkpt>
      <trkpt lat="59.9154726" lon="17.7135471">
        <ele>46.7612</ele>
        <time>2014-07-02T10:30:55Z</time>
      </trkpt>
      <trkpt lat="59.9154845" lon="17.7135259">
        <ele>47.2418</ele>
        <time>2014-07-02T10:30:56Z</time>
      </trkpt>
      <trkpt lat="59.9154917" lon="17.7134963">
        <ele>46.7612</ele>
        <time>2014-07-02T10:30:57Z</time>
      </trkpt>
      <trkpt lat="59.9155026" lon="17.7134735">
        <ele>47.2418</ele>
        <time>2014-07-02T10:30:58Z</time>
      </trkpt>
      <trkpt lat="59.9155146" lon="17.7134531">
        <ele>47.7225</ele>
        <time>2014-07-02T10:30:59Z</time>
      </trkpt>
      <trkpt lat="59.9155273" lon="17.7134295">
        <ele>48.2034</ele>
        <time>2014-07-02T10:31:00Z</time>
      </trkpt>
      <trkpt lat="59.9155341" lon="17.7134041">
        <ele>47.7225</ele>
        <time>2014-07-02T10:31:01Z</time>
      </trkpt>
      <trkpt lat="59.9155406" lon="17.7133782">
        <ele>47.7225</ele>
        <time>2014-07-02T10:31:02Z</time>
      </trkpt>
      <trkpt lat="59.9155498" lon="17.7133538">
        <ele>48.2034</ele>
        <time>2014-07-02T10:31:03Z</time>
      </trkpt>
      <trkpt lat="59.9155606" lon="17.7133342">
        <ele>49.1646</ele>
        <time>2014-07-02T10:31:04Z</time>
      </trkpt>
      <trkpt lat="59.9155784" lon="17.7133182">
        <ele>50.6066</ele>
        <time>2014-07-02T10:31:05Z</time>
      </trkpt>
      <trkpt lat="59.9155902" lon="17.7132985">
        <ele>51.5679</ele>
        <time>2014-07-02T10:31:06Z</time>
      </trkpt>
      <trkpt lat="59.9156025" lon="17.7132809">
        <ele>52.0486</ele>
        <time>2014-07-02T10:31:07Z</time>
      </trkpt>
      <trkpt lat="59.9156176" lon="17.7132636">
        <ele>53.0098</ele>
        <time>2014-07-02T10:31:08Z</time>
      </trkpt>
      <trkpt lat="59.9156343" lon="17.7132424">
        <ele>53.4905</ele>
        <time>2014-07-02T10:31:09Z</time>
      </trkpt>
      <trkpt lat="59.9156511" lon="17.7132213">
        <ele>54.4518</ele>
        <time>2014-07-02T10:31:10Z</time>
      </trkpt>
      <trkpt lat="59.9156514" lon="17.7131875">
        <ele>52.0486</ele>
        <time>2014-07-02T10:31:11Z</time>
      </trkpt>
      <trkpt lat="59.9156518" lon="17.7131621">
        <ele>50.6066</ele>
        <time>2014-07-02T10:31:12Z</time>
      </trkpt>
      <trkpt lat="59.9156507" lon="17.7131433">
        <ele>49.1646</ele>
        <time>2014-07-02T10:31:13Z</time>
      </trkpt>
      <trkpt lat="59.9156627" lon="17.7131321">
        <ele>49.1646</ele>
        <time>2014-07-02T10:31:14Z</time>
      </trkpt>
      <trkpt lat="59.9156633" lon="17.713101">
        <ele>46.7612</ele>
        <time>2014-07-02T10:31:15Z</time>
      </trkpt>
      <trkpt lat="59.9156668" lon="17.7130719">
        <ele>45.3192</ele>
        <time>2014-07-02T10:31:16Z</time>
      </trkpt>
      <trkpt lat="59.9156648" lon="17.7130415">
        <ele>42.4354</ele>
        <time>2014-07-02T10:31:17Z</time>
      </trkpt>
      <trkpt lat="59.9156745" lon="17.7130223">
        <ele>41.474</ele>
        <time>2014-07-02T10:31:18Z</time>
      </trkpt>
      <trkpt lat="59.9156853" lon="17.7130066">
        <ele>41.474</ele>
        <time>2014-07-02T10:31:19Z</time>
      </trkpt>
      <trkpt lat="59.9157026" lon="17.7130019">
        <ele>41.9547</ele>
        <time>2014-07-02T10:31:20Z</time>
      </trkpt>
      <trkpt lat="59.9157141" lon="17.7129998">
        <ele>41.9547</ele>
        <time>2014-07-02T10:31:21Z</time>
      </trkpt>
      <trkpt lat="59.9157269" lon="17.7130003">
        <ele>41.9547</ele>
        <time>2014-07-02T10:31:22Z</time>
      </trkpt>
      <trkpt lat="59.9157511" lon="17.7129946">
        <ele>43.8773</ele>
        <time>2014-07-02T10:31:23Z</time>
      </trkpt>
      <trkpt lat="59.9157642" lon="17.7129907">
        <ele>44.8386</ele>
        <time>2014-07-02T10:31:24Z</time>
      </trkpt>
      <trkpt lat="59.9157773" lon="17.7129843">
        <ele>45.3192</ele>
        <time>2014-07-02T10:31:25Z</time>
      </trkpt>
      <trkpt lat="59.9157908" lon="17.7129799">
        <ele>45.3192</ele>
        <time>2014-07-02T10:31:26Z</time>
      </trkpt>
      <trkpt lat="59.9158046" lon="17.7129778">
        <ele>45.3192</ele>
        <time>2014-07-02T10:31:27Z</time>
      </trkpt>
      <trkpt lat="59.915821" lon="17.7129833">
        <ele>45.7999</ele>
        <time>2014-07-02T10:31:28Z</time>
      </trkpt>
      <trkpt lat="59.9158378" lon="17.7129855">
        <ele>45.7999</ele>
        <time>2014-07-02T10:31:29Z</time>
      </trkpt>
      <trkpt lat="59.9158585" lon="17.7129877">
        <ele>46.7612</ele>
        <time>2014-07-02T10:31:30Z</time>
      </trkpt>
      <trkpt lat="59.9158716" lon="17.7129888">
        <ele>46.7612</ele>
        <time>2014-07-02T10:31:31Z</time>
      </trkpt>
      <trkpt lat="59.9158835" lon="17.7129871">
        <ele>47.2418</ele>
        <time>2014-07-02T10:31:32Z</time>
      </trkpt>
      <trkpt lat="59.9158959" lon="17.712986">
        <ele>47.7225</ele>
        <time>2014-07-02T10:31:33Z</time>
      </trkpt>
      <trkpt lat="59.9159075" lon="17.7129838">
        <ele>48.2034</ele>
        <time>2014-07-02T10:31:34Z</time>
      </trkpt>
      <trkpt lat="59.9159246" lon="17.7129839">
        <ele>48.684</ele>
        <time>2014-07-02T10:31:35Z</time>
      </trkpt>
      <trkpt lat="59.9159409" lon="17.7129804">
        <ele>49.1646</ele>
        <time>2014-07-02T10:31:36Z</time>
      </trkpt>
      <trkpt lat="59.9159583" lon="17.7129748">
        <ele>49.6453</ele>
        <time>2014-07-02T10:31:37Z</time>
      </trkpt>
      <trkpt lat="59.9159719" lon="17.7129767">
        <ele>50.126</ele>
        <time>2014-07-02T10:31:38Z</time>
      </trkpt>
      <trkpt lat="59.9159883" lon="17.7129725">
        <ele>50.6066</ele>
        <time>2014-07-02T10:31:39Z</time>
      </trkpt>
      <trkpt lat="59.9160009" lon="17.7129631">
        <ele>50.6066</ele>
        <time>2014-07-02T10:31:40Z</time>
      </trkpt>
      <trkpt lat="59.9160106" lon="17.7129539">
        <ele>51.0872</ele>
        <time>2014-07-02T10:31:41Z</time>
      </trkpt>
      <trkpt lat="59.9160217" lon="17.7129447">
        <ele>52.0486</ele>
        <time>2014-07-02T10:31:42Z</time>
      </trkpt>
      <trkpt lat="59.9160331" lon="17.7129353">
        <ele>52.0486</ele>
        <time>2014-07-02T10:31:43Z</time>
      </trkpt>
      <trkpt lat="59.9160451" lon="17.7129253">
        <ele>51.5679</ele>
        <time>2014-07-02T10:31:44Z</time>
      </trkpt>
      <trkpt lat="59.9160627" lon="17.712912">
        <ele>52.0486</ele>
        <time>2014-07-02T10:31:45Z</time>
      </trkpt>
      <trkpt lat="59.9160787" lon="17.7128974">
        <ele>53.0098</ele>
        <time>2014-07-02T10:31:46Z</time>
      </trkpt>
      <trkpt lat="59.9160914" lon="17.7128914">
        <ele>53.9712</ele>
        <time>2014-07-02T10:31:47Z</time>
      </trkpt>
      <trkpt lat="59.9161041" lon="17.7128791">
        <ele>54.4518</ele>
        <time>2014-07-02T10:31:48Z</time>
      </trkpt>
      <trkpt lat="59.9161163" lon="17.7128629">
        <ele>54.4518</ele>
        <time>2014-07-02T10:31:49Z</time>
      </trkpt>
      <trkpt lat="59.9161332" lon="17.7128446">
        <ele>54.4518</ele>
        <time>2014-07-02T10:31:50Z</time>
      </trkpt>
      <trkpt lat="59.91615" lon="17.7128292">
        <ele>54.4518</ele>
        <time>2014-07-02T10:31:51Z</time>
      </trkpt>
      <trkpt lat="59.9161605" lon="17.7128206">
        <ele>53.9712</ele>
        <time>2014-07-02T10:31:52Z</time>
      </trkpt>
      <trkpt lat="59.9161729" lon="17.7128079">
        <ele>53.9712</ele>
        <time>2014-07-02T10:31:53Z</time>
      </trkpt>
      <trkpt lat="59.9161842" lon="17.712799">
        <ele>53.9712</ele>
        <time>2014-07-02T10:31:54Z</time>
      </trkpt>
      <trkpt lat="59.9161984" lon="17.7127918">
        <ele>54.4518</ele>
        <time>2014-07-02T10:31:55Z</time>
      </trkpt>
      <trkpt lat="59.9162169" lon="17.7127855">
        <ele>55.4131</ele>
        <time>2014-07-02T10:31:56Z</time>
      </trkpt>
      <trkpt lat="59.9162318" lon="17.7127712">
        <ele>55.8938</ele>
        <time>2014-07-02T10:31:57Z</time>
      </trkpt>
      <trkpt lat="59.9162448" lon="17.7127628">
        <ele>56.8551</ele>
        <time>2014-07-02T10:31:58Z</time>
      </trkpt>
      <trkpt lat="59.916257" lon="17.7127518">
        <ele>56.8551</ele>
        <time>2014-07-02T10:31:59Z</time>
      </trkpt>
      <trkpt lat="59.9162657" lon="17.7127365">
        <ele>56.8551</ele>
        <time>2014-07-02T10:32:00Z</time>
      </trkpt>
      <trkpt lat="59.9162735" lon="17.7127224">
        <ele>57.3358</ele>
        <time>2014-07-02T10:32:01Z</time>
      </trkpt>
      <trkpt lat="59.916287" lon="17.7126911">
        <ele>57.3358</ele>
        <time>2014-07-02T10:32:02Z</time>
      </trkpt>
      <trkpt lat="59.9162969" lon="17.712674">
        <ele>57.3358</ele>
        <time>2014-07-02T10:32:03Z</time>
      </trkpt>
      <trkpt lat="59.9163061" lon="17.7126598">
        <ele>57.3358</ele>
        <time>2014-07-02T10:32:04Z</time>
      </trkpt>
      <trkpt lat="59.9163165" lon="17.7126364">
        <ele>56.8551</ele>
        <time>2014-07-02T10:32:05Z</time>
      </trkpt>
      <trkpt lat="59.9163257" lon="17.7126104">
        <ele>56.3745</ele>
        <time>2014-07-02T10:32:06Z</time>
      </trkpt>
      <trkpt lat="59.9163385" lon="17.7125898">
        <ele>56.3745</ele>
        <time>2014-07-02T10:32:07Z</time>
      </trkpt>
      <trkpt lat="59.9163496" lon="17.7125694">
        <ele>55.8938</ele>
        <time>2014-07-02T10:32:08Z</time>
      </trkpt>
      <trkpt lat="59.9163621" lon="17.7125488">
        <ele>56.3745</ele>
        <time>2014-07-02T10:32:09Z</time>
      </trkpt>
      <trkpt lat="59.9163727" lon="17.7125364">
        <ele>55.4131</ele>
        <time>2014-07-02T10:32:10Z</time>
      </trkpt>
      <trkpt lat="59.9163786" lon="17.7125141">
        <ele>53.9712</ele>
        <time>2014-07-02T10:32:11Z</time>
      </trkpt>
      <trkpt lat="59.9163889" lon="17.7124944">
        <ele>53.9712</ele>
        <time>2014-07-02T10:32:12Z</time>
      </trkpt>
      <trkpt lat="59.9163984" lon="17.7124743">
        <ele>54.4518</ele>
        <time>2014-07-02T10:32:13Z</time>
      </trkpt>
      <trkpt lat="59.9164045" lon="17.7124462">
        <ele>54.9324</ele>
        <time>2014-07-02T10:32:14Z</time>
      </trkpt>
      <trkpt lat="59.9164075" lon="17.7124231">
        <ele>53.4905</ele>
        <time>2014-07-02T10:32:15Z</time>
      </trkpt>
      <trkpt lat="59.9164185" lon="17.7124018">
        <ele>53.9712</ele>
        <time>2014-07-02T10:32:16Z</time>
      </trkpt>
      <trkpt lat="59.9164313" lon="17.7123846">
        <ele>54.9324</ele>
        <time>2014-07-02T10:32:17Z</time>
      </trkpt>
      <trkpt lat="59.916445" lon="17.7123682">
        <ele>56.3745</ele>
        <time>2014-07-02T10:32:18Z</time>
      </trkpt>
      <trkpt lat="59.9164418" lon="17.7123345">
        <ele>54.4518</ele>
        <time>2014-07-02T10:32:19Z</time>
      </trkpt>
      <trkpt lat="59.9164521" lon="17.7123143">
        <ele>55.4131</ele>
        <time>2014-07-02T10:32:20Z</time>
      </trkpt>
      <trkpt lat="59.9164589" lon="17.7122945">
        <ele>55.4131</ele>
        <time>2014-07-02T10:32:21Z</time>
      </trkpt>
      <trkpt lat="59.9164714" lon="17.7122737">
        <ele>56.8551</ele>
        <time>2014-07-02T10:32:22Z</time>
      </trkpt>
      <trkpt lat="59.9164832" lon="17.7122529">
        <ele>57.8165</ele>
        <time>2014-07-02T10:32:23Z</time>
      </trkpt>
      <trkpt lat="59.9164961" lon="17.7122355">
        <ele>59.7391</ele>
        <time>2014-07-02T10:32:24Z</time>
      </trkpt>
      <trkpt lat="59.916504" lon="17.7122152">
        <ele>59.7391</ele>
        <time>2014-07-02T10:32:25Z</time>
      </trkpt>
      <trkpt lat="59.9165133" lon="17.7121981">
        <ele>59.7391</ele>
        <time>2014-07-02T10:32:26Z</time>
      </trkpt>
      <trkpt lat="59.9165247" lon="17.7121758">
        <ele>60.7003</ele>
        <time>2014-07-02T10:32:27Z</time>
      </trkpt>
      <trkpt lat="59.9165359" lon="17.7121566">
        <ele>60.7003</ele>
        <time>2014-07-02T10:32:28Z</time>
      </trkpt>
      <trkpt lat="59.9165382" lon="17.7121307">
        <ele>58.7777</ele>
        <time>2014-07-02T10:32:29Z</time>
      </trkpt>
      <trkpt lat="59.9165485" lon="17.7121111">
        <ele>57.8165</ele>
        <time>2014-07-02T10:32:30Z</time>
      </trkpt>
      <trkpt lat="59.9165541" lon="17.7120921">
        <ele>56.8551</ele>
        <time>2014-07-02T10:32:31Z</time>
      </trkpt>
      <trkpt lat="59.9165592" lon="17.712067">
        <ele>56.3745</ele>
        <time>2014-07-02T10:32:32Z</time>
      </trkpt>
      <trkpt lat="59.9165635" lon="17.7120463">
        <ele>55.8938</ele>
        <time>2014-07-02T10:32:33Z</time>
      </trkpt>
      <trkpt lat="59.9165776" lon="17.7120313">
        <ele>56.3745</ele>
        <time>2014-07-02T10:32:34Z</time>
      </trkpt>
      <trkpt lat="59.9165864" lon="17.7120125">
        <ele>56.3745</ele>
        <time>2014-07-02T10:32:35Z</time>
      </trkpt>
      <trkpt lat="59.9165926" lon="17.711991">
        <ele>55.8938</ele>
        <time>2014-07-02T10:32:36Z</time>
      </trkpt>
      <trkpt lat="59.9166004" lon="17.7119712">
        <ele>55.4131</ele>
        <time>2014-07-02T10:32:37Z</time>
      </trkpt>
      <trkpt lat="59.9166092" lon="17.711946">
        <ele>54.9324</ele>
        <time>2014-07-02T10:32:38Z</time>
      </trkpt>
      <trkpt lat="59.9166164" lon="17.711919">
        <ele>54.9324</ele>
        <time>2014-07-02T10:32:39Z</time>
      </trkpt>
      <trkpt lat="59.916623" lon="17.7118954">
        <ele>54.9324</ele>
        <time>2014-07-02T10:32:40Z</time>
      </trkpt>
      <trkpt lat="59.9166308" lon="17.7118723">
        <ele>54.9324</ele>
        <time>2014-07-02T10:32:41Z</time>
      </trkpt>
      <trkpt lat="59.9166407" lon="17.7118478">
        <ele>55.4131</ele>
        <time>2014-07-02T10:32:42Z</time>
      </trkpt>
      <trkpt lat="59.9166504" lon="17.7118164">
        <ele>54.4518</ele>
        <time>2014-07-02T10:32:43Z</time>
      </trkpt>
      <trkpt lat="59.916662" lon="17.711782">
        <ele>54.4518</ele>
        <time>2014-07-02T10:32:44Z</time>
      </trkpt>
      <trkpt lat="59.9166708" lon="17.7117547">
        <ele>54.4518</ele>
        <time>2014-07-02T10:32:45Z</time>
      </trkpt>
      <trkpt lat="59.9166747" lon="17.7117257">
        <ele>53.4905</ele>
        <time>2014-07-02T10:32:46Z</time>
      </trkpt>
      <trkpt lat="59.9166835" lon="17.7117017">
        <ele>53.9712</ele>
        <time>2014-07-02T10:32:47Z</time>
      </trkpt>
      <trkpt lat="59.9166911" lon="17.7116805">
        <ele>53.0098</ele>
        <time>2014-07-02T10:32:48Z</time>
      </trkpt>
      <trkpt lat="59.9167013" lon="17.7116567">
        <ele>53.4905</ele>
        <time>2014-07-02T10:32:49Z</time>
      </trkpt>
      <trkpt lat="59.916709" lon="17.7116336">
        <ele>52.5292</ele>
        <time>2014-07-02T10:32:50Z</time>
      </trkpt>
      <trkpt lat="59.9167163" lon="17.7116087">
        <ele>52.0486</ele>
        <time>2014-07-02T10:32:51Z</time>
      </trkpt>
      <trkpt lat="59.9167232" lon="17.7115833">
        <ele>52.0486</ele>
        <time>2014-07-02T10:32:52Z</time>
      </trkpt>
      <trkpt lat="59.9167287" lon="17.7115549">
        <ele>51.5679</ele>
        <time>2014-07-02T10:32:53Z</time>
      </trkpt>
      <trkpt lat="59.9167271" lon="17.7115232">
        <ele>51.0872</ele>
        <time>2014-07-02T10:32:54Z</time>
      </trkpt>
      <trkpt lat="59.9167236" lon="17.7114873">
        <ele>50.126</ele>
        <time>2014-07-02T10:32:55Z</time>
      </trkpt>
      <trkpt lat="59.9167246" lon="17.7114563">
        <ele>48.2034</ele>
        <time>2014-07-02T10:32:56Z</time>
      </trkpt>
      <trkpt lat="59.9167249" lon="17.7114257">
        <ele>47.2418</ele>
        <time>2014-07-02T10:32:57Z</time>
      </trkpt>
      <trkpt lat="59.916727" lon="17.7113958">
        <ele>47.2418</ele>
        <time>2014-07-02T10:32:58Z</time>
      </trkpt>
      <trkpt lat="59.9167256" lon="17.7113636">
        <ele>46.7612</ele>
        <time>2014-07-02T10:32:59Z</time>
      </trkpt>
      <trkpt lat="59.9167263" lon="17.7113279">
        <ele>46.2806</ele>
        <time>2014-07-02T10:33:00Z</time>
      </trkpt>
      <trkpt lat="59.9167314" lon="17.7112964">
        <ele>46.7612</ele>
        <time>2014-07-02T10:33:01Z</time>
      </trkpt>
      <trkpt lat="59.9167293" lon="17.7112682">
        <ele>45.7999</ele>
        <time>2014-07-02T10:33:02Z</time>
      </trkpt>
      <trkpt lat="59.9167255" lon="17.7112415">
        <ele>43.8773</ele>
        <time>2014-07-02T10:33:03Z</time>
      </trkpt>
      <trkpt lat="59.9167179" lon="17.7112057">
        <ele>42.4354</ele>
        <time>2014-07-02T10:33:04Z</time>
      </trkpt>
      <trkpt lat="59.9167175" lon="17.7111747">
        <ele>42.4354</ele>
        <time>2014-07-02T10:33:05Z</time>
      </trkpt>
      <trkpt lat="59.9167184" lon="17.7111454">
        <ele>41.9547</ele>
        <time>2014-07-02T10:33:06Z</time>
      </trkpt>
      <trkpt lat="59.9167205" lon="17.7111171">
        <ele>40.9934</ele>
        <time>2014-07-02T10:33:07Z</time>
      </trkpt>
      <trkpt lat="59.9167239" lon="17.7110911">
        <ele>40.5128</ele>
        <time>2014-07-02T10:33:08Z</time>
      </trkpt>
      <trkpt lat="59.9167214" lon="17.7110648">
        <ele>39.5513</ele>
        <time>2014-07-02T10:33:09Z</time>
      </trkpt>
      <trkpt lat="59.9167167" lon="17.7110337">
        <ele>38.5901</ele>
        <time>2014-07-02T10:33:10Z</time>
      </trkpt>
      <trkpt lat="59.9167174" lon="17.7110083">
        <ele>37.6287</ele>
        <time>2014-07-02T10:33:11Z</time>
      </trkpt>
      <trkpt lat="59.9167192" lon="17.7109744">
        <ele>36.6675</ele>
        <time>2014-07-02T10:33:12Z</time>
      </trkpt>
      <trkpt lat="59.9167168" lon="17.7109405">
        <ele>35.2255</ele>
        <time>2014-07-02T10:33:13Z</time>
      </trkpt>
      <trkpt lat="59.9167144" lon="17.7109094">
        <ele>34.2642</ele>
        <time>2014-07-02T10:33:14Z</time>
      </trkpt>
      <trkpt lat="59.916717" lon="17.7108841">
        <ele>34.7449</ele>
        <time>2014-07-02T10:33:15Z</time>
      </trkpt>
      <trkpt lat="59.9167262" lon="17.7108625">
        <ele>36.6675</ele>
        <time>2014-07-02T10:33:16Z</time>
      </trkpt>
      <trkpt lat="59.9167413" lon="17.7108467">
        <ele>39.5513</ele>
        <time>2014-07-02T10:33:17Z</time>
      </trkpt>
      <trkpt lat="59.916756" lon="17.7108274">
        <ele>41.9547</ele>
        <time>2014-07-02T10:33:18Z</time>
      </trkpt>
      <trkpt lat="59.9167519" lon="17.7107976">
        <ele>39.5513</ele>
        <time>2014-07-02T10:33:19Z</time>
      </trkpt>
      <trkpt lat="59.9167681" lon="17.7107736">
        <ele>40.9934</ele>
        <time>2014-07-02T10:33:20Z</time>
      </trkpt>
      <trkpt lat="59.9167684" lon="17.71074">
        <ele>40.5128</ele>
        <time>2014-07-02T10:33:21Z</time>
      </trkpt>
      <trkpt lat="59.9167718" lon="17.7107107">
        <ele>40.5128</ele>
        <time>2014-07-02T10:33:22Z</time>
      </trkpt>
      <trkpt lat="59.9167722" lon="17.7106737">
        <ele>40.0321</ele>
        <time>2014-07-02T10:33:23Z</time>
      </trkpt>
      <trkpt lat="59.9167645" lon="17.7106296">
        <ele>37.6287</ele>
        <time>2014-07-02T10:33:24Z</time>
      </trkpt>
      <trkpt lat="59.9167577" lon="17.7105912">
        <ele>37.1481</ele>
        <time>2014-07-02T10:33:25Z</time>
      </trkpt>
      <trkpt lat="59.9167568" lon="17.7105665">
        <ele>38.1094</ele>
        <time>2014-07-02T10:33:26Z</time>
      </trkpt>
      <trkpt lat="59.9167545" lon="17.710539">
        <ele>37.1481</ele>
        <time>2014-07-02T10:33:27Z</time>
      </trkpt>
      <trkpt lat="59.9167557" lon="17.7105012">
        <ele>35.7061</ele>
        <time>2014-07-02T10:33:28Z</time>
      </trkpt>
      <trkpt lat="59.9167552" lon="17.7104663">
        <ele>34.7449</ele>
        <time>2014-07-02T10:33:29Z</time>
      </trkpt>
      <trkpt lat="59.9167555" lon="17.7104332">
        <ele>33.7834</ele>
        <time>2014-07-02T10:33:30Z</time>
      </trkpt>
      <trkpt lat="59.9167603" lon="17.7104005">
        <ele>33.7834</ele>
        <time>2014-07-02T10:33:31Z</time>
      </trkpt>
      <trkpt lat="59.9167582" lon="17.7103728">
        <ele>33.7834</ele>
        <time>2014-07-02T10:33:32Z</time>
      </trkpt>
      <trkpt lat="59.9167516" lon="17.7103457">
        <ele>33.3029</ele>
        <time>2014-07-02T10:33:33Z</time>
      </trkpt>
      <trkpt lat="59.9167432" lon="17.7103213">
        <ele>33.7834</ele>
        <time>2014-07-02T10:33:34Z</time>
      </trkpt>
      <trkpt lat="59.9167339" lon="17.7102956">
        <ele>34.7449</ele>
        <time>2014-07-02T10:33:35Z</time>
      </trkpt>
      <trkpt lat="59.9167317" lon="17.7102774">
        <ele>36.1868</ele>
        <time>2014-07-02T10:33:36Z</time>
      </trkpt>
      <trkpt lat="59.9167384" lon="17.7102587">
        <ele>39.0707</ele>
        <time>2014-07-02T10:33:37Z</time>
      </trkpt>
      <trkpt lat="59.9167361" lon="17.7102406">
        <ele>39.5513</ele>
        <time>2014-07-02T10:33:38Z</time>
      </trkpt>
      <trkpt lat="59.9167385" lon="17.7102209">
        <ele>41.9547</ele>
        <time>2014-07-02T10:33:39Z</time>
      </trkpt>
      <trkpt lat="59.9167408" lon="17.710197">
        <ele>43.3966</ele>
        <time>2014-07-02T10:33:40Z</time>
      </trkpt>
      <trkpt lat="59.9167432" lon="17.7101687">
        <ele>44.8386</ele>
        <time>2014-07-02T10:33:41Z</time>
      </trkpt>
      <trkpt lat="59.9167429" lon="17.7101443">
        <ele>45.7999</ele>
        <time>2014-07-02T10:33:42Z</time>
      </trkpt>
      <trkpt lat="59.9167391" lon="17.7101182">
        <ele>46.2806</ele>
        <time>2014-07-02T10:33:43Z</time>
      </trkpt>
      <trkpt lat="59.9167308" lon="17.7100926">
        <ele>46.2806</ele>
        <time>2014-07-02T10:33:44Z</time>
      </trkpt>
      <trkpt lat="59.916721" lon="17.7100658">
        <ele>46.2806</ele>
        <time>2014-07-02T10:33:45Z</time>
      </trkpt>
      <trkpt lat="59.916711" lon="17.7100381">
        <ele>46.2806</ele>
        <time>2014-07-02T10:33:46Z</time>
      </trkpt>
      <trkpt lat="59.9167027" lon="17.7100177">
        <ele>46.2806</ele>
        <time>2014-07-02T10:33:47Z</time>
      </trkpt>
      <trkpt lat="59.916694" lon="17.7099951">
        <ele>47.2418</ele>
        <time>2014-07-02T10:33:48Z</time>
      </trkpt>
      <trkpt lat="59.9166851" lon="17.7099728">
        <ele>47.7225</ele>
        <time>2014-07-02T10:33:49Z</time>
      </trkpt>
      <trkpt lat="59.9166733" lon="17.7099465">
        <ele>48.2034</ele>
        <time>2014-07-02T10:33:50Z</time>
      </trkpt>
      <trkpt lat="59.916666" lon="17.7099267">
        <ele>49.1646</ele>
        <time>2014-07-02T10:33:51Z</time>
      </trkpt>
      <trkpt lat="59.916655" lon="17.7099054">
        <ele>48.684</ele>
        <time>2014-07-02T10:33:52Z</time>
      </trkpt>
      <trkpt lat="59.9166483" lon="17.7098822">
        <ele>49.1646</ele>
        <time>2014-07-02T10:33:53Z</time>
      </trkpt>
      <trkpt lat="59.9166406" lon="17.7098588">
        <ele>50.126</ele>
        <time>2014-07-02T10:33:54Z</time>
      </trkpt>
      <trkpt lat="59.9166318" lon="17.7098402">
        <ele>50.126</ele>
        <time>2014-07-02T10:33:55Z</time>
      </trkpt>
      <trkpt lat="59.9166213" lon="17.7098148">
        <ele>50.126</ele>
        <time>2014-07-02T10:33:56Z</time>
      </trkpt>
      <trkpt lat="59.9166177" lon="17.7098029">
        <ele>51.0872</ele>
        <time>2014-07-02T10:33:57Z</time>
      </trkpt>
      <trkpt lat="59.9166169" lon="17.7097872">
        <ele>52.0486</ele>
        <time>2014-07-02T10:33:58Z</time>
      </trkpt>
      <trkpt lat="59.9166183" lon="17.709764">
        <ele>53.4905</ele>
        <time>2014-07-02T10:33:59Z</time>
      </trkpt>
      <trkpt lat="59.916603" lon="17.709738">
        <ele>52.5292</ele>
        <time>2014-07-02T10:34:00Z</time>
      </trkpt>
      <trkpt lat="59.9165884" lon="17.7097159">
        <ele>51.5679</ele>
        <time>2014-07-02T10:34:01Z</time>
      </trkpt>
      <trkpt lat="59.9165781" lon="17.7096942">
        <ele>51.0872</ele>
        <time>2014-07-02T10:34:02Z</time>
      </trkpt>
      <trkpt lat="59.9165718" lon="17.7096801">
        <ele>51.5679</ele>
        <time>2014-07-02T10:34:03Z</time>
      </trkpt>
      <trkpt lat="59.916567" lon="17.7096609">
        <ele>52.0486</ele>
        <time>2014-07-02T10:34:04Z</time>
      </trkpt>
      <trkpt lat="59.9165615" lon="17.7096402">
        <ele>52.5292</ele>
        <time>2014-07-02T10:34:05Z</time>
      </trkpt>
      <trkpt lat="59.9165589" lon="17.7096169">
        <ele>53.0098</ele>
        <time>2014-07-02T10:34:06Z</time>
      </trkpt>
      <trkpt lat="59.9165521" lon="17.7095841">
        <ele>52.0486</ele>
        <time>2014-07-02T10:34:07Z</time>
      </trkpt>
      <trkpt lat="59.9165507" lon="17.7095562">
        <ele>52.5292</ele>
        <time>2014-07-02T10:34:08Z</time>
      </trkpt>
      <trkpt lat="59.9165506" lon="17.7095232">
        <ele>53.0098</ele>
        <time>2014-07-02T10:34:09Z</time>
      </trkpt>
      <trkpt lat="59.9165499" lon="17.7094901">
        <ele>53.0098</ele>
        <time>2014-07-02T10:34:10Z</time>
      </trkpt>
      <trkpt lat="59.9165459" lon="17.7094501">
        <ele>52.5292</ele>
        <time>2014-07-02T10:34:11Z</time>
      </trkpt>
      <trkpt lat="59.9165563" lon="17.7094279">
        <ele>53.9712</ele>
        <time>2014-07-02T10:34:12Z</time>
      </trkpt>
      <trkpt lat="59.9165568" lon="17.7094012">
        <ele>53.9712</ele>
        <time>2014-07-02T10:34:13Z</time>
      </trkpt>
      <trkpt lat="59.9165546" lon="17.7093696">
        <ele>53.0098</ele>
        <time>2014-07-02T10:34:14Z</time>
      </trkpt>
      <trkpt lat="59.916548" lon="17.7093394">
        <ele>51.5679</ele>
        <time>2014-07-02T10:34:15Z</time>
      </trkpt>
      <trkpt lat="59.9165566" lon="17.7093201">
        <ele>52.5292</ele>
        <time>2014-07-02T10:34:16Z</time>
      </trkpt>
      <trkpt lat="59.9165649" lon="17.709301">
        <ele>53.0098</ele>
        <time>2014-07-02T10:34:17Z</time>
      </trkpt>
      <trkpt lat="59.916579" lon="17.7092795">
        <ele>53.9712</ele>
        <time>2014-07-02T10:34:18Z</time>
      </trkpt>
      <trkpt lat="59.9165945" lon="17.7092603">
        <ele>55.4131</ele>
        <time>2014-07-02T10:34:19Z</time>
      </trkpt>
      <trkpt lat="59.9165894" lon="17.7092174">
        <ele>53.9712</ele>
        <time>2014-07-02T10:34:20Z</time>
      </trkpt>
      <trkpt lat="59.9165982" lon="17.7091922">
        <ele>54.9324</ele>
        <time>2014-07-02T10:34:21Z</time>
      </trkpt>
      <trkpt lat="59.916607" lon="17.7091678">
        <ele>55.8938</ele>
        <time>2014-07-02T10:34:22Z</time>
      </trkpt>
      <trkpt lat="59.9166107" lon="17.709144">
        <ele>55.8938</ele>
        <time>2014-07-02T10:34:23Z</time>
      </trkpt>
      <trkpt lat="59.9166179" lon="17.7091197">
        <ele>56.8551</ele>
        <time>2014-07-02T10:34:24Z</time>
      </trkpt>
      <trkpt lat="59.9166263" lon="17.7090951">
        <ele>57.8165</ele>
        <time>2014-07-02T10:34:25Z</time>
      </trkpt>
      <trkpt lat="59.9166366" lon="17.7090677">
        <ele>58.7777</ele>
        <time>2014-07-02T10:34:26Z</time>
      </trkpt>
      <trkpt lat="59.9166474" lon="17.7090378">
        <ele>60.2197</ele>
        <time>2014-07-02T10:34:27Z</time>
      </trkpt>
      <trkpt lat="59.9166604" lon="17.709019">
        <ele>62.1423</ele>
        <time>2014-07-02T10:34:28Z</time>
      </trkpt>
      <trkpt lat="59.9166671" lon="17.7090032">
        <ele>62.1423</ele>
        <time>2014-07-02T10:34:29Z</time>
      </trkpt>
      <trkpt lat="59.9166769" lon="17.7089855">
        <ele>63.1036</ele>
        <time>2014-07-02T10:34:30Z</time>
      </trkpt>
      <trkpt lat="59.9166832" lon="17.7089682">
        <ele>62.6229</ele>
        <time>2014-07-02T10:34:31Z</time>
      </trkpt>
      <trkpt lat="59.9166931" lon="17.7089528">
        <ele>63.1036</ele>
        <time>2014-07-02T10:34:32Z</time>
      </trkpt>
      <trkpt lat="59.9167011" lon="17.7089336">
        <ele>63.1036</ele>
        <time>2014-07-02T10:34:33Z</time>
      </trkpt>
      <trkpt lat="59.9167106" lon="17.7089124">
        <ele>64.0651</ele>
        <time>2014-07-02T10:34:34Z</time>
      </trkpt>
      <trkpt lat="59.9167229" lon="17.7088908">
        <ele>64.5457</ele>
        <time>2014-07-02T10:34:35Z</time>
      </trkpt>
      <trkpt lat="59.9167287" lon="17.7088656">
        <ele>63.1036</ele>
        <time>2014-07-02T10:34:36Z</time>
      </trkpt>
      <trkpt lat="59.9167411" lon="17.7088497">
        <ele>63.5844</ele>
        <time>2014-07-02T10:34:37Z</time>
      </trkpt>
      <trkpt lat="59.9167515" lon="17.7088362">
        <ele>63.1036</ele>
        <time>2014-07-02T10:34:38Z</time>
      </trkpt>
      <trkpt lat="59.9167566" lon="17.7088222">
        <ele>62.6229</ele>
        <time>2014-07-02T10:34:39Z</time>
      </trkpt>
      <trkpt lat="59.9167687" lon="17.7087979">
        <ele>63.1036</ele>
        <time>2014-07-02T10:34:40Z</time>
      </trkpt>
      <trkpt lat="59.9167675" lon="17.7087539">
        <ele>61.6617</ele>
        <time>2014-07-02T10:34:41Z</time>
      </trkpt>
      <trkpt lat="59.9167764" lon="17.7087314">
        <ele>61.6617</ele>
        <time>2014-07-02T10:34:42Z</time>
      </trkpt>
      <trkpt lat="59.9167717" lon="17.7086932">
        <ele>60.7003</ele>
        <time>2014-07-02T10:34:43Z</time>
      </trkpt>
      <trkpt lat="59.9167656" lon="17.7086612">
        <ele>59.7391</ele>
        <time>2014-07-02T10:34:44Z</time>
      </trkpt>
      <trkpt lat="59.9167612" lon="17.7086353">
        <ele>58.7777</ele>
        <time>2014-07-02T10:34:45Z</time>
      </trkpt>
      <trkpt lat="59.9167589" lon="17.7086036">
        <ele>58.7777</ele>
        <time>2014-07-02T10:34:46Z</time>
      </trkpt>
      <trkpt lat="59.916761" lon="17.7085774">
        <ele>58.7777</ele>
        <time>2014-07-02T10:34:47Z</time>
      </trkpt>
      <trkpt lat="59.9167708" lon="17.7085537">
        <ele>60.7003</ele>
        <time>2014-07-02T10:34:48Z</time>
      </trkpt>
      <trkpt lat="59.916764" lon="17.7085166">
        <ele>59.7391</ele>
        <time>2014-07-02T10:34:49Z</time>
      </trkpt>
      <trkpt lat="59.9167555" lon="17.7084821">
        <ele>58.7777</ele>
        <time>2014-07-02T10:34:50Z</time>
      </trkpt>
      <trkpt lat="59.9167524" lon="17.7084595">
        <ele>58.7777</ele>
        <time>2014-07-02T10:34:51Z</time>
      </trkpt>
      <trkpt lat="59.9167511" lon="17.7084369">
        <ele>58.7777</ele>
        <time>2014-07-02T10:34:52Z</time>
      </trkpt>
      <trkpt lat="59.9167532" lon="17.7084185">
        <ele>58.7777</ele>
        <time>2014-07-02T10:34:53Z</time>
      </trkpt>
      <trkpt lat="59.9167546" lon="17.7083974">
        <ele>57.8165</ele>
        <time>2014-07-02T10:34:54Z</time>
      </trkpt>
      <trkpt lat="59.9167535" lon="17.7083735">
        <ele>57.3358</ele>
        <time>2014-07-02T10:34:55Z</time>
      </trkpt>
      <trkpt lat="59.9167504" lon="17.7083529">
        <ele>56.8551</ele>
        <time>2014-07-02T10:34:56Z</time>
      </trkpt>
      <trkpt lat="59.9167416" lon="17.7083224">
        <ele>55.8938</ele>
        <time>2014-07-02T10:34:57Z</time>
      </trkpt>
      <trkpt lat="59.9167376" lon="17.7082893">
        <ele>56.8551</ele>
        <time>2014-07-02T10:34:58Z</time>
      </trkpt>
      <trkpt lat="59.9167358" lon="17.7082586">
        <ele>56.3745</ele>
        <time>2014-07-02T10:34:59Z</time>
      </trkpt>
      <trkpt lat="59.9167386" lon="17.7082347">
        <ele>55.8938</ele>
        <time>2014-07-02T10:35:00Z</time>
      </trkpt>
      <trkpt lat="59.9167433" lon="17.7082105">
        <ele>55.8938</ele>
        <time>2014-07-02T10:35:01Z</time>
      </trkpt>
      <trkpt lat="59.9167499" lon="17.7081851">
        <ele>56.3745</ele>
        <time>2014-07-02T10:35:02Z</time>
      </trkpt>
      <trkpt lat="59.916752" lon="17.7081597">
        <ele>55.8938</ele>
        <time>2014-07-02T10:35:03Z</time>
      </trkpt>
      <trkpt lat="59.9167552" lon="17.708136">
        <ele>55.4131</ele>
        <time>2014-07-02T10:35:04Z</time>
      </trkpt>
      <trkpt lat="59.9167591" lon="17.7081103">
        <ele>54.9324</ele>
        <time>2014-07-02T10:35:05Z</time>
      </trkpt>
      <trkpt lat="59.9167645" lon="17.7080867">
        <ele>54.4518</ele>
        <time>2014-07-02T10:35:06Z</time>
      </trkpt>
      <trkpt lat="59.9167723" lon="17.708065">
        <ele>54.9324</ele>
        <time>2014-07-02T10:35:07Z</time>
      </trkpt>
      <trkpt lat="59.9167798" lon="17.7080488">
        <ele>54.9324</ele>
        <time>2014-07-02T10:35:08Z</time>
      </trkpt>
      <trkpt lat="59.9167858" lon="17.7080296">
        <ele>54.4518</ele>
        <time>2014-07-02T10:35:09Z</time>
      </trkpt>
      <trkpt lat="59.9167904" lon="17.7080089">
        <ele>54.4518</ele>
        <time>2014-07-02T10:35:10Z</time>
      </trkpt>
      <trkpt lat="59.9168006" lon="17.7079908">
        <ele>54.9324</ele>
        <time>2014-07-02T10:35:11Z</time>
      </trkpt>
      <trkpt lat="59.9168083" lon="17.7079676">
        <ele>54.4518</ele>
        <time>2014-07-02T10:35:12Z</time>
      </trkpt>
      <trkpt lat="59.9168171" lon="17.7079446">
        <ele>54.4518</ele>
        <time>2014-07-02T10:35:13Z</time>
      </trkpt>
      <trkpt lat="59.9168223" lon="17.707915">
        <ele>53.9712</ele>
        <time>2014-07-02T10:35:14Z</time>
      </trkpt>
      <trkpt lat="59.9168278" lon="17.707883">
        <ele>53.4905</ele>
        <time>2014-07-02T10:35:15Z</time>
      </trkpt>
      <trkpt lat="59.9168358" lon="17.7078545">
        <ele>53.9712</ele>
        <time>2014-07-02T10:35:16Z</time>
      </trkpt>
      <trkpt lat="59.9168342" lon="17.7078192">
        <ele>52.5292</ele>
        <time>2014-07-02T10:35:17Z</time>
      </trkpt>
      <trkpt lat="59.9168287" lon="17.7077789">
        <ele>50.6066</ele>
        <time>2014-07-02T10:35:18Z</time>
      </trkpt>
      <trkpt lat="59.9168193" lon="17.7077353">
        <ele>47.7225</ele>
        <time>2014-07-02T10:35:19Z</time>
      </trkpt>
      <trkpt lat="59.9168154" lon="17.7076993">
        <ele>45.7999</ele>
        <time>2014-07-02T10:35:20Z</time>
      </trkpt>
      <trkpt lat="59.9168159" lon="17.7076692">
        <ele>44.8386</ele>
        <time>2014-07-02T10:35:21Z</time>
      </trkpt>
      <trkpt lat="59.9168156" lon="17.7076417">
        <ele>44.358</ele>
        <time>2014-07-02T10:35:22Z</time>
      </trkpt>
      <trkpt lat="59.916823" lon="17.7076182">
        <ele>46.2806</ele>
        <time>2014-07-02T10:35:23Z</time>
      </trkpt>
      <trkpt lat="59.9168319" lon="17.7075962">
        <ele>48.684</ele>
        <time>2014-07-02T10:35:24Z</time>
      </trkpt>
      <trkpt lat="59.9168464" lon="17.707574">
        <ele>50.6066</ele>
        <time>2014-07-02T10:35:25Z</time>
      </trkpt>
      <trkpt lat="59.9168609" lon="17.7075509">
        <ele>52.0486</ele>
        <time>2014-07-02T10:35:26Z</time>
      </trkpt>
      <trkpt lat="59.9168686" lon="17.7075272">
        <ele>52.0486</ele>
        <time>2014-07-02T10:35:27Z</time>
      </trkpt>
      <trkpt lat="59.9168805" lon="17.707509">
        <ele>53.0098</ele>
        <time>2014-07-02T10:35:28Z</time>
      </trkpt>
      <trkpt lat="59.9168948" lon="17.7074924">
        <ele>53.9712</ele>
        <time>2014-07-02T10:35:29Z</time>
      </trkpt>
      <trkpt lat="59.9169111" lon="17.7074765">
        <ele>54.4518</ele>
        <time>2014-07-02T10:35:30Z</time>
      </trkpt>
      <trkpt lat="59.916924" lon="17.7074587">
        <ele>54.9324</ele>
        <time>2014-07-02T10:35:31Z</time>
      </trkpt>
      <trkpt lat="59.9169355" lon="17.70744">
        <ele>55.4131</ele>
        <time>2014-07-02T10:35:32Z</time>
      </trkpt>
      <trkpt lat="59.9169462" lon="17.7074216">
        <ele>55.4131</ele>
        <time>2014-07-02T10:35:33Z</time>
      </trkpt>
      <trkpt lat="59.9169607" lon="17.7074106">
        <ele>55.8938</ele>
        <time>2014-07-02T10:35:34Z</time>
      </trkpt>
      <trkpt lat="59.9169727" lon="17.7073908">
        <ele>56.3745</ele>
        <time>2014-07-02T10:35:35Z</time>
      </trkpt>
      <trkpt lat="59.916986" lon="17.7073714">
        <ele>56.3745</ele>
        <time>2014-07-02T10:35:36Z</time>
      </trkpt>
      <trkpt lat="59.9169998" lon="17.7073558">
        <ele>56.3745</ele>
        <time>2014-07-02T10:35:37Z</time>
      </trkpt>
      <trkpt lat="59.9170133" lon="17.7073336">
        <ele>55.8938</ele>
        <time>2014-07-02T10:35:38Z</time>
      </trkpt>
      <trkpt lat="59.9170183" lon="17.707304">
        <ele>53.9712</ele>
        <time>2014-07-02T10:35:39Z</time>
      </trkpt>
      <trkpt lat="59.9170291" lon="17.7072864">
        <ele>53.4905</ele>
        <time>2014-07-02T10:35:40Z</time>
      </trkpt>
      <trkpt lat="59.9170391" lon="17.7072688">
        <ele>52.5292</ele>
        <time>2014-07-02T10:35:41Z</time>
      </trkpt>
      <trkpt lat="59.9170525" lon="17.7072464">
        <ele>52.0486</ele>
        <time>2014-07-02T10:35:42Z</time>
      </trkpt>
      <trkpt lat="59.9170661" lon="17.7072336">
        <ele>52.5292</ele>
        <time>2014-07-02T10:35:43Z</time>
      </trkpt>
      <trkpt lat="59.9170789" lon="17.7072196">
        <ele>52.5292</ele>
        <time>2014-07-02T10:35:44Z</time>
      </trkpt>
      <trkpt lat="59.9170919" lon="17.7072086">
        <ele>52.0486</ele>
        <time>2014-07-02T10:35:45Z</time>
      </trkpt>
      <trkpt lat="59.9171063" lon="17.7071956">
        <ele>52.0486</ele>
        <time>2014-07-02T10:35:46Z</time>
      </trkpt>
      <trkpt lat="59.9171173" lon="17.7071793">
        <ele>52.0486</ele>
        <time>2014-07-02T10:35:47Z</time>
      </trkpt>
      <trkpt lat="59.9171293" lon="17.7071528">
        <ele>52.0486</ele>
        <time>2014-07-02T10:35:48Z</time>
      </trkpt>
      <trkpt lat="59.917138" lon="17.7071246">
        <ele>51.5679</ele>
        <time>2014-07-02T10:35:49Z</time>
      </trkpt>
      <trkpt lat="59.9171456" lon="17.7070954">
        <ele>50.6066</ele>
        <time>2014-07-02T10:35:50Z</time>
      </trkpt>
      <trkpt lat="59.9171535" lon="17.7070662">
        <ele>50.6066</ele>
        <time>2014-07-02T10:35:51Z</time>
      </trkpt>
      <trkpt lat="59.9171587" lon="17.7070329">
        <ele>50.126</ele>
        <time>2014-07-02T10:35:52Z</time>
      </trkpt>
      <trkpt lat="59.9171595" lon="17.7069968">
        <ele>48.684</ele>
        <time>2014-07-02T10:35:53Z</time>
      </trkpt>
      <trkpt lat="59.917153" lon="17.7069549">
        <ele>47.7225</ele>
        <time>2014-07-02T10:35:54Z</time>
      </trkpt>
      <trkpt lat="59.9171452" lon="17.7069208">
        <ele>47.2418</ele>
        <time>2014-07-02T10:35:55Z</time>
      </trkpt>
      <trkpt lat="59.9171349" lon="17.7068902">
        <ele>46.2806</ele>
        <time>2014-07-02T10:35:56Z</time>
      </trkpt>
      <trkpt lat="59.9171245" lon="17.7068575">
        <ele>45.7999</ele>
        <time>2014-07-02T10:35:57Z</time>
      </trkpt>
      <trkpt lat="59.9171157" lon="17.7068278">
        <ele>45.3192</ele>
        <time>2014-07-02T10:35:58Z</time>
      </trkpt>
      <trkpt lat="59.917106" lon="17.7067959">
        <ele>44.8386</ele>
        <time>2014-07-02T10:35:59Z</time>
      </trkpt>
      <trkpt lat="59.9170989" lon="17.7067694">
        <ele>44.358</ele>
        <time>2014-07-02T10:36:00Z</time>
      </trkpt>
      <trkpt lat="59.9170851" lon="17.7067357">
        <ele>42.916</ele>
        <time>2014-07-02T10:36:01Z</time>
      </trkpt>
      <trkpt lat="59.9170782" lon="17.7067093">
        <ele>42.4354</ele>
        <time>2014-07-02T10:36:02Z</time>
      </trkpt>
      <trkpt lat="59.9170753" lon="17.7066845">
        <ele>41.9547</ele>
        <time>2014-07-02T10:36:03Z</time>
      </trkpt>
      <trkpt lat="59.9170774" lon="17.7066565">
        <ele>42.4354</ele>
        <time>2014-07-02T10:36:04Z</time>
      </trkpt>
      <trkpt lat="59.9170769" lon="17.706632">
        <ele>43.3966</ele>
        <time>2014-07-02T10:36:05Z</time>
      </trkpt>
      <trkpt lat="59.9170739" lon="17.7066046">
        <ele>44.358</ele>
        <time>2014-07-02T10:36:06Z</time>
      </trkpt>
      <trkpt lat="59.9170711" lon="17.7065823">
        <ele>45.3192</ele>
        <time>2014-07-02T10:36:07Z</time>
      </trkpt>
      <trkpt lat="59.9170682" lon="17.7065602">
        <ele>46.2806</ele>
        <time>2014-07-02T10:36:08Z</time>
      </trkpt>
      <trkpt lat="59.9170645" lon="17.7065372">
        <ele>46.7612</ele>
        <time>2014-07-02T10:36:09Z</time>
      </trkpt>
      <trkpt lat="59.9170606" lon="17.7065126">
        <ele>47.2418</ele>
        <time>2014-07-02T10:36:10Z</time>
      </trkpt>
      <trkpt lat="59.9170601" lon="17.7064856">
        <ele>48.2034</ele>
        <time>2014-07-02T10:36:11Z</time>
      </trkpt>
      <trkpt lat="59.9170599" lon="17.7064606">
        <ele>49.1646</ele>
        <time>2014-07-02T10:36:12Z</time>
      </trkpt>
      <trkpt lat="59.9170586" lon="17.7064347">
        <ele>49.1646</ele>
        <time>2014-07-02T10:36:13Z</time>
      </trkpt>
      <trkpt lat="59.9170587" lon="17.7064083">
        <ele>49.6453</ele>
        <time>2014-07-02T10:36:14Z</time>
      </trkpt>
      <trkpt lat="59.9170634" lon="17.7063788">
        <ele>50.6066</ele>
        <time>2014-07-02T10:36:15Z</time>
      </trkpt>
      <trkpt lat="59.9170661" lon="17.7063467">
        <ele>50.6066</ele>
        <time>2014-07-02T10:36:16Z</time>
      </trkpt>
      <trkpt lat="59.9170675" lon="17.7063157">
        <ele>50.6066</ele>
        <time>2014-07-02T10:36:17Z</time>
      </trkpt>
      <trkpt lat="59.9170732" lon="17.7062861">
        <ele>52.0486</ele>
        <time>2014-07-02T10:36:18Z</time>
      </trkpt>
      <trkpt lat="59.9170721" lon="17.7062593">
        <ele>52.5292</ele>
        <time>2014-07-02T10:36:19Z</time>
      </trkpt>
      <trkpt lat="59.9170686" lon="17.7062327">
        <ele>53.0098</ele>
        <time>2014-07-02T10:36:20Z</time>
      </trkpt>
      <trkpt lat="59.9170627" lon="17.7062063">
        <ele>53.4905</ele>
        <time>2014-07-02T10:36:21Z</time>
      </trkpt>
      <trkpt lat="59.9170556" lon="17.706182">
        <ele>53.9712</ele>
        <time>2014-07-02T10:36:22Z</time>
      </trkpt>
      <trkpt lat="59.9170488" lon="17.7061605">
        <ele>54.4518</ele>
        <time>2014-07-02T10:36:23Z</time>
      </trkpt>
      <trkpt lat="59.9170409" lon="17.7061426">
        <ele>54.4518</ele>
        <time>2014-07-02T10:36:24Z</time>
      </trkpt>
      <trkpt lat="59.9170326" lon="17.7061219">
        <ele>54.4518</ele>
        <time>2014-07-02T10:36:25Z</time>
      </trkpt>
      <trkpt lat="59.9170256" lon="17.706102">
        <ele>54.9324</ele>
        <time>2014-07-02T10:36:26Z</time>
      </trkpt>
      <trkpt lat="59.9170137" lon="17.7060825">
        <ele>55.4131</ele>
        <time>2014-07-02T10:36:27Z</time>
      </trkpt>
      <trkpt lat="59.9169965" lon="17.7060581">
        <ele>55.4131</ele>
        <time>2014-07-02T10:36:28Z</time>
      </trkpt>
      <trkpt lat="59.9169831" lon="17.7060355">
        <ele>55.4131</ele>
        <time>2014-07-02T10:36:29Z</time>
      </trkpt>
      <trkpt lat="59.9169738" lon="17.7060134">
        <ele>55.4131</ele>
        <time>2014-07-02T10:36:30Z</time>
      </trkpt>
      <trkpt lat="59.916965" lon="17.7059902">
        <ele>55.8938</ele>
        <time>2014-07-02T10:36:31Z</time>
      </trkpt>
      <trkpt lat="59.916955" lon="17.705965">
        <ele>55.8938</ele>
        <time>2014-07-02T10:36:32Z</time>
      </trkpt>
      <trkpt lat="59.9169469" lon="17.7059401">
        <ele>55.8938</ele>
        <time>2014-07-02T10:36:33Z</time>
      </trkpt>
      <trkpt lat="59.9169422" lon="17.7059121">
        <ele>55.8938</ele>
        <time>2014-07-02T10:36:34Z</time>
      </trkpt>
      <trkpt lat="59.9169404" lon="17.705884">
        <ele>55.8938</ele>
        <time>2014-07-02T10:36:35Z</time>
      </trkpt>
      <trkpt lat="59.9169382" lon="17.7058552">
        <ele>55.8938</ele>
        <time>2014-07-02T10:36:36Z</time>
      </trkpt>
      <trkpt lat="59.9169338" lon="17.7058215">
        <ele>55.8938</ele>
        <time>2014-07-02T10:36:37Z</time>
      </trkpt>
      <trkpt lat="59.9169303" lon="17.7057857">
        <ele>55.4131</ele>
        <time>2014-07-02T10:36:38Z</time>
      </trkpt>
      <trkpt lat="59.916928" lon="17.7057539">
        <ele>55.8938</ele>
        <time>2014-07-02T10:36:39Z</time>
      </trkpt>
      <trkpt lat="59.9169273" lon="17.7057265">
        <ele>56.8551</ele>
        <time>2014-07-02T10:36:40Z</time>
      </trkpt>
      <trkpt lat="59.9169267" lon="17.7056957">
        <ele>56.8551</ele>
        <time>2014-07-02T10:36:41Z</time>
      </trkpt>
      <trkpt lat="59.9169251" lon="17.7056635">
        <ele>56.3745</ele>
        <time>2014-07-02T10:36:42Z</time>
      </trkpt>
      <trkpt lat="59.9169249" lon="17.7056319">
        <ele>56.8551</ele>
        <time>2014-07-02T10:36:43Z</time>
      </trkpt>
      <trkpt lat="59.9169277" lon="17.7056032">
        <ele>57.3358</ele>
        <time>2014-07-02T10:36:44Z</time>
      </trkpt>
      <trkpt lat="59.9169272" lon="17.7055749">
        <ele>57.8165</ele>
        <time>2014-07-02T10:36:45Z</time>
      </trkpt>
      <trkpt lat="59.9169301" lon="17.7055495">
        <ele>58.2971</ele>
        <time>2014-07-02T10:36:46Z</time>
      </trkpt>
      <trkpt lat="59.9169288" lon="17.705522">
        <ele>58.7777</ele>
        <time>2014-07-02T10:36:47Z</time>
      </trkpt>
      <trkpt lat="59.9169241" lon="17.7054936">
        <ele>58.2971</ele>
        <time>2014-07-02T10:36:48Z</time>
      </trkpt>
      <trkpt lat="59.9169189" lon="17.7054651">
        <ele>57.8165</ele>
        <time>2014-07-02T10:36:49Z</time>
      </trkpt>
      <trkpt lat="59.9169122" lon="17.7054328">
        <ele>57.8165</ele>
        <time>2014-07-02T10:36:50Z</time>
      </trkpt>
      <trkpt lat="59.916905" lon="17.7054019">
        <ele>57.8165</ele>
        <time>2014-07-02T10:36:51Z</time>
      </trkpt>
      <trkpt lat="59.9168983" lon="17.7053748">
        <ele>57.8165</ele>
        <time>2014-07-02T10:36:52Z</time>
      </trkpt>
      <trkpt lat="59.9168914" lon="17.7053511">
        <ele>58.2971</ele>
        <time>2014-07-02T10:36:53Z</time>
      </trkpt>
      <trkpt lat="59.9168837" lon="17.7053293">
        <ele>58.2971</ele>
        <time>2014-07-02T10:36:54Z</time>
      </trkpt>
      <trkpt lat="59.9168743" lon="17.7053102">
        <ele>58.7777</ele>
        <time>2014-07-02T10:36:55Z</time>
      </trkpt>
      <trkpt lat="59.9168622" lon="17.7052919">
        <ele>58.7777</ele>
        <time>2014-07-02T10:36:56Z</time>
      </trkpt>
      <trkpt lat="59.9168491" lon="17.7052754">
        <ele>58.7777</ele>
        <time>2014-07-02T10:36:57Z</time>
      </trkpt>
      <trkpt lat="59.9168213" lon="17.7052438">
        <ele>57.3358</ele>
        <time>2014-07-02T10:36:58Z</time>
      </trkpt>
      <trkpt lat="59.9167969" lon="17.7052143">
        <ele>55.8938</ele>
        <time>2014-07-02T10:36:59Z</time>
      </trkpt>
      <trkpt lat="59.9167752" lon="17.7051932">
        <ele>54.9324</ele>
        <time>2014-07-02T10:37:00Z</time>
      </trkpt>
      <trkpt lat="59.9167529" lon="17.7051709">
        <ele>53.9712</ele>
        <time>2014-07-02T10:37:01Z</time>
      </trkpt>
      <trkpt lat="59.9167344" lon="17.7051517">
        <ele>53.9712</ele>
        <time>2014-07-02T10:37:02Z</time>
      </trkpt>
      <trkpt lat="59.9167153" lon="17.7051315">
        <ele>53.4905</ele>
        <time>2014-07-02T10:37:03Z</time>
      </trkpt>
      <trkpt lat="59.9167004" lon="17.7051143">
        <ele>53.4905</ele>
        <time>2014-07-02T10:37:04Z</time>
      </trkpt>
      <trkpt lat="59.9166866" lon="17.7050963">
        <ele>53.0098</ele>
        <time>2014-07-02T10:37:05Z</time>
      </trkpt>
      <trkpt lat="59.9166749" lon="17.7050761">
        <ele>53.0098</ele>
        <time>2014-07-02T10:37:06Z</time>
      </trkpt>
      <trkpt lat="59.9166651" lon="17.7050532">
        <ele>53.9712</ele>
        <time>2014-07-02T10:37:07Z</time>
      </trkpt>
      <trkpt lat="59.9166516" lon="17.705033">
        <ele>53.4905</ele>
        <time>2014-07-02T10:37:08Z</time>
      </trkpt>
      <trkpt lat="59.916638" lon="17.705019">
        <ele>53.4905</ele>
        <time>2014-07-02T10:37:09Z</time>
      </trkpt>
      <trkpt lat="59.9166261" lon="17.7050103">
        <ele>53.9712</ele>
        <time>2014-07-02T10:37:10Z</time>
      </trkpt>
      <trkpt lat="59.9166127" lon="17.7050004">
        <ele>53.9712</ele>
        <time>2014-07-02T10:37:11Z</time>
      </trkpt>
      <trkpt lat="59.9165976" lon="17.7049847">
        <ele>53.9712</ele>
        <time>2014-07-02T10:37:12Z</time>
      </trkpt>
      <trkpt lat="59.9165818" lon="17.7049621">
        <ele>53.4905</ele>
        <time>2014-07-02T10:37:13Z</time>
      </trkpt>
      <trkpt lat="59.9165666" lon="17.7049508">
        <ele>53.4905</ele>
        <time>2014-07-02T10:37:14Z</time>
      </trkpt>
      <trkpt lat="59.9165498" lon="17.7049423">
        <ele>53.0098</ele>
        <time>2014-07-02T10:37:15Z</time>
      </trkpt>
      <trkpt lat="59.9165335" lon="17.7049368">
        <ele>52.5292</ele>
        <time>2014-07-02T10:37:16Z</time>
      </trkpt>
      <trkpt lat="59.9165126" lon="17.7049334">
        <ele>51.5679</ele>
        <time>2014-07-02T10:37:17Z</time>
      </trkpt>
      <trkpt lat="59.9164947" lon="17.7049268">
        <ele>51.5679</ele>
        <time>2014-07-02T10:37:18Z</time>
      </trkpt>
      <trkpt lat="59.9164801" lon="17.7049161">
        <ele>51.5679</ele>
        <time>2014-07-02T10:37:19Z</time>
      </trkpt>
      <trkpt lat="59.916466" lon="17.7049042">
        <ele>51.5679</ele>
        <time>2014-07-02T10:37:20Z</time>
      </trkpt>
      <trkpt lat="59.916452" lon="17.7048969">
        <ele>51.0872</ele>
        <time>2014-07-02T10:37:21Z</time>
      </trkpt>
      <trkpt lat="59.9164323" lon="17.7048953">
        <ele>51.0872</ele>
        <time>2014-07-02T10:37:22Z</time>
      </trkpt>
      <trkpt lat="59.916411" lon="17.7048874">
        <ele>51.0872</ele>
        <time>2014-07-02T10:37:23Z</time>
      </trkpt>
      <trkpt lat="59.9163962" lon="17.7048726">
        <ele>50.6066</ele>
        <time>2014-07-02T10:37:24Z</time>
      </trkpt>
      <trkpt lat="59.9163838" lon="17.704852">
        <ele>50.6066</ele>
        <time>2014-07-02T10:37:25Z</time>
      </trkpt>
      <trkpt lat="59.9163711" lon="17.7048269">
        <ele>50.126</ele>
        <time>2014-07-02T10:37:26Z</time>
      </trkpt>
      <trkpt lat="59.9163618" lon="17.7048024">
        <ele>50.6066</ele>
        <time>2014-07-02T10:37:27Z</time>
      </trkpt>
      <trkpt lat="59.9163527" lon="17.7047782">
        <ele>50.6066</ele>
        <time>2014-07-02T10:37:28Z</time>
      </trkpt>
      <trkpt lat="59.9163456" lon="17.7047522">
        <ele>50.6066</ele>
        <time>2014-07-02T10:37:29Z</time>
      </trkpt>
      <trkpt lat="59.9163406" lon="17.7047274">
        <ele>50.126</ele>
        <time>2014-07-02T10:37:30Z</time>
      </trkpt>
      <trkpt lat="59.9163347" lon="17.7046994">
        <ele>49.6453</ele>
        <time>2014-07-02T10:37:31Z</time>
      </trkpt>
      <trkpt lat="59.9163315" lon="17.7046715">
        <ele>50.126</ele>
        <time>2014-07-02T10:37:32Z</time>
      </trkpt>
      <trkpt lat="59.9163278" lon="17.7046434">
        <ele>49.6453</ele>
        <time>2014-07-02T10:37:33Z</time>
      </trkpt>
      <trkpt lat="59.9163241" lon="17.7046166">
        <ele>49.6453</ele>
        <time>2014-07-02T10:37:34Z</time>
      </trkpt>
      <trkpt lat="59.9163216" lon="17.704591">
        <ele>49.6453</ele>
        <time>2014-07-02T10:37:35Z</time>
      </trkpt>
      <trkpt lat="59.9163188" lon="17.7045674">
        <ele>49.1646</ele>
        <time>2014-07-02T10:37:36Z</time>
      </trkpt>
      <trkpt lat="59.9163137" lon="17.7045415">
        <ele>49.6453</ele>
        <time>2014-07-02T10:37:37Z</time>
      </trkpt>
      <trkpt lat="59.9163061" lon="17.7045119">
        <ele>49.6453</ele>
        <time>2014-07-02T10:37:38Z</time>
      </trkpt>
      <trkpt lat="59.9163008" lon="17.7044851">
        <ele>49.6453</ele>
        <time>2014-07-02T10:37:39Z</time>
      </trkpt>
      <trkpt lat="59.916295" lon="17.7044597">
        <ele>50.126</ele>
        <time>2014-07-02T10:37:40Z</time>
      </trkpt>
      <trkpt lat="59.9162878" lon="17.7044336">
        <ele>50.126</ele>
        <time>2014-07-02T10:37:41Z</time>
      </trkpt>
      <trkpt lat="59.9162807" lon="17.7044068">
        <ele>50.126</ele>
        <time>2014-07-02T10:37:42Z</time>
      </trkpt>
      <trkpt lat="59.9162729" lon="17.7043798">
        <ele>49.6453</ele>
        <time>2014-07-02T10:37:43Z</time>
      </trkpt>
      <trkpt lat="59.916264" lon="17.7043579">
        <ele>49.6453</ele>
        <time>2014-07-02T10:37:44Z</time>
      </trkpt>
      <trkpt lat="59.9162537" lon="17.7043349">
        <ele>49.6453</ele>
        <time>2014-07-02T10:37:45Z</time>
      </trkpt>
      <trkpt lat="59.9162432" lon="17.7043154">
        <ele>49.6453</ele>
        <time>2014-07-02T10:37:46Z</time>
      </trkpt>
      <trkpt lat="59.9162272" lon="17.7042943">
        <ele>50.126</ele>
        <time>2014-07-02T10:37:47Z</time>
      </trkpt>
      <trkpt lat="59.9162103" lon="17.7042726">
        <ele>49.6453</ele>
        <time>2014-07-02T10:37:48Z</time>
      </trkpt>
      <trkpt lat="59.9161968" lon="17.7042556">
        <ele>49.6453</ele>
        <time>2014-07-02T10:37:49Z</time>
      </trkpt>
      <trkpt lat="59.9161818" lon="17.7042379">
        <ele>49.6453</ele>
        <time>2014-07-02T10:37:50Z</time>
      </trkpt>
      <trkpt lat="59.9161662" lon="17.7042233">
        <ele>49.6453</ele>
        <time>2014-07-02T10:37:51Z</time>
      </trkpt>
      <trkpt lat="59.916147" lon="17.7042068">
        <ele>49.1646</ele>
        <time>2014-07-02T10:37:52Z</time>
      </trkpt>
      <trkpt lat="59.9161274" lon="17.7041926">
        <ele>48.2034</ele>
        <time>2014-07-02T10:37:53Z</time>
      </trkpt>
      <trkpt lat="59.9161095" lon="17.7041807">
        <ele>47.2418</ele>
        <time>2014-07-02T10:37:54Z</time>
      </trkpt>
      <trkpt lat="59.9160922" lon="17.7041674">
        <ele>46.7612</ele>
        <time>2014-07-02T10:37:55Z</time>
      </trkpt>
      <trkpt lat="59.916076" lon="17.7041533">
        <ele>46.2806</ele>
        <time>2014-07-02T10:37:56Z</time>
      </trkpt>
      <trkpt lat="59.9160609" lon="17.7041411">
        <ele>46.2806</ele>
        <time>2014-07-02T10:37:57Z</time>
      </trkpt>
      <trkpt lat="59.9160451" lon="17.7041303">
        <ele>45.7999</ele>
        <time>2014-07-02T10:37:58Z</time>
      </trkpt>
      <trkpt lat="59.9160279" lon="17.7041202">
        <ele>45.3192</ele>
        <time>2014-07-02T10:37:59Z</time>
      </trkpt>
      <trkpt lat="59.9160127" lon="17.7041097">
        <ele>44.8386</ele>
        <time>2014-07-02T10:38:00Z</time>
      </trkpt>
      <trkpt lat="59.9159984" lon="17.7040989">
        <ele>44.358</ele>
        <time>2014-07-02T10:38:01Z</time>
      </trkpt>
      <trkpt lat="59.9159844" lon="17.7040938">
        <ele>44.358</ele>
        <time>2014-07-02T10:38:02Z</time>
      </trkpt>
      <trkpt lat="59.9159694" lon="17.7040939">
        <ele>44.8386</ele>
        <time>2014-07-02T10:38:03Z</time>
      </trkpt>
      <trkpt lat="59.9159524" lon="17.7040971">
        <ele>44.358</ele>
        <time>2014-07-02T10:38:04Z</time>
      </trkpt>
      <trkpt lat="59.9159358" lon="17.7041072">
        <ele>44.358</ele>
        <time>2014-07-02T10:38:05Z</time>
      </trkpt>
      <trkpt lat="59.9159177" lon="17.7041172">
        <ele>43.3966</ele>
        <time>2014-07-02T10:38:06Z</time>
      </trkpt>
      <trkpt lat="59.9159015" lon="17.7041254">
        <ele>42.4354</ele>
        <time>2014-07-02T10:38:07Z</time>
      </trkpt>
      <trkpt lat="59.9158847" lon="17.7041326">
        <ele>41.9547</ele>
        <time>2014-07-02T10:38:08Z</time>
      </trkpt>
      <trkpt lat="59.915869" lon="17.7041395">
        <ele>41.474</ele>
        <time>2014-07-02T10:38:09Z</time>
      </trkpt>
      <trkpt lat="59.9158536" lon="17.7041411">
        <ele>40.5128</ele>
        <time>2014-07-02T10:38:10Z</time>
      </trkpt>
      <trkpt lat="59.9158392" lon="17.704154">
        <ele>39.5513</ele>
        <time>2014-07-02T10:38:11Z</time>
      </trkpt>
      <trkpt lat="59.9158249" lon="17.7041587">
        <ele>39.0707</ele>
        <time>2014-07-02T10:38:12Z</time>
      </trkpt>
      <trkpt lat="59.9158093" lon="17.7041637">
        <ele>38.1094</ele>
        <time>2014-07-02T10:38:13Z</time>
      </trkpt>
      <trkpt lat="59.9157891" lon="17.7041694">
        <ele>37.1481</ele>
        <time>2014-07-02T10:38:14Z</time>
      </trkpt>
      <trkpt lat="59.915771" lon="17.7041742">
        <ele>36.6675</ele>
        <time>2014-07-02T10:38:15Z</time>
      </trkpt>
      <trkpt lat="59.9157554" lon="17.7041874">
        <ele>35.7061</ele>
        <time>2014-07-02T10:38:16Z</time>
      </trkpt>
      <trkpt lat="59.9157415" lon="17.7042037">
        <ele>35.2255</ele>
        <time>2014-07-02T10:38:17Z</time>
      </trkpt>
      <trkpt lat="59.9157291" lon="17.7042218">
        <ele>34.7449</ele>
        <time>2014-07-02T10:38:18Z</time>
      </trkpt>
      <trkpt lat="59.915717" lon="17.7042394">
        <ele>34.7449</ele>
        <time>2014-07-02T10:38:19Z</time>
      </trkpt>
      <trkpt lat="59.9157057" lon="17.7042612">
        <ele>34.2642</ele>
        <time>2014-07-02T10:38:20Z</time>
      </trkpt>
      <trkpt lat="59.915697" lon="17.7042871">
        <ele>34.2642</ele>
        <time>2014-07-02T10:38:21Z</time>
      </trkpt>
      <trkpt lat="59.9156891" lon="17.7043167">
        <ele>34.2642</ele>
        <time>2014-07-02T10:38:22Z</time>
      </trkpt>
      <trkpt lat="59.9156822" lon="17.7043503">
        <ele>34.7449</ele>
        <time>2014-07-02T10:38:23Z</time>
      </trkpt>
      <trkpt lat="59.9156755" lon="17.7043824">
        <ele>35.2255</ele>
        <time>2014-07-02T10:38:24Z</time>
      </trkpt>
      <trkpt lat="59.9156689" lon="17.7044141">
        <ele>36.1868</ele>
        <time>2014-07-02T10:38:25Z</time>
      </trkpt>
      <trkpt lat="59.9156616" lon="17.7044461">
        <ele>36.6675</ele>
        <time>2014-07-02T10:38:26Z</time>
      </trkpt>
      <trkpt lat="59.915655" lon="17.7044724">
        <ele>36.6675</ele>
        <time>2014-07-02T10:38:27Z</time>
      </trkpt>
      <trkpt lat="59.9156506" lon="17.7045025">
        <ele>37.1481</ele>
        <time>2014-07-02T10:38:28Z</time>
      </trkpt>
      <trkpt lat="59.9156447" lon="17.7045372">
        <ele>37.6287</ele>
        <time>2014-07-02T10:38:29Z</time>
      </trkpt>
      <trkpt lat="59.9156368" lon="17.7045592">
        <ele>37.6287</ele>
        <time>2014-07-02T10:38:30Z</time>
      </trkpt>
      <trkpt lat="59.915628" lon="17.7045799">
        <ele>38.1094</ele>
        <time>2014-07-02T10:38:31Z</time>
      </trkpt>
      <trkpt lat="59.9156208" lon="17.7046062">
        <ele>38.5901</ele>
        <time>2014-07-02T10:38:32Z</time>
      </trkpt>
      <trkpt lat="59.9156151" lon="17.7046311">
        <ele>38.5901</ele>
        <time>2014-07-02T10:38:33Z</time>
      </trkpt>
      <trkpt lat="59.9156086" lon="17.704655">
        <ele>39.0707</ele>
        <time>2014-07-02T10:38:34Z</time>
      </trkpt>
      <trkpt lat="59.9156009" lon="17.7046793">
        <ele>39.5513</ele>
        <time>2014-07-02T10:38:35Z</time>
      </trkpt>
      <trkpt lat="59.9155913" lon="17.7047">
        <ele>40.5128</ele>
        <time>2014-07-02T10:38:36Z</time>
      </trkpt>
      <trkpt lat="59.9155835" lon="17.7047176">
        <ele>41.474</ele>
        <time>2014-07-02T10:38:37Z</time>
      </trkpt>
      <trkpt lat="59.9155748" lon="17.7047348">
        <ele>41.474</ele>
        <time>2014-07-02T10:38:38Z</time>
      </trkpt>
      <trkpt lat="59.9155648" lon="17.7047538">
        <ele>41.9547</ele>
        <time>2014-07-02T10:38:39Z</time>
      </trkpt>
      <trkpt lat="59.9155553" lon="17.7047738">
        <ele>41.9547</ele>
        <time>2014-07-02T10:38:40Z</time>
      </trkpt>
      <trkpt lat="59.9155437" lon="17.7048015">
        <ele>42.916</ele>
        <time>2014-07-02T10:38:41Z</time>
      </trkpt>
      <trkpt lat="59.9155326" lon="17.7048243">
        <ele>43.8773</ele>
        <time>2014-07-02T10:38:42Z</time>
      </trkpt>
      <trkpt lat="59.9155223" lon="17.7048436">
        <ele>43.8773</ele>
        <time>2014-07-02T10:38:43Z</time>
      </trkpt>
      <trkpt lat="59.9155143" lon="17.7048626">
        <ele>44.358</ele>
        <time>2014-07-02T10:38:44Z</time>
      </trkpt>
      <trkpt lat="59.9155069" lon="17.7048848">
        <ele>44.8386</ele>
        <time>2014-07-02T10:38:45Z</time>
      </trkpt>
      <trkpt lat="59.9154983" lon="17.7049103">
        <ele>44.358</ele>
        <time>2014-07-02T10:38:46Z</time>
      </trkpt>
      <trkpt lat="59.9154902" lon="17.7049284">
        <ele>44.358</ele>
        <time>2014-07-02T10:38:47Z</time>
      </trkpt>
      <trkpt lat="59.9154809" lon="17.7049506">
        <ele>43.8773</ele>
        <time>2014-07-02T10:38:48Z</time>
      </trkpt>
      <trkpt lat="59.915471" lon="17.7049748">
        <ele>43.8773</ele>
        <time>2014-07-02T10:38:49Z</time>
      </trkpt>
      <trkpt lat="59.9154629" lon="17.7049945">
        <ele>44.8386</ele>
        <time>2014-07-02T10:38:50Z</time>
      </trkpt>
      <trkpt lat="59.9154548" lon="17.705018">
        <ele>44.358</ele>
        <time>2014-07-02T10:38:51Z</time>
      </trkpt>
      <trkpt lat="59.915445" lon="17.7050413">
        <ele>44.8386</ele>
        <time>2014-07-02T10:38:52Z</time>
      </trkpt>
      <trkpt lat="59.9154354" lon="17.7050615">
        <ele>44.8386</ele>
        <time>2014-07-02T10:38:53Z</time>
      </trkpt>
      <trkpt lat="59.9154264" lon="17.7050828">
        <ele>44.358</ele>
        <time>2014-07-02T10:38:54Z</time>
      </trkpt>
      <trkpt lat="59.9154177" lon="17.7051028">
        <ele>44.8386</ele>
        <time>2014-07-02T10:38:55Z</time>
      </trkpt>
      <trkpt lat="59.9154079" lon="17.7051266">
        <ele>44.8386</ele>
        <time>2014-07-02T10:38:56Z</time>
      </trkpt>
      <trkpt lat="59.9153988" lon="17.7051537">
        <ele>44.358</ele>
        <time>2014-07-02T10:38:57Z</time>
      </trkpt>
      <trkpt lat="59.9153911" lon="17.7051771">
        <ele>44.358</ele>
        <time>2014-07-02T10:38:58Z</time>
      </trkpt>
      <trkpt lat="59.9153834" lon="17.7051986">
        <ele>44.358</ele>
        <time>2014-07-02T10:38:59Z</time>
      </trkpt>
      <trkpt lat="59.9153755" lon="17.7052211">
        <ele>44.358</ele>
        <time>2014-07-02T10:39:00Z</time>
      </trkpt>
      <trkpt lat="59.9153689" lon="17.7052427">
        <ele>43.8773</ele>
        <time>2014-07-02T10:39:01Z</time>
      </trkpt>
      <trkpt lat="59.9153638" lon="17.705262">
        <ele>43.8773</ele>
        <time>2014-07-02T10:39:02Z</time>
      </trkpt>
      <trkpt lat="59.9153565" lon="17.7052828">
        <ele>43.8773</ele>
        <time>2014-07-02T10:39:03Z</time>
      </trkpt>
      <trkpt lat="59.9153465" lon="17.7053035">
        <ele>43.8773</ele>
        <time>2014-07-02T10:39:04Z</time>
      </trkpt>
      <trkpt lat="59.9153353" lon="17.7053154">
        <ele>43.8773</ele>
        <time>2014-07-02T10:39:05Z</time>
      </trkpt>
      <trkpt lat="59.9153263" lon="17.7053319">
        <ele>43.8773</ele>
        <time>2014-07-02T10:39:06Z</time>
      </trkpt>
      <trkpt lat="59.9153191" lon="17.7053572">
        <ele>43.8773</ele>
        <time>2014-07-02T10:39:07Z</time>
      </trkpt>
      <trkpt lat="59.9153115" lon="17.7053858">
        <ele>43.8773</ele>
        <time>2014-07-02T10:39:08Z</time>
      </trkpt>
      <trkpt lat="59.9153036" lon="17.705417">
        <ele>43.8773</ele>
        <time>2014-07-02T10:39:09Z</time>
      </trkpt>
      <trkpt lat="59.9152961" lon="17.7054571">
        <ele>44.358</ele>
        <time>2014-07-02T10:39:10Z</time>
      </trkpt>
      <trkpt lat="59.915289" lon="17.7054962">
        <ele>44.358</ele>
        <time>2014-07-02T10:39:11Z</time>
      </trkpt>
      <trkpt lat="59.9152819" lon="17.7055359">
        <ele>44.358</ele>
        <time>2014-07-02T10:39:12Z</time>
      </trkpt>
      <trkpt lat="59.9152742" lon="17.7055669">
        <ele>44.8386</ele>
        <time>2014-07-02T10:39:13Z</time>
      </trkpt>
      <trkpt lat="59.9152648" lon="17.7055956">
        <ele>44.8386</ele>
        <time>2014-07-02T10:39:14Z</time>
      </trkpt>
      <trkpt lat="59.9152561" lon="17.7056205">
        <ele>45.3192</ele>
        <time>2014-07-02T10:39:15Z</time>
      </trkpt>
      <trkpt lat="59.9152491" lon="17.7056436">
        <ele>46.2806</ele>
        <time>2014-07-02T10:39:16Z</time>
      </trkpt>
      <trkpt lat="59.9152431" lon="17.7056665">
        <ele>46.7612</ele>
        <time>2014-07-02T10:39:17Z</time>
      </trkpt>
      <trkpt lat="59.9152355" lon="17.7056845">
        <ele>47.2418</ele>
        <time>2014-07-02T10:39:18Z</time>
      </trkpt>
      <trkpt lat="59.915225" lon="17.7057063">
        <ele>47.7225</ele>
        <time>2014-07-02T10:39:19Z</time>
      </trkpt>
      <trkpt lat="59.9152137" lon="17.7057297">
        <ele>48.2034</ele>
        <time>2014-07-02T10:39:20Z</time>
      </trkpt>
      <trkpt lat="59.9152013" lon="17.7057473">
        <ele>47.2418</ele>
        <time>2014-07-02T10:39:21Z</time>
      </trkpt>
      <trkpt lat="59.9151891" lon="17.7057599">
        <ele>46.7612</ele>
        <time>2014-07-02T10:39:22Z</time>
      </trkpt>
      <trkpt lat="59.9151768" lon="17.7057805">
        <ele>45.7999</ele>
        <time>2014-07-02T10:39:23Z</time>
      </trkpt>
      <trkpt lat="59.9151621" lon="17.7058018">
        <ele>44.8386</ele>
        <time>2014-07-02T10:39:24Z</time>
      </trkpt>
      <trkpt lat="59.9151437" lon="17.7058214">
        <ele>43.8773</ele>
        <time>2014-07-02T10:39:25Z</time>
      </trkpt>
      <trkpt lat="59.9151281" lon="17.7058389">
        <ele>43.8773</ele>
        <time>2014-07-02T10:39:26Z</time>
      </trkpt>
      <trkpt lat="59.9151148" lon="17.705853">
        <ele>42.916</ele>
        <time>2014-07-02T10:39:27Z</time>
      </trkpt>
      <trkpt lat="59.915103" lon="17.7058607">
        <ele>43.3966</ele>
        <time>2014-07-02T10:39:28Z</time>
      </trkpt>
      <trkpt lat="59.9150891" lon="17.7058632">
        <ele>42.916</ele>
        <time>2014-07-02T10:39:29Z</time>
      </trkpt>
      <trkpt lat="59.9150736" lon="17.7058696">
        <ele>42.4354</ele>
        <time>2014-07-02T10:39:30Z</time>
      </trkpt>
      <trkpt lat="59.9150597" lon="17.7058708">
        <ele>41.9547</ele>
        <time>2014-07-02T10:39:31Z</time>
      </trkpt>
      <trkpt lat="59.9150472" lon="17.7058658">
        <ele>41.474</ele>
        <time>2014-07-02T10:39:32Z</time>
      </trkpt>
      <trkpt lat="59.915034" lon="17.7058644">
        <ele>40.9934</ele>
        <time>2014-07-02T10:39:33Z</time>
      </trkpt>
      <trkpt lat="59.9150204" lon="17.7058675">
        <ele>40.5128</ele>
        <time>2014-07-02T10:39:34Z</time>
      </trkpt>
      <trkpt lat="59.9150074" lon="17.7058686">
        <ele>40.5128</ele>
        <time>2014-07-02T10:39:35Z</time>
      </trkpt>
      <trkpt lat="59.9149922" lon="17.705864">
        <ele>40.0321</ele>
        <time>2014-07-02T10:39:36Z</time>
      </trkpt>
      <trkpt lat="59.9149768" lon="17.7058644">
        <ele>39.5513</ele>
        <time>2014-07-02T10:39:37Z</time>
      </trkpt>
      <trkpt lat="59.9149606" lon="17.7058627">
        <ele>38.5901</ele>
        <time>2014-07-02T10:39:38Z</time>
      </trkpt>
      <trkpt lat="59.9149478" lon="17.7058592">
        <ele>38.1094</ele>
        <time>2014-07-02T10:39:39Z</time>
      </trkpt>
      <trkpt lat="59.9149329" lon="17.7058567">
        <ele>38.1094</ele>
        <time>2014-07-02T10:39:40Z</time>
      </trkpt>
      <trkpt lat="59.9149174" lon="17.7058492">
        <ele>38.1094</ele>
        <time>2014-07-02T10:39:41Z</time>
      </trkpt>
      <trkpt lat="59.9149039" lon="17.7058423">
        <ele>38.1094</ele>
        <time>2014-07-02T10:39:42Z</time>
      </trkpt>
      <trkpt lat="59.9148897" lon="17.7058387">
        <ele>37.6287</ele>
        <time>2014-07-02T10:39:43Z</time>
      </trkpt>
      <trkpt lat="59.9148774" lon="17.7058368">
        <ele>37.1481</ele>
        <time>2014-07-02T10:39:44Z</time>
      </trkpt>
      <trkpt lat="59.9148648" lon="17.7058344">
        <ele>36.6675</ele>
        <time>2014-07-02T10:39:45Z</time>
      </trkpt>
      <trkpt lat="59.9148515" lon="17.7058304">
        <ele>36.6675</ele>
        <time>2014-07-02T10:39:46Z</time>
      </trkpt>
      <trkpt lat="59.9148381" lon="17.7058261">
        <ele>36.1868</ele>
        <time>2014-07-02T10:39:47Z</time>
      </trkpt>
      <trkpt lat="59.9148254" lon="17.7058159">
        <ele>36.6675</ele>
        <time>2014-07-02T10:39:48Z</time>
      </trkpt>
      <trkpt lat="59.9148116" lon="17.7058013">
        <ele>36.1868</ele>
        <time>2014-07-02T10:39:49Z</time>
      </trkpt>
      <trkpt lat="59.9147976" lon="17.7057948">
        <ele>35.7061</ele>
        <time>2014-07-02T10:39:50Z</time>
      </trkpt>
      <trkpt lat="59.9147827" lon="17.7057857">
        <ele>35.2255</ele>
        <time>2014-07-02T10:39:51Z</time>
      </trkpt>
      <trkpt lat="59.914767" lon="17.705779">
        <ele>35.2255</ele>
        <time>2014-07-02T10:39:52Z</time>
      </trkpt>
      <trkpt lat="59.9147496" lon="17.7057769">
        <ele>35.2255</ele>
        <time>2014-07-02T10:39:53Z</time>
      </trkpt>
      <trkpt lat="59.914729" lon="17.7057676">
        <ele>35.2255</ele>
        <time>2014-07-02T10:39:54Z</time>
      </trkpt>
      <trkpt lat="59.9147117" lon="17.7057558">
        <ele>34.7449</ele>
        <time>2014-07-02T10:39:55Z</time>
      </trkpt>
      <trkpt lat="59.9146967" lon="17.7057454">
        <ele>33.7834</ele>
        <time>2014-07-02T10:39:56Z</time>
      </trkpt>
      <trkpt lat="59.9146831" lon="17.7057387">
        <ele>33.7834</ele>
        <time>2014-07-02T10:39:57Z</time>
      </trkpt>
      <trkpt lat="59.9146674" lon="17.7057308">
        <ele>34.2642</ele>
        <time>2014-07-02T10:39:58Z</time>
      </trkpt>
      <trkpt lat="59.9146524" lon="17.705723">
        <ele>34.2642</ele>
        <time>2014-07-02T10:39:59Z</time>
      </trkpt>
      <trkpt lat="59.9146368" lon="17.7057157">
        <ele>33.7834</ele>
        <time>2014-07-02T10:40:00Z</time>
      </trkpt>
      <trkpt lat="59.9146247" lon="17.7057145">
        <ele>34.2642</ele>
        <time>2014-07-02T10:40:01Z</time>
      </trkpt>
      <trkpt lat="59.9146144" lon="17.7057111">
        <ele>35.2255</ele>
        <time>2014-07-02T10:40:02Z</time>
      </trkpt>
      <trkpt lat="59.9146043" lon="17.7056974">
        <ele>34.7449</ele>
        <time>2014-07-02T10:40:03Z</time>
      </trkpt>
      <trkpt lat="59.9145928" lon="17.7056889">
        <ele>34.2642</ele>
        <time>2014-07-02T10:40:04Z</time>
      </trkpt>
      <trkpt lat="59.9145814" lon="17.7056824">
        <ele>34.2642</ele>
        <time>2014-07-02T10:40:05Z</time>
      </trkpt>
      <trkpt lat="59.9145726" lon="17.7056742">
        <ele>34.7449</ele>
        <time>2014-07-02T10:40:06Z</time>
      </trkpt>
      <trkpt lat="59.9145614" lon="17.7056721">
        <ele>35.2255</ele>
        <time>2014-07-02T10:40:07Z</time>
      </trkpt>
      <trkpt lat="59.9145484" lon="17.7056764">
        <ele>34.2642</ele>
        <time>2014-07-02T10:40:08Z</time>
      </trkpt>
      <trkpt lat="59.9145376" lon="17.7056741">
        <ele>34.2642</ele>
        <time>2014-07-02T10:40:09Z</time>
      </trkpt>
      <trkpt lat="59.9145279" lon="17.7056666">
        <ele>34.7449</ele>
        <time>2014-07-02T10:40:10Z</time>
      </trkpt>
      <trkpt lat="59.9145128" lon="17.7056548">
        <ele>33.7834</ele>
        <time>2014-07-02T10:40:11Z</time>
      </trkpt>
      <trkpt lat="59.9144982" lon="17.7056469">
        <ele>33.7834</ele>
        <time>2014-07-02T10:40:12Z</time>
      </trkpt>
      <trkpt lat="59.9144861" lon="17.705633">
        <ele>33.3029</ele>
        <time>2014-07-02T10:40:13Z</time>
      </trkpt>
      <trkpt lat="59.9144749" lon="17.7056241">
        <ele>33.3029</ele>
        <time>2014-07-02T10:40:14Z</time>
      </trkpt>
      <trkpt lat="59.914462" lon="17.7056106">
        <ele>32.8223</ele>
        <time>2014-07-02T10:40:15Z</time>
      </trkpt>
      <trkpt lat="59.9144494" lon="17.7056018">
        <ele>33.7834</ele>
        <time>2014-07-02T10:40:16Z</time>
      </trkpt>
      <trkpt lat="59.9144303" lon="17.7055902">
        <ele>32.8223</ele>
        <time>2014-07-02T10:40:17Z</time>
      </trkpt>
      <trkpt lat="59.9144138" lon="17.7055811">
        <ele>31.3801</ele>
        <time>2014-07-02T10:40:18Z</time>
      </trkpt>
      <trkpt lat="59.9144004" lon="17.7055718">
        <ele>30.8995</ele>
        <time>2014-07-02T10:40:19Z</time>
      </trkpt>
      <trkpt lat="59.9143883" lon="17.7055599">
        <ele>29.9381</ele>
        <time>2014-07-02T10:40:20Z</time>
      </trkpt>
      <trkpt lat="59.9143712" lon="17.7055535">
        <ele>28.9769</ele>
        <time>2014-07-02T10:40:21Z</time>
      </trkpt>
      <trkpt lat="59.9143553" lon="17.7055531">
        <ele>28.0155</ele>
        <time>2014-07-02T10:40:22Z</time>
      </trkpt>
      <trkpt lat="59.9143434" lon="17.7055486">
        <ele>27.0543</ele>
        <time>2014-07-02T10:40:23Z</time>
      </trkpt>
      <trkpt lat="59.9143324" lon="17.7055387">
        <ele>26.5736</ele>
        <time>2014-07-02T10:40:24Z</time>
      </trkpt>
      <trkpt lat="59.9143203" lon="17.7055314">
        <ele>26.0929</ele>
        <time>2014-07-02T10:40:25Z</time>
      </trkpt>
      <trkpt lat="59.9143091" lon="17.705524">
        <ele>25.1317</ele>
        <time>2014-07-02T10:40:26Z</time>
      </trkpt>
      <trkpt lat="59.9142962" lon="17.7055206">
        <ele>24.651</ele>
        <time>2014-07-02T10:40:27Z</time>
      </trkpt>
      <trkpt lat="59.9142854" lon="17.7055195">
        <ele>25.1317</ele>
        <time>2014-07-02T10:40:28Z</time>
      </trkpt>
      <trkpt lat="59.9142687" lon="17.7055132">
        <ele>25.1317</ele>
        <time>2014-07-02T10:40:29Z</time>
      </trkpt>
      <trkpt lat="59.9142514" lon="17.7055071">
        <ele>25.1317</ele>
        <time>2014-07-02T10:40:30Z</time>
      </trkpt>
      <trkpt lat="59.9142336" lon="17.7055019">
        <ele>26.0929</ele>
        <time>2014-07-02T10:40:31Z</time>
      </trkpt>
      <trkpt lat="59.91422" lon="17.7054862">
        <ele>25.6123</ele>
        <time>2014-07-02T10:40:32Z</time>
      </trkpt>
      <trkpt lat="59.914206" lon="17.7054674">
        <ele>24.651</ele>
        <time>2014-07-02T10:40:33Z</time>
      </trkpt>
      <trkpt lat="59.9141906" lon="17.7054327">
        <ele>23.6896</ele>
        <time>2014-07-02T10:40:34Z</time>
      </trkpt>
      <trkpt lat="59.9141711" lon="17.7054029">
        <ele>22.7283</ele>
        <time>2014-07-02T10:40:35Z</time>
      </trkpt>
      <trkpt lat="59.9141588" lon="17.7053846">
        <ele>22.7283</ele>
        <time>2014-07-02T10:40:36Z</time>
      </trkpt>
      <trkpt lat="59.9141449" lon="17.7053609">
        <ele>22.2476</ele>
        <time>2014-07-02T10:40:37Z</time>
      </trkpt>
      <trkpt lat="59.9141346" lon="17.7053414">
        <ele>22.2476</ele>
        <time>2014-07-02T10:40:38Z</time>
      </trkpt>
      <trkpt lat="59.9141219" lon="17.7053226">
        <ele>21.767</ele>
        <time>2014-07-02T10:40:39Z</time>
      </trkpt>
      <trkpt lat="59.9141157" lon="17.7053121">
        <ele>21.2864</ele>
        <time>2014-07-02T10:40:40Z</time>
      </trkpt>
      <trkpt lat="59.91411" lon="17.705292">
        <ele>21.2864</ele>
        <time>2014-07-02T10:40:41Z</time>
      </trkpt>
      <trkpt lat="59.9141031" lon="17.7052739">
        <ele>20.8057</ele>
        <time>2014-07-02T10:40:42Z</time>
      </trkpt>
      <trkpt lat="59.9140905" lon="17.7052603">
        <ele>21.767</ele>
        <time>2014-07-02T10:40:43Z</time>
      </trkpt>
      <trkpt lat="59.9140795" lon="17.705245">
        <ele>23.209</ele>
        <time>2014-07-02T10:40:44Z</time>
      </trkpt>
      <trkpt lat="59.9140652" lon="17.7052215">
        <ele>22.7283</ele>
        <time>2014-07-02T10:40:45Z</time>
      </trkpt>
      <trkpt lat="59.9140536" lon="17.7051988">
        <ele>22.7283</ele>
        <time>2014-07-02T10:40:46Z</time>
      </trkpt>
      <trkpt lat="59.9140463" lon="17.7051865">
        <ele>23.209</ele>
        <time>2014-07-02T10:40:47Z</time>
      </trkpt>
      <trkpt lat="59.9140383" lon="17.7051657">
        <ele>23.209</ele>
        <time>2014-07-02T10:40:48Z</time>
      </trkpt>
      <trkpt lat="59.9140318" lon="17.7051428">
        <ele>23.209</ele>
        <time>2014-07-02T10:40:49Z</time>
      </trkpt>
      <trkpt lat="59.9140236" lon="17.7051175">
        <ele>23.6896</ele>
        <time>2014-07-02T10:40:50Z</time>
      </trkpt>
      <trkpt lat="59.914018" lon="17.7051019">
        <ele>24.651</ele>
        <time>2014-07-02T10:40:51Z</time>
      </trkpt>
      <trkpt lat="59.9140122" lon="17.705087">
        <ele>25.6123</ele>
        <time>2014-07-02T10:40:52Z</time>
      </trkpt>
      <trkpt lat="59.9139973" lon="17.7050579">
        <ele>25.6123</ele>
        <time>2014-07-02T10:40:53Z</time>
      </trkpt>
      <trkpt lat="59.9139889" lon="17.7050345">
        <ele>26.5736</ele>
        <time>2014-07-02T10:40:54Z</time>
      </trkpt>
      <trkpt lat="59.9139755" lon="17.7050071">
        <ele>26.5736</ele>
        <time>2014-07-02T10:40:55Z</time>
      </trkpt>
      <trkpt lat="59.913965" lon="17.7049876">
        <ele>26.5736</ele>
        <time>2014-07-02T10:40:56Z</time>
      </trkpt>
      <trkpt lat="59.9139468" lon="17.7049697">
        <ele>26.5736</ele>
        <time>2014-07-02T10:40:57Z</time>
      </trkpt>
      <trkpt lat="59.9139283" lon="17.7049526">
        <ele>27.0543</ele>
        <time>2014-07-02T10:40:58Z</time>
      </trkpt>
      <trkpt lat="59.9139171" lon="17.7049415">
        <ele>28.0155</ele>
        <time>2014-07-02T10:40:59Z</time>
      </trkpt>
      <trkpt lat="59.9139035" lon="17.7049288">
        <ele>28.0155</ele>
        <time>2014-07-02T10:41:00Z</time>
      </trkpt>
      <trkpt lat="59.9138879" lon="17.7049112">
        <ele>28.4962</ele>
        <time>2014-07-02T10:41:01Z</time>
      </trkpt>
      <trkpt lat="59.913872" lon="17.704898">
        <ele>28.9769</ele>
        <time>2014-07-02T10:41:02Z</time>
      </trkpt>
      <trkpt lat="59.9138572" lon="17.7048859">
        <ele>28.9769</ele>
        <time>2014-07-02T10:41:03Z</time>
      </trkpt>
      <trkpt lat="59.9138432" lon="17.7048823">
        <ele>29.4575</ele>
        <time>2014-07-02T10:41:04Z</time>
      </trkpt>
      <trkpt lat="59.9138306" lon="17.7048828">
        <ele>29.9381</ele>
        <time>2014-07-02T10:41:05Z</time>
      </trkpt>
      <trkpt lat="59.9138119" lon="17.7048707">
        <ele>29.4575</ele>
        <time>2014-07-02T10:41:06Z</time>
      </trkpt>
      <trkpt lat="59.9137984" lon="17.7048744">
        <ele>29.4575</ele>
        <time>2014-07-02T10:41:07Z</time>
      </trkpt>
      <trkpt lat="59.9137839" lon="17.70488">
        <ele>30.4188</ele>
        <time>2014-07-02T10:41:08Z</time>
      </trkpt>
      <trkpt lat="59.9137683" lon="17.7048816">
        <ele>30.4188</ele>
        <time>2014-07-02T10:41:09Z</time>
      </trkpt>
      <trkpt lat="59.9137528" lon="17.7048859">
        <ele>31.3801</ele>
        <time>2014-07-02T10:41:10Z</time>
      </trkpt>
      <trkpt lat="59.913734" lon="17.7048839">
        <ele>31.8607</ele>
        <time>2014-07-02T10:41:11Z</time>
      </trkpt>
      <trkpt lat="59.9137189" lon="17.7048876">
        <ele>31.8607</ele>
        <time>2014-07-02T10:41:12Z</time>
      </trkpt>
      <trkpt lat="59.9137037" lon="17.7048973">
        <ele>31.8607</ele>
        <time>2014-07-02T10:41:13Z</time>
      </trkpt>
      <trkpt lat="59.9136918" lon="17.704909">
        <ele>32.3416</ele>
        <time>2014-07-02T10:41:14Z</time>
      </trkpt>
      <trkpt lat="59.913679" lon="17.7049269">
        <ele>33.3029</ele>
        <time>2014-07-02T10:41:15Z</time>
      </trkpt>
      <trkpt lat="59.9136667" lon="17.7049388">
        <ele>33.3029</ele>
        <time>2014-07-02T10:41:16Z</time>
      </trkpt>
      <trkpt lat="59.9136568" lon="17.7049417">
        <ele>33.3029</ele>
        <time>2014-07-02T10:41:17Z</time>
      </trkpt>
      <trkpt lat="59.9136475" lon="17.704948">
        <ele>33.3029</ele>
        <time>2014-07-02T10:41:18Z</time>
      </trkpt>
      <trkpt lat="59.9136368" lon="17.7049534">
        <ele>32.3416</ele>
        <time>2014-07-02T10:41:19Z</time>
      </trkpt>
      <trkpt lat="59.9136238" lon="17.7049646">
        <ele>30.8995</ele>
        <time>2014-07-02T10:41:20Z</time>
      </trkpt>
      <trkpt lat="59.9136074" lon="17.7049743">
        <ele>29.4575</ele>
        <time>2014-07-02T10:41:21Z</time>
      </trkpt>
      <trkpt lat="59.9135897" lon="17.7049849">
        <ele>27.5349</ele>
        <time>2014-07-02T10:41:22Z</time>
      </trkpt>
      <trkpt lat="59.913571" lon="17.7049968">
        <ele>26.0929</ele>
        <time>2014-07-02T10:41:23Z</time>
      </trkpt>
      <trkpt lat="59.9135555" lon="17.7050082">
        <ele>24.651</ele>
        <time>2014-07-02T10:41:24Z</time>
      </trkpt>
      <trkpt lat="59.9135399" lon="17.7050262">
        <ele>23.209</ele>
        <time>2014-07-02T10:41:25Z</time>
      </trkpt>
      <trkpt lat="59.913525" lon="17.7050326">
        <ele>21.767</ele>
        <time>2014-07-02T10:41:26Z</time>
      </trkpt>
      <trkpt lat="59.9135155" lon="17.7050501">
        <ele>21.2864</ele>
        <time>2014-07-02T10:41:27Z</time>
      </trkpt>
      <trkpt lat="59.9135053" lon="17.7050801">
        <ele>19.8444</ele>
        <time>2014-07-02T10:41:28Z</time>
      </trkpt>
      <trkpt lat="59.9134951" lon="17.7051028">
        <ele>20.325</ele>
        <time>2014-07-02T10:41:29Z</time>
      </trkpt>
      <trkpt lat="59.913486" lon="17.7051264">
        <ele>20.325</ele>
        <time>2014-07-02T10:41:30Z</time>
      </trkpt>
      <trkpt lat="59.9134742" lon="17.7051597">
        <ele>19.8444</ele>
        <time>2014-07-02T10:41:31Z</time>
      </trkpt>
      <trkpt lat="59.9134636" lon="17.7051872">
        <ele>18.8831</ele>
        <time>2014-07-02T10:41:32Z</time>
      </trkpt>
      <trkpt lat="59.9134558" lon="17.705208">
        <ele>17.4412</ele>
        <time>2014-07-02T10:41:33Z</time>
      </trkpt>
      <trkpt lat="59.9134451" lon="17.7052381">
        <ele>15.999</ele>
        <time>2014-07-02T10:41:34Z</time>
      </trkpt>
      <trkpt lat="59.913431" lon="17.7052707">
        <ele>14.557</ele>
        <time>2014-07-02T10:41:35Z</time>
      </trkpt>
      <trkpt lat="59.9134197" lon="17.7052999">
        <ele>13.1151</ele>
        <time>2014-07-02T10:41:36Z</time>
      </trkpt>
      <trkpt lat="59.9134098" lon="17.7053237">
        <ele>15.0377</ele>
        <time>2014-07-02T10:41:37Z</time>
      </trkpt>
      <trkpt lat="59.9134007" lon="17.7053448">
        <ele>16.4797</ele>
        <time>2014-07-02T10:41:38Z</time>
      </trkpt>
      <trkpt lat="59.9133912" lon="17.7053688">
        <ele>16.4797</ele>
        <time>2014-07-02T10:41:39Z</time>
      </trkpt>
      <trkpt lat="59.9133798" lon="17.7053957">
        <ele>15.5184</ele>
        <time>2014-07-02T10:41:40Z</time>
      </trkpt>
      <trkpt lat="59.9133699" lon="17.7054281">
        <ele>14.557</ele>
        <time>2014-07-02T10:41:41Z</time>
      </trkpt>
      <trkpt lat="59.9133643" lon="17.7054514">
        <ele>14.0764</ele>
        <time>2014-07-02T10:41:42Z</time>
      </trkpt>
      <trkpt lat="59.9133631" lon="17.7054701">
        <ele>13.5958</ele>
        <time>2014-07-02T10:41:43Z</time>
      </trkpt>
      <trkpt lat="59.9133667" lon="17.7054934">
        <ele>14.557</ele>
        <time>2014-07-02T10:41:44Z</time>
      </trkpt>
      <trkpt lat="59.9133684" lon="17.7055218">
        <ele>14.0764</ele>
        <time>2014-07-02T10:41:45Z</time>
      </trkpt>
      <trkpt lat="59.9133701" lon="17.7055493">
        <ele>14.0764</ele>
        <time>2014-07-02T10:41:46Z</time>
      </trkpt>
      <trkpt lat="59.9133695" lon="17.7055795">
        <ele>15.0377</ele>
        <time>2014-07-02T10:41:47Z</time>
      </trkpt>
      <trkpt lat="59.9133658" lon="17.7056047">
        <ele>15.5184</ele>
        <time>2014-07-02T10:41:48Z</time>
      </trkpt>
      <trkpt lat="59.9133617" lon="17.705634">
        <ele>15.999</ele>
        <time>2014-07-02T10:41:49Z</time>
      </trkpt>
      <trkpt lat="59.9133513" lon="17.7056604">
        <ele>15.0377</ele>
        <time>2014-07-02T10:41:50Z</time>
      </trkpt>
      <trkpt lat="59.9133456" lon="17.7056934">
        <ele>14.557</ele>
        <time>2014-07-02T10:41:51Z</time>
      </trkpt>
      <trkpt lat="59.9133358" lon="17.7057339">
        <ele>15.999</ele>
        <time>2014-07-02T10:41:52Z</time>
      </trkpt>
      <trkpt lat="59.9133265" lon="17.7057749">
        <ele>18.4023</ele>
        <time>2014-07-02T10:41:53Z</time>
      </trkpt>
      <trkpt lat="59.9133177" lon="17.7058038">
        <ele>18.4023</ele>
        <time>2014-07-02T10:41:54Z</time>
      </trkpt>
      <trkpt lat="59.913311" lon="17.7058272">
        <ele>18.4023</ele>
        <time>2014-07-02T10:41:55Z</time>
      </trkpt>
      <trkpt lat="59.9133037" lon="17.7058442">
        <ele>18.8831</ele>
        <time>2014-07-02T10:41:56Z</time>
      </trkpt>
      <trkpt lat="59.9132959" lon="17.7058649">
        <ele>17.9218</ele>
        <time>2014-07-02T10:41:57Z</time>
      </trkpt>
      <trkpt lat="59.9132874" lon="17.7058803">
        <ele>16.9604</ele>
        <time>2014-07-02T10:41:58Z</time>
      </trkpt>
      <trkpt lat="59.9132835" lon="17.7059008">
        <ele>16.4797</ele>
        <time>2014-07-02T10:41:59Z</time>
      </trkpt>
      <trkpt lat="59.9132769" lon="17.7059246">
        <ele>15.999</ele>
        <time>2014-07-02T10:42:00Z</time>
      </trkpt>
      <trkpt lat="59.9132695" lon="17.7059454">
        <ele>14.557</ele>
        <time>2014-07-02T10:42:01Z</time>
      </trkpt>
      <trkpt lat="59.9132688" lon="17.7059744">
        <ele>15.5184</ele>
        <time>2014-07-02T10:42:02Z</time>
      </trkpt>
      <trkpt lat="59.913261" lon="17.7059995">
        <ele>15.0377</ele>
        <time>2014-07-02T10:42:03Z</time>
      </trkpt>
      <trkpt lat="59.9132601" lon="17.7060287">
        <ele>17.4412</ele>
        <time>2014-07-02T10:42:04Z</time>
      </trkpt>
      <trkpt lat="59.913255" lon="17.7060504">
        <ele>17.4412</ele>
        <time>2014-07-02T10:42:05Z</time>
      </trkpt>
      <trkpt lat="59.9132545" lon="17.7060712">
        <ele>16.9604</ele>
        <time>2014-07-02T10:42:06Z</time>
      </trkpt>
      <trkpt lat="59.9132525" lon="17.7060963">
        <ele>16.9604</ele>
        <time>2014-07-02T10:42:07Z</time>
      </trkpt>
      <trkpt lat="59.9132514" lon="17.7061241">
        <ele>17.9218</ele>
        <time>2014-07-02T10:42:08Z</time>
      </trkpt>
      <trkpt lat="59.9132429" lon="17.7061613">
        <ele>20.8057</ele>
        <time>2014-07-02T10:42:09Z</time>
      </trkpt>
      <trkpt lat="59.9132339" lon="17.7061953">
        <ele>23.6896</ele>
        <time>2014-07-02T10:42:10Z</time>
      </trkpt>
      <trkpt lat="59.9132291" lon="17.7062287">
        <ele>22.7283</ele>
        <time>2014-07-02T10:42:11Z</time>
      </trkpt>
      <trkpt lat="59.9132172" lon="17.7062555">
        <ele>21.2864</ele>
        <time>2014-07-02T10:42:12Z</time>
      </trkpt>
      <trkpt lat="59.9132104" lon="17.7062716">
        <ele>20.8057</ele>
        <time>2014-07-02T10:42:13Z</time>
      </trkpt>
      <trkpt lat="59.9131979" lon="17.7062979">
        <ele>18.8831</ele>
        <time>2014-07-02T10:42:14Z</time>
      </trkpt>
      <trkpt lat="59.9131838" lon="17.7063242">
        <ele>22.2476</ele>
        <time>2014-07-02T10:42:15Z</time>
      </trkpt>
      <trkpt lat="59.9131685" lon="17.7063385">
        <ele>24.1703</ele>
        <time>2014-07-02T10:42:16Z</time>
      </trkpt>
      <trkpt lat="59.913159" lon="17.7063539">
        <ele>27.0543</ele>
        <time>2014-07-02T10:42:17Z</time>
      </trkpt>
      <trkpt lat="59.9131493" lon="17.7063672">
        <ele>27.5349</ele>
        <time>2014-07-02T10:42:18Z</time>
      </trkpt>
      <trkpt lat="59.9131403" lon="17.7063895">
        <ele>26.5736</ele>
        <time>2014-07-02T10:42:19Z</time>
      </trkpt>
      <trkpt lat="59.9131276" lon="17.7064054">
        <ele>24.651</ele>
        <time>2014-07-02T10:42:20Z</time>
      </trkpt>
      <trkpt lat="59.9131126" lon="17.7064208">
        <ele>22.7283</ele>
        <time>2014-07-02T10:42:21Z</time>
      </trkpt>
      <trkpt lat="59.9130989" lon="17.7064379">
        <ele>21.767</ele>
        <time>2014-07-02T10:42:22Z</time>
      </trkpt>
      <trkpt lat="59.9130864" lon="17.706456">
        <ele>20.325</ele>
        <time>2014-07-02T10:42:23Z</time>
      </trkpt>
      <trkpt lat="59.9130742" lon="17.7064771">
        <ele>18.8831</ele>
        <time>2014-07-02T10:42:24Z</time>
      </trkpt>
      <trkpt lat="59.9130623" lon="17.7064965">
        <ele>18.4023</ele>
        <time>2014-07-02T10:42:25Z</time>
      </trkpt>
      <trkpt lat="59.9130533" lon="17.7065073">
        <ele>17.9218</ele>
        <time>2014-07-02T10:42:26Z</time>
      </trkpt>
      <trkpt lat="59.9130422" lon="17.7065156">
        <ele>17.4412</ele>
        <time>2014-07-02T10:42:27Z</time>
      </trkpt>
      <trkpt lat="59.9130297" lon="17.7065212">
        <ele>18.4023</ele>
        <time>2014-07-02T10:42:28Z</time>
      </trkpt>
      <trkpt lat="59.9130167" lon="17.7065301">
        <ele>19.3638</ele>
        <time>2014-07-02T10:42:29Z</time>
      </trkpt>
      <trkpt lat="59.9130038" lon="17.7065327">
        <ele>21.2864</ele>
        <time>2014-07-02T10:42:30Z</time>
      </trkpt>
      <trkpt lat="59.9129917" lon="17.7065395">
        <ele>20.8057</ele>
        <time>2014-07-02T10:42:31Z</time>
      </trkpt>
      <trkpt lat="59.9129769" lon="17.7065466">
        <ele>19.8444</ele>
        <time>2014-07-02T10:42:32Z</time>
      </trkpt>
      <trkpt lat="59.9129582" lon="17.7065517">
        <ele>19.3638</ele>
        <time>2014-07-02T10:42:33Z</time>
      </trkpt>
      <trkpt lat="59.9129399" lon="17.706553">
        <ele>18.4023</ele>
        <time>2014-07-02T10:42:34Z</time>
      </trkpt>
      <trkpt lat="59.9129271" lon="17.7065467">
        <ele>17.9218</ele>
        <time>2014-07-02T10:42:35Z</time>
      </trkpt>
      <trkpt lat="59.9129182" lon="17.7065439">
        <ele>17.4412</ele>
        <time>2014-07-02T10:42:36Z</time>
      </trkpt>
      <trkpt lat="59.9129109" lon="17.7065451">
        <ele>18.4023</ele>
        <time>2014-07-02T10:42:37Z</time>
      </trkpt>
      <trkpt lat="59.9129007" lon="17.7065399">
        <ele>16.9604</ele>
        <time>2014-07-02T10:42:38Z</time>
      </trkpt>
      <trkpt lat="59.912888" lon="17.7065345">
        <ele>17.9218</ele>
        <time>2014-07-02T10:42:39Z</time>
      </trkpt>
      <trkpt lat="59.9128744" lon="17.706519">
        <ele>18.8831</ele>
        <time>2014-07-02T10:42:40Z</time>
      </trkpt>
      <trkpt lat="59.9128637" lon="17.7065092">
        <ele>18.4023</ele>
        <time>2014-07-02T10:42:41Z</time>
      </trkpt>
      <trkpt lat="59.9128488" lon="17.7065073">
        <ele>17.4412</ele>
        <time>2014-07-02T10:42:42Z</time>
      </trkpt>
      <trkpt lat="59.9128286" lon="17.7065109">
        <ele>15.999</ele>
        <time>2014-07-02T10:42:43Z</time>
      </trkpt>
      <trkpt lat="59.9128109" lon="17.7065202">
        <ele>15.0377</ele>
        <time>2014-07-02T10:42:44Z</time>
      </trkpt>
      <trkpt lat="59.9127975" lon="17.7065306">
        <ele>15.0377</ele>
        <time>2014-07-02T10:42:45Z</time>
      </trkpt>
      <trkpt lat="59.9127813" lon="17.7065358">
        <ele>15.0377</ele>
        <time>2014-07-02T10:42:46Z</time>
      </trkpt>
      <trkpt lat="59.912766" lon="17.7065483">
        <ele>15.5184</ele>
        <time>2014-07-02T10:42:47Z</time>
      </trkpt>
      <trkpt lat="59.912754" lon="17.7065704">
        <ele>15.0377</ele>
        <time>2014-07-02T10:42:48Z</time>
      </trkpt>
      <trkpt lat="59.9127446" lon="17.7065788">
        <ele>14.557</ele>
        <time>2014-07-02T10:42:49Z</time>
      </trkpt>
      <trkpt lat="59.9127303" lon="17.7065943">
        <ele>15.0377</ele>
        <time>2014-07-02T10:42:50Z</time>
      </trkpt>
      <trkpt lat="59.912715" lon="17.706604">
        <ele>15.0377</ele>
        <time>2014-07-02T10:42:51Z</time>
      </trkpt>
      <trkpt lat="59.9126995" lon="17.7066088">
        <ele>15.0377</ele>
        <time>2014-07-02T10:42:52Z</time>
      </trkpt>
      <trkpt lat="59.9126798" lon="17.7066082">
        <ele>14.0764</ele>
        <time>2014-07-02T10:42:53Z</time>
      </trkpt>
      <trkpt lat="59.9126648" lon="17.7066045">
        <ele>13.1151</ele>
        <time>2014-07-02T10:42:54Z</time>
      </trkpt>
      <trkpt lat="59.9126488" lon="17.7066051">
        <ele>11.6732</ele>
        <time>2014-07-02T10:42:55Z</time>
      </trkpt>
      <trkpt lat="59.9126353" lon="17.7066086">
        <ele>9.75061</ele>
        <time>2014-07-02T10:42:56Z</time>
      </trkpt>
      <trkpt lat="59.9126209" lon="17.7066161">
        <ele>10.2312</ele>
        <time>2014-07-02T10:42:57Z</time>
      </trkpt>
      <trkpt lat="59.9126047" lon="17.7066202">
        <ele>9.75061</ele>
        <time>2014-07-02T10:42:58Z</time>
      </trkpt>
      <trkpt lat="59.9125871" lon="17.7066228">
        <ele>10.2312</ele>
        <time>2014-07-02T10:42:59Z</time>
      </trkpt>
      <trkpt lat="59.9125707" lon="17.7066289">
        <ele>11.6732</ele>
        <time>2014-07-02T10:43:00Z</time>
      </trkpt>
      <trkpt lat="59.9125537" lon="17.706647">
        <ele>10.7118</ele>
        <time>2014-07-02T10:43:01Z</time>
      </trkpt>
      <trkpt lat="59.9125369" lon="17.7066627">
        <ele>9.75061</ele>
        <time>2014-07-02T10:43:02Z</time>
      </trkpt>
      <trkpt lat="59.9125224" lon="17.7066746">
        <ele>10.2312</ele>
        <time>2014-07-02T10:43:03Z</time>
      </trkpt>
      <trkpt lat="59.9125091" lon="17.7066837">
        <ele>9.2699</ele>
        <time>2014-07-02T10:43:04Z</time>
      </trkpt>
      <trkpt lat="59.9124936" lon="17.7066948">
        <ele>11.6732</ele>
        <time>2014-07-02T10:43:05Z</time>
      </trkpt>
      <trkpt lat="59.9124855" lon="17.7067041">
        <ele>14.0764</ele>
        <time>2014-07-02T10:43:06Z</time>
      </trkpt>
      <trkpt lat="59.9124769" lon="17.7067174">
        <ele>16.4797</ele>
        <time>2014-07-02T10:43:07Z</time>
      </trkpt>
      <trkpt lat="59.9124706" lon="17.7067311">
        <ele>17.4412</ele>
        <time>2014-07-02T10:43:08Z</time>
      </trkpt>
      <trkpt lat="59.9124636" lon="17.7067492">
        <ele>18.4023</ele>
        <time>2014-07-02T10:43:09Z</time>
      </trkpt>
      <trkpt lat="59.9124542" lon="17.7067679">
        <ele>18.8831</ele>
        <time>2014-07-02T10:43:10Z</time>
      </trkpt>
      <trkpt lat="59.9124417" lon="17.7068032">
        <ele>17.9218</ele>
        <time>2014-07-02T10:43:11Z</time>
      </trkpt>
      <trkpt lat="59.9124345" lon="17.7068304">
        <ele>16.9604</ele>
        <time>2014-07-02T10:43:12Z</time>
      </trkpt>
      <trkpt lat="59.912428" lon="17.7068642">
        <ele>15.5184</ele>
        <time>2014-07-02T10:43:13Z</time>
      </trkpt>
      <trkpt lat="59.9124231" lon="17.7068923">
        <ele>16.4797</ele>
        <time>2014-07-02T10:43:14Z</time>
      </trkpt>
      <trkpt lat="59.9124211" lon="17.7069269">
        <ele>17.9218</ele>
        <time>2014-07-02T10:43:15Z</time>
      </trkpt>
      <trkpt lat="59.9124219" lon="17.7069666">
        <ele>20.325</ele>
        <time>2014-07-02T10:43:16Z</time>
      </trkpt>
      <trkpt lat="59.912425" lon="17.7070011">
        <ele>21.767</ele>
        <time>2014-07-02T10:43:17Z</time>
      </trkpt>
      <trkpt lat="59.9124237" lon="17.7070393">
        <ele>22.2476</ele>
        <time>2014-07-02T10:43:18Z</time>
      </trkpt>
      <trkpt lat="59.9124262" lon="17.7070707">
        <ele>23.209</ele>
        <time>2014-07-02T10:43:19Z</time>
      </trkpt>
      <trkpt lat="59.9124288" lon="17.7070976">
        <ele>23.209</ele>
        <time>2014-07-02T10:43:20Z</time>
      </trkpt>
      <trkpt lat="59.9124333" lon="17.7071197">
        <ele>22.7283</ele>
        <time>2014-07-02T10:43:21Z</time>
      </trkpt>
      <trkpt lat="59.9124353" lon="17.7071507">
        <ele>22.7283</ele>
        <time>2014-07-02T10:43:22Z</time>
      </trkpt>
      <trkpt lat="59.9124365" lon="17.7071745">
        <ele>22.7283</ele>
        <time>2014-07-02T10:43:23Z</time>
      </trkpt>
      <trkpt lat="59.9124318" lon="17.707222">
        <ele>26.0929</ele>
        <time>2014-07-02T10:43:24Z</time>
      </trkpt>
      <trkpt lat="59.9124282" lon="17.7072558">
        <ele>26.5736</ele>
        <time>2014-07-02T10:43:25Z</time>
      </trkpt>
      <trkpt lat="59.9124277" lon="17.7072926">
        <ele>26.0929</ele>
        <time>2014-07-02T10:43:26Z</time>
      </trkpt>
      <trkpt lat="59.9124317" lon="17.7073282">
        <ele>28.0155</ele>
        <time>2014-07-02T10:43:27Z</time>
      </trkpt>
      <trkpt lat="59.9124334" lon="17.707361">
        <ele>29.4575</ele>
        <time>2014-07-02T10:43:28Z</time>
      </trkpt>
      <trkpt lat="59.9124377" lon="17.7073931">
        <ele>31.3801</ele>
        <time>2014-07-02T10:43:29Z</time>
      </trkpt>
      <trkpt lat="59.9124401" lon="17.7074272">
        <ele>32.8223</ele>
        <time>2014-07-02T10:43:30Z</time>
      </trkpt>
      <trkpt lat="59.9124421" lon="17.7074645">
        <ele>34.2642</ele>
        <time>2014-07-02T10:43:31Z</time>
      </trkpt>
      <trkpt lat="59.9124374" lon="17.707493">
        <ele>34.7449</ele>
        <time>2014-07-02T10:43:32Z</time>
      </trkpt>
      <trkpt lat="59.9124283" lon="17.7075315">
        <ele>36.1868</ele>
        <time>2014-07-02T10:43:33Z</time>
      </trkpt>
      <trkpt lat="59.9124179" lon="17.7075697">
        <ele>37.1481</ele>
        <time>2014-07-02T10:43:34Z</time>
      </trkpt>
      <trkpt lat="59.9124111" lon="17.7076009">
        <ele>38.1094</ele>
        <time>2014-07-02T10:43:35Z</time>
      </trkpt>
      <trkpt lat="59.9124065" lon="17.7076319">
        <ele>39.5513</ele>
        <time>2014-07-02T10:43:36Z</time>
      </trkpt>
      <trkpt lat="59.9124019" lon="17.7076645">
        <ele>41.474</ele>
        <time>2014-07-02T10:43:37Z</time>
      </trkpt>
      <trkpt lat="59.9123972" lon="17.7076877">
        <ele>41.9547</ele>
        <time>2014-07-02T10:43:38Z</time>
      </trkpt>
      <trkpt lat="59.912391" lon="17.7077149">
        <ele>42.4354</ele>
        <time>2014-07-02T10:43:39Z</time>
      </trkpt>
      <trkpt lat="59.9123785" lon="17.7077391">
        <ele>41.9547</ele>
        <time>2014-07-02T10:43:40Z</time>
      </trkpt>
      <trkpt lat="59.9123706" lon="17.7077614">
        <ele>42.4354</ele>
        <time>2014-07-02T10:43:41Z</time>
      </trkpt>
      <trkpt lat="59.9123636" lon="17.7077825">
        <ele>42.4354</ele>
        <time>2014-07-02T10:43:42Z</time>
      </trkpt>
      <trkpt lat="59.9123557" lon="17.7078091">
        <ele>42.4354</ele>
        <time>2014-07-02T10:43:43Z</time>
      </trkpt>
      <trkpt lat="59.9123442" lon="17.7078375">
        <ele>40.9934</ele>
        <time>2014-07-02T10:43:44Z</time>
      </trkpt>
      <trkpt lat="59.9123339" lon="17.7078681">
        <ele>40.0321</ele>
        <time>2014-07-02T10:43:45Z</time>
      </trkpt>
      <trkpt lat="59.912325" lon="17.7078967">
        <ele>39.0707</ele>
        <time>2014-07-02T10:43:46Z</time>
      </trkpt>
      <trkpt lat="59.9123173" lon="17.7079246">
        <ele>38.5901</ele>
        <time>2014-07-02T10:43:47Z</time>
      </trkpt>
      <trkpt lat="59.9123094" lon="17.707951">
        <ele>38.1094</ele>
        <time>2014-07-02T10:43:48Z</time>
      </trkpt>
      <trkpt lat="59.9123016" lon="17.7079711">
        <ele>37.6287</ele>
        <time>2014-07-02T10:43:49Z</time>
      </trkpt>
      <trkpt lat="59.9123014" lon="17.7079976">
        <ele>38.1094</ele>
        <time>2014-07-02T10:43:50Z</time>
      </trkpt>
      <trkpt lat="59.9122954" lon="17.7080364">
        <ele>37.1481</ele>
        <time>2014-07-02T10:43:51Z</time>
      </trkpt>
      <trkpt lat="59.9122884" lon="17.7080675">
        <ele>37.1481</ele>
        <time>2014-07-02T10:43:52Z</time>
      </trkpt>
      <trkpt lat="59.9122895" lon="17.7080981">
        <ele>37.6287</ele>
        <time>2014-07-02T10:43:53Z</time>
      </trkpt>
      <trkpt lat="59.9122904" lon="17.7081243">
        <ele>37.6287</ele>
        <time>2014-07-02T10:43:54Z</time>
      </trkpt>
      <trkpt lat="59.9122897" lon="17.7081547">
        <ele>38.1094</ele>
        <time>2014-07-02T10:43:55Z</time>
      </trkpt>
      <trkpt lat="59.9122837" lon="17.7081839">
        <ele>37.6287</ele>
        <time>2014-07-02T10:43:56Z</time>
      </trkpt>
      <trkpt lat="59.9122724" lon="17.708225">
        <ele>36.6675</ele>
        <time>2014-07-02T10:43:57Z</time>
      </trkpt>
      <trkpt lat="59.9122664" lon="17.7082565">
        <ele>37.6287</ele>
        <time>2014-07-02T10:43:58Z</time>
      </trkpt>
      <trkpt lat="59.9122616" lon="17.708287">
        <ele>37.1481</ele>
        <time>2014-07-02T10:43:59Z</time>
      </trkpt>
      <trkpt lat="59.9122593" lon="17.7083194">
        <ele>37.1481</ele>
        <time>2014-07-02T10:44:00Z</time>
      </trkpt>
      <trkpt lat="59.9122578" lon="17.7083504">
        <ele>37.6287</ele>
        <time>2014-07-02T10:44:01Z</time>
      </trkpt>
      <trkpt lat="59.9122535" lon="17.7083797">
        <ele>37.1481</ele>
        <time>2014-07-02T10:44:02Z</time>
      </trkpt>
      <trkpt lat="59.912249" lon="17.7084101">
        <ele>36.6675</ele>
        <time>2014-07-02T10:44:03Z</time>
      </trkpt>
      <trkpt lat="59.9122468" lon="17.708441">
        <ele>36.6675</ele>
        <time>2014-07-02T10:44:04Z</time>
      </trkpt>
      <trkpt lat="59.9122398" lon="17.7084712">
        <ele>35.7061</ele>
        <time>2014-07-02T10:44:05Z</time>
      </trkpt>
      <trkpt lat="59.9122367" lon="17.7085011">
        <ele>35.7061</ele>
        <time>2014-07-02T10:44:06Z</time>
      </trkpt>
      <trkpt lat="59.9122345" lon="17.7085306">
        <ele>36.1868</ele>
        <time>2014-07-02T10:44:07Z</time>
      </trkpt>
      <trkpt lat="59.9122323" lon="17.7085653">
        <ele>37.1481</ele>
        <time>2014-07-02T10:44:08Z</time>
      </trkpt>
      <trkpt lat="59.9122279" lon="17.7085954">
        <ele>37.1481</ele>
        <time>2014-07-02T10:44:09Z</time>
      </trkpt>
      <trkpt lat="59.9122208" lon="17.7086243">
        <ele>36.6675</ele>
        <time>2014-07-02T10:44:10Z</time>
      </trkpt>
      <trkpt lat="59.9122129" lon="17.7086543">
        <ele>37.1481</ele>
        <time>2014-07-02T10:44:11Z</time>
      </trkpt>
      <trkpt lat="59.912205" lon="17.7086815">
        <ele>37.6287</ele>
        <time>2014-07-02T10:44:12Z</time>
      </trkpt>
      <trkpt lat="59.9121945" lon="17.7087043">
        <ele>38.1094</ele>
        <time>2014-07-02T10:44:13Z</time>
      </trkpt>
      <trkpt lat="59.9121838" lon="17.708725">
        <ele>38.5901</ele>
        <time>2014-07-02T10:44:14Z</time>
      </trkpt>
      <trkpt lat="59.9121761" lon="17.7087425">
        <ele>39.0707</ele>
        <time>2014-07-02T10:44:15Z</time>
      </trkpt>
      <trkpt lat="59.9121624" lon="17.7087684">
        <ele>39.0707</ele>
        <time>2014-07-02T10:44:16Z</time>
      </trkpt>
      <trkpt lat="59.9121474" lon="17.7087948">
        <ele>39.0707</ele>
        <time>2014-07-02T10:44:17Z</time>
      </trkpt>
      <trkpt lat="59.9121361" lon="17.7088144">
        <ele>39.5513</ele>
        <time>2014-07-02T10:44:18Z</time>
      </trkpt>
      <trkpt lat="59.9121227" lon="17.7088333">
        <ele>39.0707</ele>
        <time>2014-07-02T10:44:19Z</time>
      </trkpt>
      <trkpt lat="59.9121117" lon="17.7088532">
        <ele>39.5513</ele>
        <time>2014-07-02T10:44:20Z</time>
      </trkpt>
      <trkpt lat="59.9121059" lon="17.708872">
        <ele>40.5128</ele>
        <time>2014-07-02T10:44:21Z</time>
      </trkpt>
      <trkpt lat="59.9120948" lon="17.7088972">
        <ele>40.0321</ele>
        <time>2014-07-02T10:44:22Z</time>
      </trkpt>
      <trkpt lat="59.9120846" lon="17.7089175">
        <ele>39.5513</ele>
        <time>2014-07-02T10:44:23Z</time>
      </trkpt>
      <trkpt lat="59.9120768" lon="17.708943">
        <ele>40.0321</ele>
        <time>2014-07-02T10:44:24Z</time>
      </trkpt>
      <trkpt lat="59.9120667" lon="17.7089663">
        <ele>39.5513</ele>
        <time>2014-07-02T10:44:25Z</time>
      </trkpt>
      <trkpt lat="59.9120613" lon="17.7089839">
        <ele>39.5513</ele>
        <time>2014-07-02T10:44:26Z</time>
      </trkpt>
      <trkpt lat="59.9120544" lon="17.7090057">
        <ele>40.9934</ele>
        <time>2014-07-02T10:44:27Z</time>
      </trkpt>
      <trkpt lat="59.9120458" lon="17.7090279">
        <ele>41.474</ele>
        <time>2014-07-02T10:44:28Z</time>
      </trkpt>
      <trkpt lat="59.9120418" lon="17.7090455">
        <ele>40.9934</ele>
        <time>2014-07-02T10:44:29Z</time>
      </trkpt>
      <trkpt lat="59.9120372" lon="17.7090685">
        <ele>40.0321</ele>
        <time>2014-07-02T10:44:30Z</time>
      </trkpt>
      <trkpt lat="59.9120318" lon="17.7090952">
        <ele>39.5513</ele>
        <time>2014-07-02T10:44:31Z</time>
      </trkpt>
      <trkpt lat="59.9120248" lon="17.7091233">
        <ele>39.0707</ele>
        <time>2014-07-02T10:44:32Z</time>
      </trkpt>
      <trkpt lat="59.9120201" lon="17.7091538">
        <ele>38.5901</ele>
        <time>2014-07-02T10:44:33Z</time>
      </trkpt>
      <trkpt lat="59.9120167" lon="17.7091839">
        <ele>37.6287</ele>
        <time>2014-07-02T10:44:34Z</time>
      </trkpt>
      <trkpt lat="59.9120163" lon="17.7092223">
        <ele>37.1481</ele>
        <time>2014-07-02T10:44:35Z</time>
      </trkpt>
      <trkpt lat="59.912019" lon="17.7092564">
        <ele>37.6287</ele>
        <time>2014-07-02T10:44:36Z</time>
      </trkpt>
      <trkpt lat="59.9120209" lon="17.709288">
        <ele>37.1481</ele>
        <time>2014-07-02T10:44:37Z</time>
      </trkpt>
      <trkpt lat="59.9120215" lon="17.7093185">
        <ele>36.6675</ele>
        <time>2014-07-02T10:44:38Z</time>
      </trkpt>
      <trkpt lat="59.9120217" lon="17.7093471">
        <ele>36.1868</ele>
        <time>2014-07-02T10:44:39Z</time>
      </trkpt>
      <trkpt lat="59.912021" lon="17.7093801">
        <ele>35.7061</ele>
        <time>2014-07-02T10:44:40Z</time>
      </trkpt>
      <trkpt lat="59.912021" lon="17.7094154">
        <ele>35.7061</ele>
        <time>2014-07-02T10:44:41Z</time>
      </trkpt>
      <trkpt lat="59.9120169" lon="17.7094445">
        <ele>36.1868</ele>
        <time>2014-07-02T10:44:42Z</time>
      </trkpt>
      <trkpt lat="59.912011" lon="17.7094703">
        <ele>36.1868</ele>
        <time>2014-07-02T10:44:43Z</time>
      </trkpt>
      <trkpt lat="59.912005" lon="17.7094934">
        <ele>36.6675</ele>
        <time>2014-07-02T10:44:44Z</time>
      </trkpt>
      <trkpt lat="59.9119988" lon="17.7095148">
        <ele>36.6675</ele>
        <time>2014-07-02T10:44:45Z</time>
      </trkpt>
      <trkpt lat="59.9119879" lon="17.7095387">
        <ele>35.2255</ele>
        <time>2014-07-02T10:44:46Z</time>
      </trkpt>
      <trkpt lat="59.9119782" lon="17.7095631">
        <ele>35.2255</ele>
        <time>2014-07-02T10:44:47Z</time>
      </trkpt>
      <trkpt lat="59.9119662" lon="17.7095921">
        <ele>34.2642</ele>
        <time>2014-07-02T10:44:48Z</time>
      </trkpt>
      <trkpt lat="59.9119544" lon="17.7096222">
        <ele>33.7834</ele>
        <time>2014-07-02T10:44:49Z</time>
      </trkpt>
      <trkpt lat="59.9119414" lon="17.7096501">
        <ele>33.7834</ele>
        <time>2014-07-02T10:44:50Z</time>
      </trkpt>
      <trkpt lat="59.9119295" lon="17.7096784">
        <ele>34.2642</ele>
        <time>2014-07-02T10:44:51Z</time>
      </trkpt>
      <trkpt lat="59.9119178" lon="17.7097008">
        <ele>34.2642</ele>
        <time>2014-07-02T10:44:52Z</time>
      </trkpt>
      <trkpt lat="59.9119116" lon="17.7097211">
        <ele>34.2642</ele>
        <time>2014-07-02T10:44:53Z</time>
      </trkpt>
      <trkpt lat="59.9119035" lon="17.7097472">
        <ele>34.7449</ele>
        <time>2014-07-02T10:44:54Z</time>
      </trkpt>
      <trkpt lat="59.9118953" lon="17.7097714">
        <ele>34.7449</ele>
        <time>2014-07-02T10:44:55Z</time>
      </trkpt>
      <trkpt lat="59.9118885" lon="17.7097928">
        <ele>34.7449</ele>
        <time>2014-07-02T10:44:56Z</time>
      </trkpt>
      <trkpt lat="59.9118784" lon="17.7098215">
        <ele>34.2642</ele>
        <time>2014-07-02T10:44:57Z</time>
      </trkpt>
      <trkpt lat="59.9118697" lon="17.7098424">
        <ele>34.2642</ele>
        <time>2014-07-02T10:44:58Z</time>
      </trkpt>
      <trkpt lat="59.9118621" lon="17.7098609">
        <ele>33.3029</ele>
        <time>2014-07-02T10:44:59Z</time>
      </trkpt>
      <trkpt lat="59.9118527" lon="17.70988">
        <ele>32.8223</ele>
        <time>2014-07-02T10:45:00Z</time>
      </trkpt>
      <trkpt lat="59.911842" lon="17.7098931">
        <ele>31.3801</ele>
        <time>2014-07-02T10:45:01Z</time>
      </trkpt>
      <trkpt lat="59.9118331" lon="17.7099055">
        <ele>31.3801</ele>
        <time>2014-07-02T10:45:02Z</time>
      </trkpt>
      <trkpt lat="59.9118211" lon="17.7099272">
        <ele>30.8995</ele>
        <time>2014-07-02T10:45:03Z</time>
      </trkpt>
      <trkpt lat="59.9118083" lon="17.7099454">
        <ele>30.8995</ele>
        <time>2014-07-02T10:45:04Z</time>
      </trkpt>
      <trkpt lat="59.9117969" lon="17.7099493">
        <ele>31.8607</ele>
        <time>2014-07-02T10:45:05Z</time>
      </trkpt>
      <trkpt lat="59.9117886" lon="17.7099526">
        <ele>30.8995</ele>
        <time>2014-07-02T10:45:06Z</time>
      </trkpt>
      <trkpt lat="59.9117765" lon="17.7099553">
        <ele>29.9381</ele>
        <time>2014-07-02T10:45:07Z</time>
      </trkpt>
      <trkpt lat="59.911759" lon="17.7099661">
        <ele>28.4962</ele>
        <time>2014-07-02T10:45:08Z</time>
      </trkpt>
      <trkpt lat="59.9117409" lon="17.709985">
        <ele>25.6123</ele>
        <time>2014-07-02T10:45:09Z</time>
      </trkpt>
      <trkpt lat="59.9117225" lon="17.7099987">
        <ele>24.1703</ele>
        <time>2014-07-02T10:45:10Z</time>
      </trkpt>
      <trkpt lat="59.9117081" lon="17.7099995">
        <ele>22.2476</ele>
        <time>2014-07-02T10:45:11Z</time>
      </trkpt>
      <trkpt lat="59.9117005" lon="17.709996">
        <ele>21.767</ele>
        <time>2014-07-02T10:45:12Z</time>
      </trkpt>
      <trkpt lat="59.9116865" lon="17.7100039">
        <ele>20.325</ele>
        <time>2014-07-02T10:45:13Z</time>
      </trkpt>
      <trkpt lat="59.911675" lon="17.7100073">
        <ele>19.3638</ele>
        <time>2014-07-02T10:45:14Z</time>
      </trkpt>
      <trkpt lat="59.9116621" lon="17.710008">
        <ele>18.4023</ele>
        <time>2014-07-02T10:45:15Z</time>
      </trkpt>
      <trkpt lat="59.9116481" lon="17.7100002">
        <ele>16.9604</ele>
        <time>2014-07-02T10:45:16Z</time>
      </trkpt>
      <trkpt lat="59.9116377" lon="17.7099862">
        <ele>15.0377</ele>
        <time>2014-07-02T10:45:17Z</time>
      </trkpt>
      <trkpt lat="59.9116238" lon="17.7099806">
        <ele>15.0377</ele>
        <time>2014-07-02T10:45:18Z</time>
      </trkpt>
      <trkpt lat="59.9116129" lon="17.7099789">
        <ele>14.557</ele>
        <time>2014-07-02T10:45:19Z</time>
      </trkpt>
      <trkpt lat="59.9116088" lon="17.7099721">
        <ele>15.0377</ele>
        <time>2014-07-02T10:45:20Z</time>
      </trkpt>
      <trkpt lat="59.9116077" lon="17.7099603">
        <ele>15.5184</ele>
        <time>2014-07-02T10:45:21Z</time>
      </trkpt>
      <trkpt lat="59.9115988" lon="17.7099449">
        <ele>14.0764</ele>
        <time>2014-07-02T10:45:22Z</time>
      </trkpt>
      <trkpt lat="59.9115892" lon="17.7099325">
        <ele>14.0764</ele>
        <time>2014-07-02T10:45:23Z</time>
      </trkpt>
      <trkpt lat="59.9115782" lon="17.7099147">
        <ele>13.5958</ele>
        <time>2014-07-02T10:45:24Z</time>
      </trkpt>
      <trkpt lat="59.9115659" lon="17.7099079">
        <ele>15.0377</ele>
        <time>2014-07-02T10:45:25Z</time>
      </trkpt>
      <trkpt lat="59.9115517" lon="17.709893">
        <ele>16.9604</ele>
        <time>2014-07-02T10:45:26Z</time>
      </trkpt>
      <trkpt lat="59.9115405" lon="17.7098747">
        <ele>18.8831</ele>
        <time>2014-07-02T10:45:27Z</time>
      </trkpt>
      <trkpt lat="59.9115305" lon="17.7098439">
        <ele>19.8444</ele>
        <time>2014-07-02T10:45:28Z</time>
      </trkpt>
      <trkpt lat="59.9115273" lon="17.709821">
        <ele>21.2864</ele>
        <time>2014-07-02T10:45:29Z</time>
      </trkpt>
      <trkpt lat="59.9115244" lon="17.7098004">
        <ele>23.209</ele>
        <time>2014-07-02T10:45:30Z</time>
      </trkpt>
      <trkpt lat="59.9115167" lon="17.7097773">
        <ele>24.1703</ele>
        <time>2014-07-02T10:45:31Z</time>
      </trkpt>
      <trkpt lat="59.911511" lon="17.709755">
        <ele>23.6896</ele>
        <time>2014-07-02T10:45:32Z</time>
      </trkpt>
      <trkpt lat="59.9114993" lon="17.7097304">
        <ele>23.6896</ele>
        <time>2014-07-02T10:45:33Z</time>
      </trkpt>
      <trkpt lat="59.9114926" lon="17.709706">
        <ele>23.6896</ele>
        <time>2014-07-02T10:45:34Z</time>
      </trkpt>
      <trkpt lat="59.9114904" lon="17.7096807">
        <ele>25.6123</ele>
        <time>2014-07-02T10:45:35Z</time>
      </trkpt>
      <trkpt lat="59.9114877" lon="17.7096589">
        <ele>25.6123</ele>
        <time>2014-07-02T10:45:36Z</time>
      </trkpt>
      <trkpt lat="59.9114854" lon="17.7096398">
        <ele>26.0929</ele>
        <time>2014-07-02T10:45:37Z</time>
      </trkpt>
      <trkpt lat="59.9114808" lon="17.7096154">
        <ele>26.0929</ele>
        <time>2014-07-02T10:45:38Z</time>
      </trkpt>
      <trkpt lat="59.9114819" lon="17.7096055">
        <ele>27.0543</ele>
        <time>2014-07-02T10:45:39Z</time>
      </trkpt>
      <trkpt lat="59.9114814" lon="17.7095926">
        <ele>28.4962</ele>
        <time>2014-07-02T10:45:40Z</time>
      </trkpt>
      <trkpt lat="59.9114736" lon="17.7095702">
        <ele>28.9769</ele>
        <time>2014-07-02T10:45:41Z</time>
      </trkpt>
      <trkpt lat="59.9114689" lon="17.709545">
        <ele>28.9769</ele>
        <time>2014-07-02T10:45:42Z</time>
      </trkpt>
      <trkpt lat="59.9114616" lon="17.7095251">
        <ele>29.9381</ele>
        <time>2014-07-02T10:45:43Z</time>
      </trkpt>
      <trkpt lat="59.9114552" lon="17.7095093">
        <ele>30.8995</ele>
        <time>2014-07-02T10:45:44Z</time>
      </trkpt>
      <trkpt lat="59.9114526" lon="17.7094917">
        <ele>32.3416</ele>
        <time>2014-07-02T10:45:45Z</time>
      </trkpt>
      <trkpt lat="59.9114519" lon="17.7094719">
        <ele>34.2642</ele>
        <time>2014-07-02T10:45:46Z</time>
      </trkpt>
      <trkpt lat="59.9114523" lon="17.709451">
        <ele>35.7061</ele>
        <time>2014-07-02T10:45:47Z</time>
      </trkpt>
      <trkpt lat="59.9114512" lon="17.709434">
        <ele>36.6675</ele>
        <time>2014-07-02T10:45:48Z</time>
      </trkpt>
      <trkpt lat="59.9114444" lon="17.7094174">
        <ele>37.1481</ele>
        <time>2014-07-02T10:45:49Z</time>
      </trkpt>
      <trkpt lat="59.9114352" lon="17.7094019">
        <ele>38.1094</ele>
        <time>2014-07-02T10:45:50Z</time>
      </trkpt>
      <trkpt lat="59.9114243" lon="17.7093873">
        <ele>39.5513</ele>
        <time>2014-07-02T10:45:51Z</time>
      </trkpt>
      <trkpt lat="59.9114087" lon="17.7093734">
        <ele>39.0707</ele>
        <time>2014-07-02T10:45:52Z</time>
      </trkpt>
      <trkpt lat="59.9113913" lon="17.7093689">
        <ele>40.0321</ele>
        <time>2014-07-02T10:45:53Z</time>
      </trkpt>
      <trkpt lat="59.9113789" lon="17.7093531">
        <ele>40.5128</ele>
        <time>2014-07-02T10:45:54Z</time>
      </trkpt>
      <trkpt lat="59.9113658" lon="17.7093438">
        <ele>40.0321</ele>
        <time>2014-07-02T10:45:55Z</time>
      </trkpt>
      <trkpt lat="59.9113581" lon="17.7093324">
        <ele>40.5128</ele>
        <time>2014-07-02T10:45:56Z</time>
      </trkpt>
      <trkpt lat="59.9113466" lon="17.7093242">
        <ele>40.5128</ele>
        <time>2014-07-02T10:45:57Z</time>
      </trkpt>
      <trkpt lat="59.9113363" lon="17.7093169">
        <ele>40.9934</ele>
        <time>2014-07-02T10:45:58Z</time>
      </trkpt>
      <trkpt lat="59.9113248" lon="17.7093104">
        <ele>41.474</ele>
        <time>2014-07-02T10:45:59Z</time>
      </trkpt>
      <trkpt lat="59.9113144" lon="17.7092971">
        <ele>42.4354</ele>
        <time>2014-07-02T10:46:00Z</time>
      </trkpt>
      <trkpt lat="59.9112993" lon="17.7092816">
        <ele>41.474</ele>
        <time>2014-07-02T10:46:01Z</time>
      </trkpt>
      <trkpt lat="59.9112834" lon="17.7092684">
        <ele>40.5128</ele>
        <time>2014-07-02T10:46:02Z</time>
      </trkpt>
      <trkpt lat="59.9112668" lon="17.7092677">
        <ele>39.5513</ele>
        <time>2014-07-02T10:46:03Z</time>
      </trkpt>
      <trkpt lat="59.9112527" lon="17.7092622">
        <ele>39.0707</ele>
        <time>2014-07-02T10:46:04Z</time>
      </trkpt>
      <trkpt lat="59.9112423" lon="17.7092564">
        <ele>40.0321</ele>
        <time>2014-07-02T10:46:05Z</time>
      </trkpt>
      <trkpt lat="59.9112309" lon="17.7092441">
        <ele>38.5901</ele>
        <time>2014-07-02T10:46:06Z</time>
      </trkpt>
      <trkpt lat="59.9112154" lon="17.7092494">
        <ele>40.5128</ele>
        <time>2014-07-02T10:46:07Z</time>
      </trkpt>
      <trkpt lat="59.9112001" lon="17.7092445">
        <ele>40.0321</ele>
        <time>2014-07-02T10:46:08Z</time>
      </trkpt>
      <trkpt lat="59.9111855" lon="17.7092407">
        <ele>38.5901</ele>
        <time>2014-07-02T10:46:09Z</time>
      </trkpt>
      <trkpt lat="59.9111712" lon="17.7092455">
        <ele>38.1094</ele>
        <time>2014-07-02T10:46:10Z</time>
      </trkpt>
      <trkpt lat="59.9111548" lon="17.709246">
        <ele>36.6675</ele>
        <time>2014-07-02T10:46:11Z</time>
      </trkpt>
      <trkpt lat="59.9111401" lon="17.709246">
        <ele>35.7061</ele>
        <time>2014-07-02T10:46:12Z</time>
      </trkpt>
      <trkpt lat="59.9111258" lon="17.7092532">
        <ele>34.7449</ele>
        <time>2014-07-02T10:46:13Z</time>
      </trkpt>
      <trkpt lat="59.9111144" lon="17.7092598">
        <ele>33.7834</ele>
        <time>2014-07-02T10:46:14Z</time>
      </trkpt>
      <trkpt lat="59.911102" lon="17.7092652">
        <ele>33.3029</ele>
        <time>2014-07-02T10:46:15Z</time>
      </trkpt>
      <trkpt lat="59.9110896" lon="17.7092595">
        <ele>31.8607</ele>
        <time>2014-07-02T10:46:16Z</time>
      </trkpt>
      <trkpt lat="59.911076" lon="17.7092632">
        <ele>30.8995</ele>
        <time>2014-07-02T10:46:17Z</time>
      </trkpt>
      <trkpt lat="59.9110643" lon="17.7092754">
        <ele>29.9381</ele>
        <time>2014-07-02T10:46:18Z</time>
      </trkpt>
      <trkpt lat="59.9110529" lon="17.7092811">
        <ele>28.9769</ele>
        <time>2014-07-02T10:46:19Z</time>
      </trkpt>
      <trkpt lat="59.9110387" lon="17.7092963">
        <ele>28.4962</ele>
        <time>2014-07-02T10:46:20Z</time>
      </trkpt>
      <trkpt lat="59.9110248" lon="17.7093069">
        <ele>27.0543</ele>
        <time>2014-07-02T10:46:21Z</time>
      </trkpt>
      <trkpt lat="59.9110141" lon="17.7093095">
        <ele>25.6123</ele>
        <time>2014-07-02T10:46:22Z</time>
      </trkpt>
      <trkpt lat="59.9109978" lon="17.709299">
        <ele>23.6896</ele>
        <time>2014-07-02T10:46:23Z</time>
      </trkpt>
      <trkpt lat="59.9109825" lon="17.7092895">
        <ele>22.7283</ele>
        <time>2014-07-02T10:46:24Z</time>
      </trkpt>
      <trkpt lat="59.9109717" lon="17.7092865">
        <ele>22.2476</ele>
        <time>2014-07-02T10:46:25Z</time>
      </trkpt>
      <trkpt lat="59.9109561" lon="17.7092984">
        <ele>25.1317</ele>
        <time>2014-07-02T10:46:26Z</time>
      </trkpt>
      <trkpt lat="59.910943" lon="17.7092827">
        <ele>25.6123</ele>
        <time>2014-07-02T10:46:27Z</time>
      </trkpt>
      <trkpt lat="59.9109326" lon="17.7092677">
        <ele>26.0929</ele>
        <time>2014-07-02T10:46:28Z</time>
      </trkpt>
      <trkpt lat="59.9109187" lon="17.7092565">
        <ele>26.0929</ele>
        <time>2014-07-02T10:46:29Z</time>
      </trkpt>
      <trkpt lat="59.910908" lon="17.7092498">
        <ele>27.0543</ele>
        <time>2014-07-02T10:46:30Z</time>
      </trkpt>
      <trkpt lat="59.9108961" lon="17.7092406">
        <ele>27.0543</ele>
        <time>2014-07-02T10:46:31Z</time>
      </trkpt>
      <trkpt lat="59.9108871" lon="17.7092419">
        <ele>28.9769</ele>
        <time>2014-07-02T10:46:32Z</time>
      </trkpt>
      <trkpt lat="59.910879" lon="17.7092408">
        <ele>31.8607</ele>
        <time>2014-07-02T10:46:33Z</time>
      </trkpt>
      <trkpt lat="59.9108799" lon="17.7092268">
        <ele>35.2255</ele>
        <time>2014-07-02T10:46:34Z</time>
      </trkpt>
      <trkpt lat="59.9108733" lon="17.7092125">
        <ele>35.7061</ele>
        <time>2014-07-02T10:46:35Z</time>
      </trkpt>
      <trkpt lat="59.9108663" lon="17.7091999">
        <ele>35.7061</ele>
        <time>2014-07-02T10:46:36Z</time>
      </trkpt>
      <trkpt lat="59.9108617" lon="17.7091838">
        <ele>37.1481</ele>
        <time>2014-07-02T10:46:37Z</time>
      </trkpt>
      <trkpt lat="59.9108519" lon="17.709178">
        <ele>38.1094</ele>
        <time>2014-07-02T10:46:38Z</time>
      </trkpt>
      <trkpt lat="59.9108411" lon="17.709171">
        <ele>39.0707</ele>
        <time>2014-07-02T10:46:39Z</time>
      </trkpt>
      <trkpt lat="59.910829" lon="17.7091542">
        <ele>39.5513</ele>
        <time>2014-07-02T10:46:40Z</time>
      </trkpt>
      <trkpt lat="59.9108153" lon="17.7091438">
        <ele>40.0321</ele>
        <time>2014-07-02T10:46:41Z</time>
      </trkpt>
      <trkpt lat="59.9107981" lon="17.709131">
        <ele>40.9934</ele>
        <time>2014-07-02T10:46:42Z</time>
      </trkpt>
      <trkpt lat="59.9107841" lon="17.7091164">
        <ele>40.9934</ele>
        <time>2014-07-02T10:46:43Z</time>
      </trkpt>
      <trkpt lat="59.9107723" lon="17.7091102">
        <ele>41.9547</ele>
        <time>2014-07-02T10:46:44Z</time>
      </trkpt>
      <trkpt lat="59.9107613" lon="17.7091068">
        <ele>43.3966</ele>
        <time>2014-07-02T10:46:45Z</time>
      </trkpt>
      <trkpt lat="59.9107505" lon="17.709102">
        <ele>43.3966</ele>
        <time>2014-07-02T10:46:46Z</time>
      </trkpt>
      <trkpt lat="59.9107378" lon="17.7090949">
        <ele>42.4354</ele>
        <time>2014-07-02T10:46:47Z</time>
      </trkpt>
      <trkpt lat="59.9107203" lon="17.7090853">
        <ele>40.9934</ele>
        <time>2014-07-02T10:46:48Z</time>
      </trkpt>
      <trkpt lat="59.9107057" lon="17.7090801">
        <ele>40.0321</ele>
        <time>2014-07-02T10:46:49Z</time>
      </trkpt>
      <trkpt lat="59.9106891" lon="17.7090823">
        <ele>38.5901</ele>
        <time>2014-07-02T10:46:50Z</time>
      </trkpt>
      <trkpt lat="59.9106773" lon="17.7090865">
        <ele>37.6287</ele>
        <time>2014-07-02T10:46:51Z</time>
      </trkpt>
      <trkpt lat="59.910666" lon="17.7090979">
        <ele>37.6287</ele>
        <time>2014-07-02T10:46:52Z</time>
      </trkpt>
      <trkpt lat="59.910653" lon="17.7091133">
        <ele>39.5513</ele>
        <time>2014-07-02T10:46:53Z</time>
      </trkpt>
      <trkpt lat="59.9106373" lon="17.7091216">
        <ele>38.5901</ele>
        <time>2014-07-02T10:46:54Z</time>
      </trkpt>
      <trkpt lat="59.9106181" lon="17.7091336">
        <ele>39.5513</ele>
        <time>2014-07-02T10:46:55Z</time>
      </trkpt>
      <trkpt lat="59.9105995" lon="17.7091339">
        <ele>38.1094</ele>
        <time>2014-07-02T10:46:56Z</time>
      </trkpt>
      <trkpt lat="59.9105795" lon="17.7091289">
        <ele>37.1481</ele>
        <time>2014-07-02T10:46:57Z</time>
      </trkpt>
      <trkpt lat="59.9105634" lon="17.7091371">
        <ele>37.1481</ele>
        <time>2014-07-02T10:46:58Z</time>
      </trkpt>
      <trkpt lat="59.9105484" lon="17.7091481">
        <ele>37.1481</ele>
        <time>2014-07-02T10:46:59Z</time>
      </trkpt>
      <trkpt lat="59.9105339" lon="17.7091524">
        <ele>37.6287</ele>
        <time>2014-07-02T10:47:00Z</time>
      </trkpt>
      <trkpt lat="59.9105193" lon="17.7091554">
        <ele>36.6675</ele>
        <time>2014-07-02T10:47:01Z</time>
      </trkpt>
      <trkpt lat="59.9104974" lon="17.7091558">
        <ele>36.1868</ele>
        <time>2014-07-02T10:47:02Z</time>
      </trkpt>
      <trkpt lat="59.910482" lon="17.7091481">
        <ele>35.7061</ele>
        <time>2014-07-02T10:47:03Z</time>
      </trkpt>
      <trkpt lat="59.9104716" lon="17.7091334">
        <ele>36.6675</ele>
        <time>2014-07-02T10:47:04Z</time>
      </trkpt>
      <trkpt lat="59.910462" lon="17.7091161">
        <ele>36.1868</ele>
        <time>2014-07-02T10:47:05Z</time>
      </trkpt>
      <trkpt lat="59.9104504" lon="17.7090984">
        <ele>36.1868</ele>
        <time>2014-07-02T10:47:06Z</time>
      </trkpt>
      <trkpt lat="59.9104381" lon="17.7090961">
        <ele>37.1481</ele>
        <time>2014-07-02T10:47:07Z</time>
      </trkpt>
      <trkpt lat="59.9104247" lon="17.7091003">
        <ele>38.5901</ele>
        <time>2014-07-02T10:47:08Z</time>
      </trkpt>
      <trkpt lat="59.9104148" lon="17.7091028">
        <ele>40.0321</ele>
        <time>2014-07-02T10:47:09Z</time>
      </trkpt>
      <trkpt lat="59.9104048" lon="17.7091004">
        <ele>41.474</ele>
        <time>2014-07-02T10:47:10Z</time>
      </trkpt>
      <trkpt lat="59.9103943" lon="17.7090886">
        <ele>41.9547</ele>
        <time>2014-07-02T10:47:11Z</time>
      </trkpt>
      <trkpt lat="59.9103894" lon="17.7090803">
        <ele>42.916</ele>
        <time>2014-07-02T10:47:12Z</time>
      </trkpt>
      <trkpt lat="59.9103819" lon="17.7090754">
        <ele>43.8773</ele>
        <time>2014-07-02T10:47:13Z</time>
      </trkpt>
      <trkpt lat="59.910367" lon="17.7090699">
        <ele>43.8773</ele>
        <time>2014-07-02T10:47:14Z</time>
      </trkpt>
      <trkpt lat="59.9103557" lon="17.7090502">
        <ele>43.8773</ele>
        <time>2014-07-02T10:47:15Z</time>
      </trkpt>
      <trkpt lat="59.9103402" lon="17.7090259">
        <ele>43.8773</ele>
        <time>2014-07-02T10:47:16Z</time>
      </trkpt>
      <trkpt lat="59.9103251" lon="17.7090119">
        <ele>43.3966</ele>
        <time>2014-07-02T10:47:17Z</time>
      </trkpt>
      <trkpt lat="59.9103121" lon="17.7090015">
        <ele>42.916</ele>
        <time>2014-07-02T10:47:18Z</time>
      </trkpt>
      <trkpt lat="59.9102954" lon="17.7089979">
        <ele>42.4354</ele>
        <time>2014-07-02T10:47:19Z</time>
      </trkpt>
      <trkpt lat="59.9102775" lon="17.7089938">
        <ele>41.474</ele>
        <time>2014-07-02T10:47:20Z</time>
      </trkpt>
      <trkpt lat="59.9102593" lon="17.7089932">
        <ele>40.5128</ele>
        <time>2014-07-02T10:47:21Z</time>
      </trkpt>
      <trkpt lat="59.9102428" lon="17.7089917">
        <ele>40.0321</ele>
        <time>2014-07-02T10:47:22Z</time>
      </trkpt>
      <trkpt lat="59.9102235" lon="17.7089878">
        <ele>38.5901</ele>
        <time>2014-07-02T10:47:23Z</time>
      </trkpt>
      <trkpt lat="59.9102024" lon="17.7089963">
        <ele>36.6675</ele>
        <time>2014-07-02T10:47:24Z</time>
      </trkpt>
      <trkpt lat="59.9101828" lon="17.7090046">
        <ele>35.2255</ele>
        <time>2014-07-02T10:47:25Z</time>
      </trkpt>
      <trkpt lat="59.9101636" lon="17.7090108">
        <ele>32.8223</ele>
        <time>2014-07-02T10:47:26Z</time>
      </trkpt>
      <trkpt lat="59.9101467" lon="17.7090129">
        <ele>31.3801</ele>
        <time>2014-07-02T10:47:27Z</time>
      </trkpt>
      <trkpt lat="59.9101283" lon="17.7090283">
        <ele>33.3029</ele>
        <time>2014-07-02T10:47:28Z</time>
      </trkpt>
      <trkpt lat="59.9101143" lon="17.7090296">
        <ele>31.8607</ele>
        <time>2014-07-02T10:47:29Z</time>
      </trkpt>
      <trkpt lat="59.9101008" lon="17.7090372">
        <ele>30.8995</ele>
        <time>2014-07-02T10:47:30Z</time>
      </trkpt>
      <trkpt lat="59.9100858" lon="17.7090417">
        <ele>28.9769</ele>
        <time>2014-07-02T10:47:31Z</time>
      </trkpt>
      <trkpt lat="59.910068" lon="17.7090502">
        <ele>27.0543</ele>
        <time>2014-07-02T10:47:32Z</time>
      </trkpt>
      <trkpt lat="59.9100514" lon="17.7090569">
        <ele>26.5736</ele>
        <time>2014-07-02T10:47:33Z</time>
      </trkpt>
      <trkpt lat="59.9100345" lon="17.7090614">
        <ele>27.0543</ele>
        <time>2014-07-02T10:47:34Z</time>
      </trkpt>
      <trkpt lat="59.9100124" lon="17.709063">
        <ele>26.5736</ele>
        <time>2014-07-02T10:47:35Z</time>
      </trkpt>
      <trkpt lat="59.9099966" lon="17.7090611">
        <ele>26.0929</ele>
        <time>2014-07-02T10:47:36Z</time>
      </trkpt>
      <trkpt lat="59.9099821" lon="17.7090626">
        <ele>25.6123</ele>
        <time>2014-07-02T10:47:37Z</time>
      </trkpt>
      <trkpt lat="59.9099659" lon="17.7090692">
        <ele>25.1317</ele>
        <time>2014-07-02T10:47:38Z</time>
      </trkpt>
      <trkpt lat="59.9099516" lon="17.7090786">
        <ele>24.651</ele>
        <time>2014-07-02T10:47:39Z</time>
      </trkpt>
      <trkpt lat="59.9099377" lon="17.7090861">
        <ele>23.6896</ele>
        <time>2014-07-02T10:47:40Z</time>
      </trkpt>
      <trkpt lat="59.9099233" lon="17.7090848">
        <ele>22.2476</ele>
        <time>2014-07-02T10:47:41Z</time>
      </trkpt>
      <trkpt lat="59.9099081" lon="17.7090916">
        <ele>20.8057</ele>
        <time>2014-07-02T10:47:42Z</time>
      </trkpt>
      <trkpt lat="59.9098921" lon="17.7090915">
        <ele>19.3638</ele>
        <time>2014-07-02T10:47:43Z</time>
      </trkpt>
      <trkpt lat="59.9098746" lon="17.709094">
        <ele>18.4023</ele>
        <time>2014-07-02T10:47:44Z</time>
      </trkpt>
      <trkpt lat="59.9098594" lon="17.7090954">
        <ele>16.4797</ele>
        <time>2014-07-02T10:47:45Z</time>
      </trkpt>
      <trkpt lat="59.9098416" lon="17.7090971">
        <ele>15.5184</ele>
        <time>2014-07-02T10:47:46Z</time>
      </trkpt>
      <trkpt lat="59.9098271" lon="17.7090943">
        <ele>14.0764</ele>
        <time>2014-07-02T10:47:47Z</time>
      </trkpt>
      <trkpt lat="59.9098132" lon="17.7090904">
        <ele>13.1151</ele>
        <time>2014-07-02T10:47:48Z</time>
      </trkpt>
      <trkpt lat="59.9098003" lon="17.7090914">
        <ele>12.1538</ele>
        <time>2014-07-02T10:47:49Z</time>
      </trkpt>
      <trkpt lat="59.9097872" lon="17.7090968">
        <ele>11.1925</ele>
        <time>2014-07-02T10:47:50Z</time>
      </trkpt>
      <trkpt lat="59.9097727" lon="17.7090989">
        <ele>10.2312</ele>
        <time>2014-07-02T10:47:51Z</time>
      </trkpt>
      <trkpt lat="59.909758" lon="17.7091098">
        <ele>10.2312</ele>
        <time>2014-07-02T10:47:52Z</time>
      </trkpt>
      <trkpt lat="59.9097471" lon="17.7091203">
        <ele>9.2699</ele>
        <time>2014-07-02T10:47:53Z</time>
      </trkpt>
      <trkpt lat="59.9097336" lon="17.7091191">
        <ele>7.82788</ele>
        <time>2014-07-02T10:47:54Z</time>
      </trkpt>
      <trkpt lat="59.9097187" lon="17.7091289">
        <ele>6.86646</ele>
        <time>2014-07-02T10:47:55Z</time>
      </trkpt>
      <trkpt lat="59.9097064" lon="17.7091383">
        <ele>5.90527</ele>
        <time>2014-07-02T10:47:56Z</time>
      </trkpt>
      <trkpt lat="59.9096916" lon="17.7091569">
        <ele>4.94385</ele>
        <time>2014-07-02T10:47:57Z</time>
      </trkpt>
      <trkpt lat="59.9096755" lon="17.7091755">
        <ele>5.42456</ele>
        <time>2014-07-02T10:47:58Z</time>
      </trkpt>
      <trkpt lat="59.909665" lon="17.7091822">
        <ele>4.46326</ele>
        <time>2014-07-02T10:47:59Z</time>
      </trkpt>
      <trkpt lat="59.9096492" lon="17.7092009">
        <ele>4.94385</ele>
        <time>2014-07-02T10:48:00Z</time>
      </trkpt>
      <trkpt lat="59.9096381" lon="17.7092231">
        <ele>5.42456</ele>
        <time>2014-07-02T10:48:01Z</time>
      </trkpt>
      <trkpt lat="59.9096194" lon="17.7092627">
        <ele>8.30859</ele>
        <time>2014-07-02T10:48:02Z</time>
      </trkpt>
      <trkpt lat="59.9096061" lon="17.7092947">
        <ele>8.78918</ele>
        <time>2014-07-02T10:48:03Z</time>
      </trkpt>
      <trkpt lat="59.9095911" lon="17.7093279">
        <ele>7.34717</ele>
        <time>2014-07-02T10:48:04Z</time>
      </trkpt>
      <trkpt lat="59.9095771" lon="17.7093546">
        <ele>7.34717</ele>
        <time>2014-07-02T10:48:05Z</time>
      </trkpt>
      <trkpt lat="59.9095688" lon="17.709374">
        <ele>7.82788</ele>
        <time>2014-07-02T10:48:06Z</time>
      </trkpt>
      <trkpt lat="59.9095584" lon="17.7094003">
        <ele>7.82788</ele>
        <time>2014-07-02T10:48:07Z</time>
      </trkpt>
      <trkpt lat="59.9095501" lon="17.7094162">
        <ele>7.34717</ele>
        <time>2014-07-02T10:48:08Z</time>
      </trkpt>
      <trkpt lat="59.9095386" lon="17.7094268">
        <ele>7.34717</ele>
        <time>2014-07-02T10:48:09Z</time>
      </trkpt>
      <trkpt lat="59.9095269" lon="17.7094421">
        <ele>7.34717</ele>
        <time>2014-07-02T10:48:10Z</time>
      </trkpt>
      <trkpt lat="59.9095137" lon="17.7094532">
        <ele>6.38586</ele>
        <time>2014-07-02T10:48:11Z</time>
      </trkpt>
      <trkpt lat="59.909501" lon="17.7094748">
        <ele>5.90527</ele>
        <time>2014-07-02T10:48:12Z</time>
      </trkpt>
      <trkpt lat="59.9094931" lon="17.709489">
        <ele>6.38586</ele>
        <time>2014-07-02T10:48:13Z</time>
      </trkpt>
      <trkpt lat="59.9094861" lon="17.7095023">
        <ele>6.38586</ele>
        <time>2014-07-02T10:48:14Z</time>
      </trkpt>
      <trkpt lat="59.9094785" lon="17.7095173">
        <ele>6.38586</ele>
        <time>2014-07-02T10:48:15Z</time>
      </trkpt>
      <trkpt lat="59.9094671" lon="17.7095315">
        <ele>5.42456</ele>
        <time>2014-07-02T10:48:16Z</time>
      </trkpt>
      <trkpt lat="59.9094581" lon="17.7095466">
        <ele>6.38586</ele>
        <time>2014-07-02T10:48:17Z</time>
      </trkpt>
      <trkpt lat="59.9094569" lon="17.7095599">
        <ele>6.38586</ele>
        <time>2014-07-02T10:48:18Z</time>
      </trkpt>
      <trkpt lat="59.9094514" lon="17.7095853">
        <ele>6.38586</ele>
        <time>2014-07-02T10:48:19Z</time>
      </trkpt>
      <trkpt lat="59.9094392" lon="17.7096053">
        <ele>6.38586</ele>
        <time>2014-07-02T10:48:20Z</time>
      </trkpt>
      <trkpt lat="59.909422" lon="17.7096397">
        <ele>9.2699</ele>
        <time>2014-07-02T10:48:21Z</time>
      </trkpt>
      <trkpt lat="59.9094092" lon="17.7096542">
        <ele>8.30859</ele>
        <time>2014-07-02T10:48:22Z</time>
      </trkpt>
      <trkpt lat="59.9093944" lon="17.7096682">
        <ele>7.34717</ele>
        <time>2014-07-02T10:48:23Z</time>
      </trkpt>
      <trkpt lat="59.9093781" lon="17.7096884">
        <ele>6.86646</ele>
        <time>2014-07-02T10:48:24Z</time>
      </trkpt>
      <trkpt lat="59.9093601" lon="17.7096981">
        <ele>6.38586</ele>
        <time>2014-07-02T10:48:25Z</time>
      </trkpt>
      <trkpt lat="59.909345" lon="17.7097133">
        <ele>6.38586</ele>
        <time>2014-07-02T10:48:26Z</time>
      </trkpt>
      <trkpt lat="59.9093316" lon="17.7097236">
        <ele>5.42456</ele>
        <time>2014-07-02T10:48:27Z</time>
      </trkpt>
      <trkpt lat="59.9093192" lon="17.7097443">
        <ele>4.46326</ele>
        <time>2014-07-02T10:48:28Z</time>
      </trkpt>
      <trkpt lat="59.9093094" lon="17.7097599">
        <ele>3.50195</ele>
        <time>2014-07-02T10:48:29Z</time>
      </trkpt>
      <trkpt lat="59.9093024" lon="17.7097739">
        <ele>3.50195</ele>
        <time>2014-07-02T10:48:30Z</time>
      </trkpt>
      <trkpt lat="59.9092917" lon="17.7097868">
        <ele>3.98267</ele>
        <time>2014-07-02T10:48:31Z</time>
      </trkpt>
      <trkpt lat="59.9092776" lon="17.7098077">
        <ele>3.50195</ele>
        <time>2014-07-02T10:48:32Z</time>
      </trkpt>
      <trkpt lat="59.9092642" lon="17.7098276">
        <ele>4.46326</ele>
        <time>2014-07-02T10:48:33Z</time>
      </trkpt>
      <trkpt lat="59.9092501" lon="17.7098505">
        <ele>4.46326</ele>
        <time>2014-07-02T10:48:34Z</time>
      </trkpt>
      <trkpt lat="59.9092358" lon="17.7098726">
        <ele>3.98267</ele>
        <time>2014-07-02T10:48:35Z</time>
      </trkpt>
      <trkpt lat="59.9092258" lon="17.7098961">
        <ele>3.50195</ele>
        <time>2014-07-02T10:48:36Z</time>
      </trkpt>
      <trkpt lat="59.909217" lon="17.709911">
        <ele>3.02124</ele>
        <time>2014-07-02T10:48:37Z</time>
      </trkpt>
      <trkpt lat="59.9092073" lon="17.7099228">
        <ele>2.54065</ele>
        <time>2014-07-02T10:48:38Z</time>
      </trkpt>
      <trkpt lat="59.9091958" lon="17.709948">
        <ele>3.02124</ele>
        <time>2014-07-02T10:48:39Z</time>
      </trkpt>
      <trkpt lat="59.909185" lon="17.709971">
        <ele>3.50195</ele>
        <time>2014-07-02T10:48:40Z</time>
      </trkpt>
      <trkpt lat="59.9091746" lon="17.7099955">
        <ele>3.50195</ele>
        <time>2014-07-02T10:48:41Z</time>
      </trkpt>
      <trkpt lat="59.9091662" lon="17.7100189">
        <ele>3.98267</ele>
        <time>2014-07-02T10:48:42Z</time>
      </trkpt>
      <trkpt lat="59.9091587" lon="17.7100368">
        <ele>3.98267</ele>
        <time>2014-07-02T10:48:43Z</time>
      </trkpt>
      <trkpt lat="59.9091482" lon="17.7100562">
        <ele>3.50195</ele>
        <time>2014-07-02T10:48:44Z</time>
      </trkpt>
      <trkpt lat="59.9091392" lon="17.7100768">
        <ele>3.50195</ele>
        <time>2014-07-02T10:48:45Z</time>
      </trkpt>
      <trkpt lat="59.9091315" lon="17.7100975">
        <ele>3.50195</ele>
        <time>2014-07-02T10:48:46Z</time>
      </trkpt>
      <trkpt lat="59.9091208" lon="17.7101231">
        <ele>3.98267</ele>
        <time>2014-07-02T10:48:47Z</time>
      </trkpt>
      <trkpt lat="59.9091047" lon="17.7101638">
        <ele>6.86646</ele>
        <time>2014-07-02T10:48:48Z</time>
      </trkpt>
      <trkpt lat="59.9090876" lon="17.7101976">
        <ele>8.30859</ele>
        <time>2014-07-02T10:48:49Z</time>
      </trkpt>
      <trkpt lat="59.9090721" lon="17.7102145">
        <ele>7.82788</ele>
        <time>2014-07-02T10:48:50Z</time>
      </trkpt>
      <trkpt lat="59.9090582" lon="17.710228">
        <ele>7.34717</ele>
        <time>2014-07-02T10:48:51Z</time>
      </trkpt>
      <trkpt lat="59.909044" lon="17.7102498">
        <ele>9.75061</ele>
        <time>2014-07-02T10:48:52Z</time>
      </trkpt>
      <trkpt lat="59.9090296" lon="17.7102695">
        <ele>11.1925</ele>
        <time>2014-07-02T10:48:53Z</time>
      </trkpt>
      <trkpt lat="59.9090164" lon="17.7102903">
        <ele>11.1925</ele>
        <time>2014-07-02T10:48:54Z</time>
      </trkpt>
      <trkpt lat="59.9090019" lon="17.7103126">
        <ele>10.7118</ele>
        <time>2014-07-02T10:48:55Z</time>
      </trkpt>
      <trkpt lat="59.9089864" lon="17.7103314">
        <ele>9.2699</ele>
        <time>2014-07-02T10:48:56Z</time>
      </trkpt>
      <trkpt lat="59.9089747" lon="17.7103385">
        <ele>10.2312</ele>
        <time>2014-07-02T10:48:57Z</time>
      </trkpt>
      <trkpt lat="59.9089638" lon="17.7103561">
        <ele>9.2699</ele>
        <time>2014-07-02T10:48:58Z</time>
      </trkpt>
      <trkpt lat="59.908955" lon="17.7103652">
        <ele>9.75061</ele>
        <time>2014-07-02T10:48:59Z</time>
      </trkpt>
      <trkpt lat="59.9089465" lon="17.710371">
        <ele>9.2699</ele>
        <time>2014-07-02T10:49:00Z</time>
      </trkpt>
      <trkpt lat="59.9089373" lon="17.7103861">
        <ele>9.2699</ele>
        <time>2014-07-02T10:49:01Z</time>
      </trkpt>
      <trkpt lat="59.9089233" lon="17.7103969">
        <ele>7.82788</ele>
        <time>2014-07-02T10:49:02Z</time>
      </trkpt>
      <trkpt lat="59.9089103" lon="17.7104122">
        <ele>7.82788</ele>
        <time>2014-07-02T10:49:03Z</time>
      </trkpt>
      <trkpt lat="59.9088996" lon="17.7104167">
        <ele>7.34717</ele>
        <time>2014-07-02T10:49:04Z</time>
      </trkpt>
      <trkpt lat="59.9088835" lon="17.7104336">
        <ele>6.86646</ele>
        <time>2014-07-02T10:49:05Z</time>
      </trkpt>
      <trkpt lat="59.9088716" lon="17.7104394">
        <ele>8.30859</ele>
        <time>2014-07-02T10:49:06Z</time>
      </trkpt>
      <trkpt lat="59.9088591" lon="17.7104505">
        <ele>8.30859</ele>
        <time>2014-07-02T10:49:07Z</time>
      </trkpt>
      <trkpt lat="59.9088455" lon="17.7104627">
        <ele>8.30859</ele>
        <time>2014-07-02T10:49:08Z</time>
      </trkpt>
      <trkpt lat="59.9088323" lon="17.7104785">
        <ele>8.78918</ele>
        <time>2014-07-02T10:49:09Z</time>
      </trkpt>
      <trkpt lat="59.9088208" lon="17.7104897">
        <ele>8.78918</ele>
        <time>2014-07-02T10:49:10Z</time>
      </trkpt>
      <trkpt lat="59.9088063" lon="17.710508">
        <ele>8.30859</ele>
        <time>2014-07-02T10:49:11Z</time>
      </trkpt>
      <trkpt lat="59.9087924" lon="17.710529">
        <ele>8.78918</ele>
        <time>2014-07-02T10:49:12Z</time>
      </trkpt>
      <trkpt lat="59.9087823" lon="17.7105436">
        <ele>9.2699</ele>
        <time>2014-07-02T10:49:13Z</time>
      </trkpt>
      <trkpt lat="59.9087697" lon="17.7105562">
        <ele>10.2312</ele>
        <time>2014-07-02T10:49:14Z</time>
      </trkpt>
      <trkpt lat="59.9087546" lon="17.7105758">
        <ele>10.2312</ele>
        <time>2014-07-02T10:49:15Z</time>
      </trkpt>
      <trkpt lat="59.9087421" lon="17.7105985">
        <ele>10.2312</ele>
        <time>2014-07-02T10:49:16Z</time>
      </trkpt>
      <trkpt lat="59.9087321" lon="17.710616">
        <ele>9.75061</ele>
        <time>2014-07-02T10:49:17Z</time>
      </trkpt>
      <trkpt lat="59.9087177" lon="17.7106352">
        <ele>9.2699</ele>
        <time>2014-07-02T10:49:18Z</time>
      </trkpt>
      <trkpt lat="59.9087036" lon="17.7106632">
        <ele>9.2699</ele>
        <time>2014-07-02T10:49:19Z</time>
      </trkpt>
      <trkpt lat="59.9086913" lon="17.7106836">
        <ele>11.6732</ele>
        <time>2014-07-02T10:49:20Z</time>
      </trkpt>
      <trkpt lat="59.9086825" lon="17.7107021">
        <ele>14.0764</ele>
        <time>2014-07-02T10:49:21Z</time>
      </trkpt>
      <trkpt lat="59.9086738" lon="17.7107161">
        <ele>15.5184</ele>
        <time>2014-07-02T10:49:22Z</time>
      </trkpt>
      <trkpt lat="59.9086652" lon="17.7107291">
        <ele>16.9604</ele>
        <time>2014-07-02T10:49:23Z</time>
      </trkpt>
      <trkpt lat="59.9086556" lon="17.7107394">
        <ele>15.999</ele>
        <time>2014-07-02T10:49:24Z</time>
      </trkpt>
      <trkpt lat="59.9086398" lon="17.7107548">
        <ele>15.5184</ele>
        <time>2014-07-02T10:49:25Z</time>
      </trkpt>
      <trkpt lat="59.9086262" lon="17.7107721">
        <ele>15.5184</ele>
        <time>2014-07-02T10:49:26Z</time>
      </trkpt>
      <trkpt lat="59.9086114" lon="17.7107871">
        <ele>15.999</ele>
        <time>2014-07-02T10:49:27Z</time>
      </trkpt>
      <trkpt lat="59.9086022" lon="17.7108014">
        <ele>15.999</ele>
        <time>2014-07-02T10:49:28Z</time>
      </trkpt>
      <trkpt lat="59.9085928" lon="17.7108188">
        <ele>15.999</ele>
        <time>2014-07-02T10:49:29Z</time>
      </trkpt>
      <trkpt lat="59.9085801" lon="17.7108411">
        <ele>15.999</ele>
        <time>2014-07-02T10:49:30Z</time>
      </trkpt>
      <trkpt lat="59.908569" lon="17.7108608">
        <ele>16.4797</ele>
        <time>2014-07-02T10:49:31Z</time>
      </trkpt>
      <trkpt lat="59.9085557" lon="17.710884">
        <ele>15.5184</ele>
        <time>2014-07-02T10:49:32Z</time>
      </trkpt>
      <trkpt lat="59.9085481" lon="17.7109057">
        <ele>15.999</ele>
        <time>2014-07-02T10:49:33Z</time>
      </trkpt>
      <trkpt lat="59.9085397" lon="17.7109271">
        <ele>15.5184</ele>
        <time>2014-07-02T10:49:34Z</time>
      </trkpt>
      <trkpt lat="59.9085339" lon="17.7109492">
        <ele>15.999</ele>
        <time>2014-07-02T10:49:35Z</time>
      </trkpt>
      <trkpt lat="59.90852" lon="17.7109841">
        <ele>19.3638</ele>
        <time>2014-07-02T10:49:36Z</time>
      </trkpt>
      <trkpt lat="59.9085062" lon="17.711019">
        <ele>22.2476</ele>
        <time>2014-07-02T10:49:37Z</time>
      </trkpt>
      <trkpt lat="59.9085" lon="17.7110429">
        <ele>24.1703</ele>
        <time>2014-07-02T10:49:38Z</time>
      </trkpt>
      <trkpt lat="59.9084955" lon="17.7110601">
        <ele>25.1317</ele>
        <time>2014-07-02T10:49:39Z</time>
      </trkpt>
      <trkpt lat="59.9084899" lon="17.711077">
        <ele>25.1317</ele>
        <time>2014-07-02T10:49:40Z</time>
      </trkpt>
      <trkpt lat="59.9084825" lon="17.7111075">
        <ele>24.1703</ele>
        <time>2014-07-02T10:49:41Z</time>
      </trkpt>
      <trkpt lat="59.9084727" lon="17.7111383">
        <ele>23.6896</ele>
        <time>2014-07-02T10:49:42Z</time>
      </trkpt>
      <trkpt lat="59.9084648" lon="17.7111733">
        <ele>23.6896</ele>
        <time>2014-07-02T10:49:43Z</time>
      </trkpt>
      <trkpt lat="59.9084567" lon="17.7112015">
        <ele>25.6123</ele>
        <time>2014-07-02T10:49:44Z</time>
      </trkpt>
      <trkpt lat="59.9084488" lon="17.7112351">
        <ele>25.1317</ele>
        <time>2014-07-02T10:49:45Z</time>
      </trkpt>
      <trkpt lat="59.9084422" lon="17.7112682">
        <ele>24.651</ele>
        <time>2014-07-02T10:49:46Z</time>
      </trkpt>
      <trkpt lat="59.908438" lon="17.7112987">
        <ele>24.651</ele>
        <time>2014-07-02T10:49:47Z</time>
      </trkpt>
      <trkpt lat="59.9084353" lon="17.71133">
        <ele>25.1317</ele>
        <time>2014-07-02T10:49:48Z</time>
      </trkpt>
      <trkpt lat="59.9084357" lon="17.7113624">
        <ele>25.6123</ele>
        <time>2014-07-02T10:49:49Z</time>
      </trkpt>
      <trkpt lat="59.9084317" lon="17.7114015">
        <ele>26.0929</ele>
        <time>2014-07-02T10:49:50Z</time>
      </trkpt>
      <trkpt lat="59.9084302" lon="17.7114325">
        <ele>26.5736</ele>
        <time>2014-07-02T10:49:51Z</time>
      </trkpt>
      <trkpt lat="59.9084276" lon="17.7114713">
        <ele>27.5349</ele>
        <time>2014-07-02T10:49:52Z</time>
      </trkpt>
      <trkpt lat="59.9084261" lon="17.7115041">
        <ele>28.4962</ele>
        <time>2014-07-02T10:49:53Z</time>
      </trkpt>
      <trkpt lat="59.9084234" lon="17.7115357">
        <ele>28.4962</ele>
        <time>2014-07-02T10:49:54Z</time>
      </trkpt>
      <trkpt lat="59.9084219" lon="17.7115681">
        <ele>28.9769</ele>
        <time>2014-07-02T10:49:55Z</time>
      </trkpt>
      <trkpt lat="59.9084233" lon="17.7115957">
        <ele>29.4575</ele>
        <time>2014-07-02T10:49:56Z</time>
      </trkpt>
      <trkpt lat="59.9084233" lon="17.7116207">
        <ele>29.9381</ele>
        <time>2014-07-02T10:49:57Z</time>
      </trkpt>
      <trkpt lat="59.9084231" lon="17.7116475">
        <ele>29.4575</ele>
        <time>2014-07-02T10:49:58Z</time>
      </trkpt>
      <trkpt lat="59.9084292" lon="17.711675">
        <ele>28.9769</ele>
        <time>2014-07-02T10:49:59Z</time>
      </trkpt>
      <trkpt lat="59.9084338" lon="17.7117143">
        <ele>28.4962</ele>
        <time>2014-07-02T10:50:00Z</time>
      </trkpt>
      <trkpt lat="59.9084381" lon="17.71175">
        <ele>28.4962</ele>
        <time>2014-07-02T10:50:01Z</time>
      </trkpt>
      <trkpt lat="59.9084363" lon="17.71178">
        <ele>27.0543</ele>
        <time>2014-07-02T10:50:02Z</time>
      </trkpt>
      <trkpt lat="59.9084404" lon="17.7118023">
        <ele>27.0543</ele>
        <time>2014-07-02T10:50:03Z</time>
      </trkpt>
      <trkpt lat="59.9084427" lon="17.7118242">
        <ele>27.0543</ele>
        <time>2014-07-02T10:50:04Z</time>
      </trkpt>
      <trkpt lat="59.9084463" lon="17.7118525">
        <ele>27.0543</ele>
        <time>2014-07-02T10:50:05Z</time>
      </trkpt>
      <trkpt lat="59.9084473" lon="17.7118757">
        <ele>27.5349</ele>
        <time>2014-07-02T10:50:06Z</time>
      </trkpt>
      <trkpt lat="59.9084461" lon="17.7118973">
        <ele>28.4962</ele>
        <time>2014-07-02T10:50:07Z</time>
      </trkpt>
      <trkpt lat="59.9084479" lon="17.7119275">
        <ele>28.0155</ele>
        <time>2014-07-02T10:50:08Z</time>
      </trkpt>
      <trkpt lat="59.9084473" lon="17.7119722">
        <ele>27.0543</ele>
        <time>2014-07-02T10:50:09Z</time>
      </trkpt>
      <trkpt lat="59.9084505" lon="17.7120126">
        <ele>26.5736</ele>
        <time>2014-07-02T10:50:10Z</time>
      </trkpt>
      <trkpt lat="59.9084556" lon="17.712051">
        <ele>26.0929</ele>
        <time>2014-07-02T10:50:11Z</time>
      </trkpt>
      <trkpt lat="59.9084575" lon="17.7120897">
        <ele>25.6123</ele>
        <time>2014-07-02T10:50:12Z</time>
      </trkpt>
      <trkpt lat="59.9084637" lon="17.7121254">
        <ele>25.1317</ele>
        <time>2014-07-02T10:50:13Z</time>
      </trkpt>
      <trkpt lat="59.9084666" lon="17.7121698">
        <ele>26.0929</ele>
        <time>2014-07-02T10:50:14Z</time>
      </trkpt>
      <trkpt lat="59.9084669" lon="17.7122158">
        <ele>25.6123</ele>
        <time>2014-07-02T10:50:15Z</time>
      </trkpt>
      <trkpt lat="59.9084669" lon="17.7122593">
        <ele>27.0543</ele>
        <time>2014-07-02T10:50:16Z</time>
      </trkpt>
      <trkpt lat="59.9084738" lon="17.7122925">
        <ele>28.0155</ele>
        <time>2014-07-02T10:50:17Z</time>
      </trkpt>
      <trkpt lat="59.9084801" lon="17.7123314">
        <ele>29.4575</ele>
        <time>2014-07-02T10:50:18Z</time>
      </trkpt>
      <trkpt lat="59.9084848" lon="17.7123701">
        <ele>28.0155</ele>
        <time>2014-07-02T10:50:19Z</time>
      </trkpt>
      <trkpt lat="59.908491" lon="17.7124054">
        <ele>29.4575</ele>
        <time>2014-07-02T10:50:20Z</time>
      </trkpt>
      <trkpt lat="59.9084958" lon="17.7124402">
        <ele>29.9381</ele>
        <time>2014-07-02T10:50:21Z</time>
      </trkpt>
      <trkpt lat="59.9085037" lon="17.7124659">
        <ele>31.8607</ele>
        <time>2014-07-02T10:50:22Z</time>
      </trkpt>
      <trkpt lat="59.9085107" lon="17.7124876">
        <ele>32.3416</ele>
        <time>2014-07-02T10:50:23Z</time>
      </trkpt>
      <trkpt lat="59.9085234" lon="17.7125047">
        <ele>32.8223</ele>
        <time>2014-07-02T10:50:24Z</time>
      </trkpt>
      <trkpt lat="59.9085353" lon="17.7125318">
        <ele>33.3029</ele>
        <time>2014-07-02T10:50:25Z</time>
      </trkpt>
      <trkpt lat="59.9085484" lon="17.7125632">
        <ele>33.7834</ele>
        <time>2014-07-02T10:50:26Z</time>
      </trkpt>
      <trkpt lat="59.9085611" lon="17.712597">
        <ele>34.2642</ele>
        <time>2014-07-02T10:50:27Z</time>
      </trkpt>
      <trkpt lat="59.9085687" lon="17.7126302">
        <ele>32.8223</ele>
        <time>2014-07-02T10:50:28Z</time>
      </trkpt>
      <trkpt lat="59.9085789" lon="17.7126495">
        <ele>32.3416</ele>
        <time>2014-07-02T10:50:29Z</time>
      </trkpt>
      <trkpt lat="59.9085873" lon="17.7126628">
        <ele>32.8223</ele>
        <time>2014-07-02T10:50:30Z</time>
      </trkpt>
      <trkpt lat="59.9085969" lon="17.7126769">
        <ele>33.3029</ele>
        <time>2014-07-02T10:50:31Z</time>
      </trkpt>
      <trkpt lat="59.9086054" lon="17.7127037">
        <ele>33.3029</ele>
        <time>2014-07-02T10:50:32Z</time>
      </trkpt>
      <trkpt lat="59.908611" lon="17.7127318">
        <ele>32.8223</ele>
        <time>2014-07-02T10:50:33Z</time>
      </trkpt>
      <trkpt lat="59.9086137" lon="17.7127575">
        <ele>32.3416</ele>
        <time>2014-07-02T10:50:34Z</time>
      </trkpt>
      <trkpt lat="59.908616" lon="17.7127893">
        <ele>31.8607</ele>
        <time>2014-07-02T10:50:35Z</time>
      </trkpt>
      <trkpt lat="59.9086235" lon="17.7128126">
        <ele>31.8607</ele>
        <time>2014-07-02T10:50:36Z</time>
      </trkpt>
      <trkpt lat="59.9086295" lon="17.712842">
        <ele>31.3801</ele>
        <time>2014-07-02T10:50:37Z</time>
      </trkpt>
      <trkpt lat="59.908639" lon="17.7128683">
        <ele>30.8995</ele>
        <time>2014-07-02T10:50:38Z</time>
      </trkpt>
      <trkpt lat="59.9086499" lon="17.7128944">
        <ele>30.8995</ele>
        <time>2014-07-02T10:50:39Z</time>
      </trkpt>
      <trkpt lat="59.9086631" lon="17.7129193">
        <ele>31.3801</ele>
        <time>2014-07-02T10:50:40Z</time>
      </trkpt>
      <trkpt lat="59.9086753" lon="17.712943">
        <ele>31.3801</ele>
        <time>2014-07-02T10:50:41Z</time>
      </trkpt>
      <trkpt lat="59.9086863" lon="17.7129665">
        <ele>31.8607</ele>
        <time>2014-07-02T10:50:42Z</time>
      </trkpt>
      <trkpt lat="59.9086973" lon="17.7129918">
        <ele>32.3416</ele>
        <time>2014-07-02T10:50:43Z</time>
      </trkpt>
      <trkpt lat="59.9087089" lon="17.7130219">
        <ele>32.8223</ele>
        <time>2014-07-02T10:50:44Z</time>
      </trkpt>
      <trkpt lat="59.9087193" lon="17.7130491">
        <ele>33.3029</ele>
        <time>2014-07-02T10:50:45Z</time>
      </trkpt>
      <trkpt lat="59.9087269" lon="17.7130715">
        <ele>33.3029</ele>
        <time>2014-07-02T10:50:46Z</time>
      </trkpt>
      <trkpt lat="59.9087374" lon="17.7130936">
        <ele>34.2642</ele>
        <time>2014-07-02T10:50:47Z</time>
      </trkpt>
      <trkpt lat="59.908746" lon="17.7131119">
        <ele>34.2642</ele>
        <time>2014-07-02T10:50:48Z</time>
      </trkpt>
      <trkpt lat="59.9087582" lon="17.7131291">
        <ele>34.2642</ele>
        <time>2014-07-02T10:50:49Z</time>
      </trkpt>
      <trkpt lat="59.9087669" lon="17.7131486">
        <ele>34.2642</ele>
        <time>2014-07-02T10:50:50Z</time>
      </trkpt>
      <trkpt lat="59.9087743" lon="17.7131661">
        <ele>33.3029</ele>
        <time>2014-07-02T10:50:51Z</time>
      </trkpt>
      <trkpt lat="59.9087823" lon="17.713188">
        <ele>32.3416</ele>
        <time>2014-07-02T10:50:52Z</time>
      </trkpt>
      <trkpt lat="59.9087923" lon="17.7132065">
        <ele>32.8223</ele>
        <time>2014-07-02T10:50:53Z</time>
      </trkpt>
      <trkpt lat="59.9088002" lon="17.7132243">
        <ele>32.8223</ele>
        <time>2014-07-02T10:50:54Z</time>
      </trkpt>
      <trkpt lat="59.9088035" lon="17.7132466">
        <ele>31.8607</ele>
        <time>2014-07-02T10:50:55Z</time>
      </trkpt>
      <trkpt lat="59.9088152" lon="17.7132668">
        <ele>31.3801</ele>
        <time>2014-07-02T10:50:56Z</time>
      </trkpt>
      <trkpt lat="59.9088239" lon="17.7132839">
        <ele>30.8995</ele>
        <time>2014-07-02T10:50:57Z</time>
      </trkpt>
      <trkpt lat="59.9088351" lon="17.7133006">
        <ele>31.8607</ele>
        <time>2014-07-02T10:50:58Z</time>
      </trkpt>
      <trkpt lat="59.9088491" lon="17.7133202">
        <ele>32.8223</ele>
        <time>2014-07-02T10:50:59Z</time>
      </trkpt>
      <trkpt lat="59.9088654" lon="17.7133362">
        <ele>34.2642</ele>
        <time>2014-07-02T10:51:00Z</time>
      </trkpt>
      <trkpt lat="59.9088763" lon="17.713347">
        <ele>33.7834</ele>
        <time>2014-07-02T10:51:01Z</time>
      </trkpt>
      <trkpt lat="59.9088861" lon="17.7133571">
        <ele>34.2642</ele>
        <time>2014-07-02T10:51:02Z</time>
      </trkpt>
      <trkpt lat="59.9088939" lon="17.7133714">
        <ele>33.7834</ele>
        <time>2014-07-02T10:51:03Z</time>
      </trkpt>
      <trkpt lat="59.9089059" lon="17.713384">
        <ele>32.8223</ele>
        <time>2014-07-02T10:51:04Z</time>
      </trkpt>
      <trkpt lat="59.9089168" lon="17.7133984">
        <ele>32.8223</ele>
        <time>2014-07-02T10:51:05Z</time>
      </trkpt>
      <trkpt lat="59.9089321" lon="17.7134116">
        <ele>33.3029</ele>
        <time>2014-07-02T10:51:06Z</time>
      </trkpt>
      <trkpt lat="59.9089447" lon="17.7134272">
        <ele>33.3029</ele>
        <time>2014-07-02T10:51:07Z</time>
      </trkpt>
      <trkpt lat="59.9089572" lon="17.713446">
        <ele>33.7834</ele>
        <time>2014-07-02T10:51:08Z</time>
      </trkpt>
      <trkpt lat="59.9089709" lon="17.7134647">
        <ele>33.7834</ele>
        <time>2014-07-02T10:51:09Z</time>
      </trkpt>
      <trkpt lat="59.9089815" lon="17.7134782">
        <ele>34.7449</ele>
        <time>2014-07-02T10:51:10Z</time>
      </trkpt>
      <trkpt lat="59.9089892" lon="17.7134895">
        <ele>33.7834</ele>
        <time>2014-07-02T10:51:11Z</time>
      </trkpt>
      <trkpt lat="59.9089995" lon="17.7135024">
        <ele>32.8223</ele>
        <time>2014-07-02T10:51:12Z</time>
      </trkpt>
      <trkpt lat="59.909012" lon="17.7135225">
        <ele>33.3029</ele>
        <time>2014-07-02T10:51:13Z</time>
      </trkpt>
      <trkpt lat="59.9090221" lon="17.7135486">
        <ele>34.2642</ele>
        <time>2014-07-02T10:51:14Z</time>
      </trkpt>
    </trkseg>
  </trk>
</gpx>